[[{"header":{"parameterUnit":"m.s-1","parameterCategory":1,"la1":31.0,"la2":29.5877,"lo1":-88.7671,"lo2":-86.6584,"dy":0.0162,"dx":0.0185,"nx":115,"ny":88,"refTime":"2024-04-04T06:00:00:Z","depth":0,"parameterNumber":2,"parameterNumberName":"U-component_of_WINDS"},"data":[0.0,0.0,0.0,0.0,0.0,0.0,0.0,0.0,0.0,0.0,0.0,0.0,0.0,0.0,0.0,0.0,0.0,0.0,0.0,0.0,0.0,0.0,0.0,0.0,0.0,0.0,0.0,0.0,0.0,0.0,0.0,0.0,0.0,0.0,0.0,0.0,0.0,0.0,0.0,0.0,0.0,0.0,0.0,0.0,0.0,0.0,0.0,0.0,0.0,0.0,0.0,0.0,0.0,0.0,0.0,0.0,0.0,0.0,0.0,0.0,0.0,0.0,0.0,0.0,0.0,0.0,0.0,0.0,0.0,0.0,0.0,0.0,0.0,0.0,0.0,0.0,0.0,0.0,0.0,0.0,0.0,0.0,0.0,0.0,0.0,0.0,0.0,0.0,0.0,0.0,0.0,0.0,0.0,0.0,0.0,0.0,0.0,0.0,0.0,0.0,0.0,0.0,0.0,0.0,0.0,0.0,0.0,0.0,0.0,0.0,0.0,0.0,0.0,0.0,0.0,0.0,0.0,0.0,0.0,0.0,0.0,0.0,0.0,0.0,0.0,0.0,0.0,0.0,0.0,0.0,0.0,0.0,0.0,0.0,0.0,0.0,0.0,0.0,0.0,0.0,0.0,0.0,0.0,0.0,0.0,0.0,0.0,0.0,0.0,0.0,0.0,0.0,0.0,0.0,0.0,0.0,0.0,0.0,0.0,0.0,0.0,0.0,0.0,0.0,0.0,0.0,0.0,0.0,0.0,0.0,0.0,0.0,0.0,0.0,0.0,0.0,0.0,0.0,0.0,0.0,0.0,0.0,0.0,0.0,0.0,0.0,0.0,0.0,0.0,0.0,0.0,0.0,0.0,0.0,0.0,0.0,0.0,0.0,0.0,0.0,0.0,0.0,0.0,0.0,0.0,0.0,0.0,0.0,0.0,0.0,0.0,0.0,0.0,0.0,0.0,0.0,0.0,0.0,0.0,0.0,0.0,0.0,0.0,0.0,0.0,0.0,0.0,0.0,0.0,0.0,0.0,0.0,0.0,0.0,0.0,0.0,0.0,0.0,0.0,0.0,0.0,0.0,0.0,0.0,0.0,0.0,0.0,0.0,0.0,0.0,0.0,0.0,0.0,0.0,0.0,0.0,0.0,0.0,0.0,0.0,0.0,0.0,0.0,0.0,0.0,0.0,0.0,0.0,0.0,0.0,0.0,0.0,0.0,0.0,0.0,0.0,0.0,0.0,0.0,0.0,0.0,0.0,0.0,0.0,0.0,0.0,0.0,0.0,0.0,0.0,0.0,0.0,0.0,0.0,0.0,0.0,0.0,0.0,0.0,0.0,0.0,0.0,0.0,0.0,0.0,0.0,0.0,0.0,0.0,0.0,0.0,0.0,0.0,0.0,0.0,0.0,0.0,0.0,0.0,0.0,0.0,0.0,0.0,0.0,0.0,0.0,0.0,0.0,0.0,0.0,0.0,0.0,0.0,0.0,0.0,0.0,0.0,0.0,0.0,0.0,0.0,0.0,0.0,0.0,0.0,0.0,0.0,0.0,0.0,0.0,0.0,0.0,0.0,0.0,0.0,0.0,0.0,0.0,0.0,0.0,0.0,0.0,0.0,0.0,0.0,0.0,0.0,0.0,0.0,0.0,0.0,0.0,0.0,0.0,0.0,0.0,0.0,0.0,0.0,0.0,0.0,0.0,0.0,0.0,0.0,0.0,0.0,0.0,0.0,0.0,0.0,0.0,0.0,0.0,0.0,0.0,0.0,0.0,0.0,0.0,0.0,0.0,0.0,0.0,0.0,0.0,0.0,0.0,0.0,0.0,0.0,0.0,0.0,0.0,0.0,0.0,0.0,0.0,0.0,0.0,0.0,0.0,0.0,0.0,0.0,0.0,0.0,0.0,0.0,0.0,0.0,0.0,0.0,0.0,0.0,0.0,0.0,0.0,0.0,0.0,0.0,0.0,0.0,0.0,0.0,0.0,0.0,0.0,0.0,0.0,0.0,0.0,0.0,0.0,0.0,0.0,0.0,0.0,0.0,0.0,0.0,0.0,0.0,0.0,0.0,0.0,0.0,0.0,0.0,0.0,0.0,0.0,0.0,0.0,0.0,0.0,0.0,0.0,0.0,0.0,0.0,0.0,0.0,0.0,0.0,0.0,0.0,0.0,0.0,0.0,0.0,0.0,0.0,0.0,0.0,0.0,0.0,0.0,0.0,0.0,0.0,0.0,0.0,0.0,0.0,0.0,0.0,0.0,0.0,0.0,0.0,0.0,0.0,0.0,0.0,0.0,0.0,0.0,0.0,0.0,0.0,0.0,0.0,0.0,0.0,0.0,0.0,0.0,0.0,0.0,0.0,0.0,0.0,0.0,0.0,0.0,0.0,0.0,0.0,0.0,0.0,0.0,0.0,0.0,0.0,0.0,0.0,0.0,0.0,0.0,0.0,0.0,0.0,0.0,0.0,0.0,0.0,0.0,0.0,0.0,0.0,0.0,0.0,0.0,0.0,0.0,0.0,0.0,0.0,0.0,0.0,0.0,0.0,0.0,0.0,0.0,0.0,0.0,0.0,0.0,0.0,0.0,0.0,0.0,0.0,0.0,0.0,0.0,0.0,0.0,0.0,0.0,0.0,0.0,0.0,0.0,0.0,0.0,0.0,0.0,0.0,0.0,0.0,0.0,0.0,0.0,0.0,0.0,0.0,0.0,0.0,0.0,0.0,0.0,0.0,0.0,0.0,0.0,0.0,0.0,0.0,0.0,0.0,0.0,0.0,0.0,0.0,0.0,0.0,0.0,0.0,0.0,0.0,0.0,0.0,0.0,0.0,0.0,0.0,0.0,0.0,0.0,0.0,0.0,0.0,0.0,0.0,0.0,0.0,0.0,0.0,0.0,0.0,0.0,0.0,0.0,0.0,0.0,0.0,0.0,0.0,0.0,0.0,0.0,0.0,0.0,0.0,0.0,0.0,0.0,0.0,0.0,0.0,0.0,0.0,0.0,0.0,0.0,0.0,0.0,0.0,0.0,0.0,0.0,0.0,0.0,0.0,0.0,0.0,0.0,0.0,0.0,0.0,0.0,0.0,0.0,0.0,0.0,0.0,0.0,0.0,0.0,0.0,0.0,0.0,0.0,0.0,0.0,0.0,0.0,0.0,0.0,0.0,0.0,0.0,0.0,0.0,0.0,0.0,0.0,0.0,0.0,0.0,0.0,0.0,0.0,0.0,0.0,0.0,0.0,0.0,0.0,0.0,0.0,0.0,0.0,0.0,0.0,0.0,0.0,0.0,0.0,0.0,0.0,0.0,0.0,0.0,0.0,0.0,0.0,0.0,0.0,0.0,0.0,0.0,0.0,0.0,0.0,0.0,0.0,0.0,0.0,0.0,0.0,0.0,0.0,0.0,0.0,0.0,0.0,0.0,0.0,0.0,0.0,0.0,0.0,0.0,0.0,0.0,0.0,0.0,0.0,0.0,0.0,0.0,0.0,0.0,0.0,0.0,0.0,0.0,0.0,0.0,0.0,0.0,0.0,0.0,0.0,0.0,0.0,0.0,0.0,0.0,0.0,0.0,0.0,0.0,0.0,0.0,0.0,0.0,0.0,0.0,0.0,0.0,0.0,0.0,0.0,0.0,0.0,0.0,0.0,0.0,0.0,0.0,0.0,0.0,0.0,0.0,0.0,0.0,0.0,0.0,0.0,0.0,0.0,0.0,0.0,0.0,0.0,0.0,0.0,0.0,0.0,0.0,0.0,0.0,0.0,0.0,0.0,0.0,0.0,0.0,0.0,0.0,0.0,0.0,0.0,0.0,0.0,0.0,0.0,0.0,0.0,0.0,0.0,0.0,0.0,0.0,0.0,0.0,0.0,0.0,0.0,0.0,0.0,0.0,0.0,0.0,0.0,0.0,0.0,0.0,0.0,0.0,0.0,0.0,0.0,0.0,0.0,0.0,0.0,0.0,0.0,0.0,0.0,0.0,0.0,0.0,0.0,0.0,0.0,0.0,0.0,0.0,0.0,0.0,0.0,0.0,0.0,0.0,0.0,0.0,0.0,0.0,0.0,0.0,0.0,0.0,0.0,0.0,0.0,0.0,0.0,0.0,0.0,0.0,0.0,0.0,0.0,0.0,0.0,0.0,0.0,0.0,0.0,0.0,0.0,0.0,0.0,0.0,0.0,0.0,0.0,0.0,0.0,0.0,0.0,0.0,0.0,0.0,0.0,0.0,0.0,0.0,0.0,0.0,0.0,0.0,0.0,0.0,0.0,0.0,0.0,0.0,0.0,-5.008,0.0,0.0,0.0,0.0,0.0,0.0,0.0,0.0,0.0,0.0,0.0,0.0,0.0,0.0,0.0,0.0,0.0,0.0,0.0,0.0,0.0,0.0,0.0,0.0,0.0,0.0,0.0,0.0,0.0,0.0,0.0,0.0,0.0,0.0,0.0,0.0,0.0,0.0,0.0,0.0,0.0,0.0,0.0,0.0,0.0,0.0,0.0,0.0,0.0,0.0,0.0,0.0,0.0,0.0,0.0,0.0,0.0,0.0,0.0,0.0,0.0,0.0,0.0,0.0,0.0,0.0,0.0,0.0,0.0,0.0,0.0,0.0,0.0,0.0,0.0,0.0,0.0,0.0,0.0,0.0,0.0,0.0,0.0,0.0,0.0,0.0,0.0,0.0,0.0,0.0,0.0,0.0,0.0,0.0,0.0,0.0,0.0,0.0,0.0,0.0,0.0,0.0,0.0,0.0,0.0,0.0,0.0,0.0,0.0,0.0,-5.3994,-5.2908,-5.2442,-5.1688,-5.0666,0.0,0.0,0.0,0.0,0.0,0.0,0.0,0.0,0.0,0.0,0.0,0.0,0.0,0.0,0.0,0.0,0.0,0.0,0.0,0.0,0.0,0.0,0.0,0.0,0.0,0.0,0.0,0.0,0.0,0.0,0.0,0.0,0.0,0.0,0.0,0.0,0.0,0.0,0.0,0.0,0.0,0.0,0.0,0.0,0.0,0.0,0.0,0.0,0.0,0.0,0.0,0.0,0.0,0.0,0.0,0.0,0.0,0.0,0.0,0.0,0.0,0.0,0.0,0.0,0.0,0.0,0.0,0.0,0.0,0.0,0.0,0.0,0.0,0.0,0.0,0.0,0.0,0.0,0.0,0.0,0.0,0.0,0.0,0.0,0.0,0.0,0.0,0.0,0.0,0.0,0.0,0.0,0.0,0.0,0.0,0.0,0.0,0.0,0.0,0.0,0.0,0.0,0.0,0.0,0.0,0.0,0.0,0.0,0.0,0.0,0.0,0.0,-5.2632,-5.1757,-5.089,0.0,0.0,0.0,0.0,0.0,0.0,0.0,0.0,0.0,0.0,0.0,0.0,0.0,0.0,0.0,0.0,0.0,0.0,0.0,0.0,0.0,0.0,0.0,0.0,0.0,0.0,0.0,0.0,0.0,0.0,0.0,0.0,0.0,0.0,0.0,0.0,0.0,0.0,0.0,0.0,0.0,0.0,0.0,0.0,0.0,0.0,0.0,0.0,0.0,0.0,0.0,0.0,0.0,0.0,0.0,0.0,0.0,0.0,0.0,0.0,0.0,0.0,0.0,0.0,0.0,0.0,0.0,0.0,0.0,0.0,0.0,0.0,0.0,0.0,0.0,0.0,0.0,0.0,0.0,0.0,0.0,0.0,0.0,0.0,0.0,0.0,0.0,0.0,0.0,0.0,0.0,0.0,0.0,0.0,0.0,0.0,0.0,0.0,0.0,0.0,0.0,0.0,0.0,0.0,0.0,0.0,0.0,0.0,0.0,0.0,-5.4149,-5.3425,-5.2632,0.0,-5.0218,0.0,0.0,0.0,0.0,0.0,0.0,0.0,0.0,0.0,0.0,0.0,0.0,0.0,0.0,0.0,0.0,0.0,0.0,0.0,0.0,0.0,0.0,0.0,0.0,0.0,0.0,0.0,0.0,0.0,0.0,0.0,0.0,0.0,0.0,0.0,0.0,0.0,0.0,0.0,0.0,0.0,0.0,0.0,0.0,0.0,0.0,0.0,0.0,0.0,0.0,0.0,0.0,0.0,0.0,0.0,0.0,0.0,0.0,0.0,0.0,0.0,0.0,0.0,0.0,0.0,0.0,0.0,0.0,0.0,0.0,0.0,0.0,0.0,0.0,0.0,0.0,0.0,0.0,0.0,0.0,0.0,0.0,0.0,0.0,0.0,0.0,0.0,0.0,0.0,0.0,0.0,0.0,0.0,0.0,0.0,0.0,0.0,0.0,0.0,0.0,0.0,0.0,0.0,0.0,0.0,0.0,0.0,0.0,0.0,0.0,-5.4356,-5.4063,-5.2873,-5.1688,0.0,0.0,0.0,0.0,0.0,0.0,0.0,0.0,0.0,0.0,0.0,0.0,0.0,0.0,0.0,0.0,0.0,0.0,0.0,0.0,0.0,0.0,0.0,0.0,0.0,0.0,0.0,0.0,0.0,0.0,0.0,0.0,0.0,0.0,0.0,0.0,0.0,0.0,0.0,0.0,0.0,0.0,0.0,0.0,0.0,0.0,0.0,0.0,0.0,0.0,0.0,0.0,0.0,0.0,0.0,0.0,0.0,0.0,0.0,0.0,0.0,0.0,0.0,0.0,0.0,0.0,0.0,0.0,0.0,0.0,0.0,0.0,0.0,0.0,0.0,0.0,0.0,0.0,0.0,0.0,0.0,0.0,0.0,0.0,0.0,0.0,0.0,0.0,0.0,0.0,0.0,0.0,0.0,0.0,0.0,0.0,0.0,0.0,0.0,0.0,0.0,0.0,0.0,0.0,0.0,0.0,0.0,0.0,0.0,0.0,-5.4448,-5.421,-5.3699,-5.2712,-5.1679,-5.0745,0.0,0.0,0.0,0.0,0.0,0.0,0.0,0.0,0.0,0.0,0.0,0.0,0.0,0.0,0.0,0.0,0.0,0.0,0.0,0.0,0.0,0.0,0.0,0.0,0.0,0.0,0.0,0.0,0.0,0.0,0.0,0.0,0.0,0.0,0.0,0.0,0.0,0.0,0.0,0.0,0.0,0.0,0.0,0.0,0.0,0.0,0.0,0.0,0.0,0.0,0.0,0.0,0.0,0.0,0.0,0.0,0.0,0.0,0.0,0.0,0.0,0.0,0.0,0.0,0.0,0.0,0.0,0.0,0.0,0.0,0.0,0.0,0.0,0.0,0.0,0.0,0.0,0.0,0.0,0.0,0.0,0.0,0.0,0.0,0.0,0.0,0.0,0.0,0.0,0.0,0.0,0.0,0.0,0.0,0.0,0.0,0.0,0.0,0.0,0.0,0.0,0.0,0.0,0.0,0.0,0.0,0.0,0.0,-5.4512,-5.4303,-5.344,-5.193,-5.1946,-5.1287,0.0,0.0,0.0,0.0,0.0,0.0,0.0,0.0,0.0,0.0,0.0,0.0,0.0,0.0,0.0,0.0,0.0,0.0,0.0,0.0,0.0,0.0,0.0,0.0,0.0,0.0,0.0,0.0,0.0,0.0,0.0,0.0,0.0,0.0,0.0,0.0,0.0,0.0,0.0,0.0,0.0,0.0,0.0,0.0,0.0,0.0,0.0,0.0,0.0,0.0,0.0,0.0,0.0,0.0,0.0,0.0,0.0,0.0,0.0,0.0,0.0,0.0,0.0,0.0,0.0,0.0,0.0,0.0,0.0,0.0,0.0,0.0,0.0,0.0,0.0,0.0,0.0,0.0,0.0,0.0,0.0,0.0,0.0,0.0,0.0,0.0,0.0,0.0,0.0,0.0,0.0,0.0,0.0,0.0,0.0,0.0,0.0,0.0,0.0,0.0,0.0,0.0,0.0,0.0,0.0,0.0,0.0,0.0,0.0,-5.4175,-5.398,-5.3305,-5.214,-5.1807,-5.1185,0.0,0.0,0.0,0.0,0.0,0.0,0.0,0.0,0.0,0.0,0.0,0.0,0.0,0.0,0.0,0.0,0.0,0.0,0.0,0.0,0.0,0.0,0.0,0.0,0.0,0.0,0.0,0.0,0.0,0.0,0.0,0.0,0.0,0.0,0.0,0.0,0.0,0.0,0.0,0.0,0.0,0.0,0.0,0.0,0.0,0.0,0.0,0.0,0.0,0.0,0.0,0.0,0.0,0.0,0.0,0.0,0.0,0.0,0.0,0.0,0.0,0.0,0.0,0.0,0.0,0.0,0.0,0.0,0.0,0.0,0.0,0.0,0.0,0.0,0.0,0.0,0.0,0.0,0.0,0.0,0.0,0.0,0.0,0.0,0.0,0.0,0.0,0.0,0.0,0.0,0.0,0.0,0.0,0.0,0.0,0.0,0.0,0.0,0.0,0.0,0.0,0.0,0.0,0.0,0.0,0.0,0.0,0.0,0.0,-5.3651,0.0,-5.2792,-5.1614,-5.1324,-5.0744,0.0,0.0,0.0,0.0,0.0,0.0,0.0,0.0,0.0,0.0,0.0,0.0,0.0,0.0,0.0,0.0,0.0,0.0,0.0,0.0,0.0,0.0,0.0,0.0,0.0,0.0,0.0,0.0,0.0,0.0,0.0,0.0,0.0,0.0,0.0,0.0,0.0,0.0,0.0,0.0,0.0,0.0,0.0,0.0,0.0,0.0,0.0,0.0,0.0,0.0,0.0,0.0,0.0,0.0,0.0,0.0,0.0,0.0,0.0,0.0,0.0,0.0,0.0,0.0,0.0,0.0,0.0,0.0,0.0,0.0,0.0,0.0,0.0,0.0,0.0,0.0,0.0,0.0,0.0,0.0,0.0,0.0,0.0,0.0,0.0,0.0,0.0,0.0,0.0,0.0,0.0,0.0,0.0,0.0,0.0,0.0,0.0,0.0,0.0,0.0,0.0,0.0,0.0,0.0,0.0,0.0,0.0,0.0,-5.2991,-5.2903,-5.2696,-5.1803,-5.0187,-5.0426,-4.9957,0.0,0.0,0.0,0.0,0.0,0.0,0.0,0.0,0.0,0.0,0.0,0.0,0.0,0.0,0.0,0.0,0.0,0.0,0.0,0.0,0.0,0.0,0.0,0.0,0.0,0.0,0.0,0.0,0.0,0.0,0.0,0.0,0.0,0.0,0.0,0.0,0.0,0.0,0.0,0.0,0.0,0.0,0.0,0.0,0.0,0.0,0.0,0.0,0.0,0.0,0.0,0.0,0.0,0.0,0.0,0.0,0.0,0.0,0.0,0.0,0.0,0.0,0.0,0.0,0.0,0.0,0.0,0.0,0.0,0.0,0.0,0.0,0.0,0.0,0.0,0.0,0.0,0.0,0.0,0.0,0.0,0.0,0.0,0.0,0.0,0.0,0.0,0.0,0.0,0.0,0.0,0.0,0.0,0.0,0.0,0.0,0.0,0.0,0.0,0.0,0.0,0.0,0.0,0.0,0.0,0.0,0.0,0.0,0.0,-5.1842,-5.1806,-5.1254,-5.0138,-4.9812,-4.9332,0.0,0.0,0.0,0.0,0.0,0.0,0.0,0.0,0.0,0.0,0.0,0.0,0.0,0.0,0.0,0.0,0.0,0.0,0.0,0.0,0.0,0.0,0.0,0.0,0.0,0.0,0.0,0.0,0.0,0.0,0.0,0.0,0.0,0.0,0.0,0.0,0.0,0.0,0.0,0.0,0.0,0.0,0.0,0.0,0.0,0.0,0.0,0.0,0.0,0.0,0.0,0.0,0.0,0.0,0.0,0.0,0.0,0.0,0.0,0.0,0.0,0.0,0.0,0.0,0.0,0.0,0.0,0.0,0.0,0.0,0.0,0.0,0.0,0.0,0.0,0.0,0.0,0.0,0.0,0.0,0.0,0.0,0.0,0.0,0.0,0.0,0.0,0.0,0.0,0.0,0.0,0.0,0.0,0.0,0.0,0.0,0.0,0.0,0.0,0.0,0.0,0.0,0.0,0.0,0.0,0.0,0.0,0.0,0.0,-5.0592,-5.0761,-5.044,-4.9636,-4.9114,-4.8586,-4.8083,0.0,0.0,0.0,0.0,0.0,0.0,0.0,0.0,0.0,0.0,0.0,0.0,0.0,0.0,0.0,0.0,0.0,0.0,0.0,0.0,0.0,0.0,0.0,0.0,0.0,0.0,0.0,0.0,0.0,0.0,0.0,0.0,0.0,0.0,0.0,0.0,0.0,0.0,0.0,0.0,0.0,0.0,0.0,0.0,0.0,0.0,0.0,0.0,0.0,0.0,0.0,0.0,0.0,0.0,0.0,0.0,0.0,0.0,0.0,0.0,0.0,0.0,0.0,0.0,0.0,0.0,0.0,0.0,0.0,0.0,0.0,0.0,0.0,0.0,0.0,0.0,0.0,0.0,0.0,0.0,0.0,0.0,0.0,0.0,0.0,0.0,0.0,0.0,0.0,0.0,0.0,0.0,0.0,0.0,0.0,0.0,0.0,0.0,0.0,0.0,0.0,0.0,0.0,0.0,0.0,0.0,0.0,0.0,-4.9275,-4.9684,-4.9568,-4.8866,-4.833,-4.7819,0.0,0.0,0.0,0.0,0.0,0.0,0.0,0.0,0.0,0.0,0.0,0.0,0.0,0.0,0.0,0.0,0.0,0.0,0.0,0.0,0.0,0.0,0.0,0.0,0.0,0.0,0.0,0.0,0.0,0.0,0.0,0.0,0.0,0.0,0.0,0.0,0.0,0.0,0.0,0.0,0.0,0.0,0.0,0.0,0.0,0.0,0.0,0.0,0.0,0.0,0.0,0.0,0.0,0.0,0.0,0.0,0.0,0.0,0.0,0.0,0.0,0.0,0.0,0.0,0.0,0.0,0.0,0.0,0.0,0.0,0.0,0.0,0.0,0.0,0.0,0.0,0.0,0.0,0.0,0.0,0.0,0.0,0.0,0.0,0.0,0.0,0.0,0.0,0.0,0.0,0.0,0.0,0.0,0.0,0.0,0.0,0.0,0.0,0.0,0.0,0.0,0.0,0.0,0.0,0.0,0.0,0.0,0.0,0.0,-4.8831,-4.9419,-4.9563,-4.9155,-4.8036,-4.7415,0.0,0.0,0.0,0.0,0.0,0.0,0.0,0.0,0.0,0.0,0.0,0.0,0.0,0.0,0.0,0.0,0.0,0.0,0.0,0.0,0.0,0.0,0.0,0.0,0.0,0.0,0.0,0.0,0.0,0.0,0.0,0.0,0.0,0.0,0.0,0.0,0.0,0.0,0.0,0.0,0.0,0.0,0.0,0.0,0.0,0.0,0.0,0.0,0.0,0.0,0.0,0.0,0.0,0.0,0.0,0.0,0.0,0.0,0.0,0.0,0.0,0.0,0.0,0.0,0.0,0.0,0.0,0.0,0.0,0.0,0.0,0.0,0.0,0.0,0.0,0.0,0.0,0.0,0.0,0.0,0.0,0.0,0.0,0.0,0.0,0.0,0.0,0.0,0.0,0.0,0.0,0.0,0.0,0.0,0.0,0.0,0.0,0.0,0.0,0.0,0.0,0.0,0.0,0.0,0.0,0.0,0.0,0.0,-4.962,-4.9497,-4.9635,-4.9608,-4.9497,-4.8106,-4.7316,0.0,0.0,0.0,0.0,0.0,0.0,0.0,0.0,0.0,0.0,0.0,0.0,0.0,0.0,0.0,0.0,0.0,0.0,0.0,0.0,0.0,0.0,0.0,0.0,0.0,0.0,0.0,0.0,0.0,0.0,0.0,0.0,0.0,0.0,0.0,0.0,0.0,0.0,0.0,0.0,0.0,0.0,0.0,0.0,0.0,0.0,0.0,0.0,0.0,0.0,0.0,0.0,0.0,0.0,0.0,0.0,0.0,0.0,0.0,0.0,0.0,0.0,0.0,0.0,0.0,0.0,0.0,0.0,0.0,0.0,0.0,0.0,0.0,0.0,0.0,0.0,0.0,0.0,0.0,0.0,0.0,0.0,0.0,0.0,0.0,0.0,0.0,0.0,0.0,0.0,0.0,0.0,0.0,0.0,0.0,0.0,0.0,0.0,0.0,0.0,0.0,0.0,0.0,0.0,0.0,0.0,0.0,0.0,-5.0082,-5.0667,-5.0112,-4.9758,-4.9693,-4.8343,-4.7361,0.0,0.0,0.0,0.0,0.0,0.0,0.0,0.0,0.0,0.0,0.0,0.0,0.0,0.0,0.0,0.0,0.0,0.0,0.0,0.0,0.0,0.0,0.0,0.0,0.0,0.0,0.0,0.0,0.0,0.0,0.0,0.0,0.0,0.0,0.0,0.0,0.0,0.0,0.0,0.0,0.0,0.0,0.0,0.0,0.0,0.0,0.0,0.0,0.0,0.0,0.0,0.0,0.0,0.0,0.0,0.0,0.0,0.0,0.0,0.0,0.0,0.0,0.0,0.0,0.0,0.0,0.0,0.0,0.0,0.0,0.0,0.0,0.0,0.0,0.0,0.0,0.0,0.0,0.0,0.0,0.0,0.0,0.0,0.0,0.0,0.0,0.0,0.0,0.0,0.0,0.0,0.0,0.0,0.0,0.0,0.0,0.0,0.0,0.0,0.0,0.0,0.0,0.0,0.0,0.0,0.0,0.0,0.0,-5.0543,-5.0682,-5.0559,-5.022,-4.9697,-4.8327,-4.7296,0.0,0.0,0.0,0.0,0.0,0.0,0.0,0.0,0.0,0.0,0.0,0.0,0.0,0.0,0.0,0.0,0.0,0.0,0.0,0.0,0.0,0.0,0.0,0.0,0.0,0.0,0.0,0.0,0.0,0.0,0.0,0.0,0.0,0.0,0.0,0.0,0.0,0.0,0.0,0.0,0.0,0.0,0.0,0.0,0.0,0.0,0.0,0.0,-4.4739,0.0,0.0,0.0,0.0,0.0,0.0,0.0,0.0,0.0,0.0,0.0,0.0,0.0,0.0,0.0,0.0,0.0,0.0,0.0,0.0,0.0,0.0,0.0,0.0,0.0,0.0,0.0,0.0,0.0,0.0,0.0,0.0,0.0,0.0,0.0,0.0,0.0,0.0,0.0,0.0,0.0,0.0,0.0,0.0,0.0,0.0,0.0,0.0,0.0,0.0,0.0,0.0,0.0,0.0,0.0,0.0,0.0,0.0,0.0,-5.0728,-5.1398,-5.0831,-5.0411,-5.0128,-4.8804,-4.7604,0.0,0.0,0.0,0.0,0.0,0.0,0.0,0.0,0.0,0.0,0.0,0.0,0.0,0.0,0.0,0.0,0.0,0.0,0.0,0.0,0.0,0.0,0.0,0.0,0.0,0.0,0.0,0.0,0.0,0.0,0.0,0.0,0.0,0.0,0.0,0.0,0.0,0.0,0.0,0.0,0.0,0.0,0.0,0.0,0.0,0.0,0.0,0.0,0.0,0.0,0.0,0.0,0.0,0.0,0.0,0.0,0.0,0.0,0.0,0.0,0.0,0.0,0.0,0.0,0.0,0.0,0.0,0.0,0.0,0.0,0.0,0.0,0.0,0.0,0.0,0.0,0.0,0.0,0.0,0.0,0.0,0.0,0.0,0.0,0.0,0.0,0.0,0.0,0.0,0.0,0.0,0.0,0.0,0.0,0.0,0.0,0.0,0.0,0.0,0.0,0.0,0.0,0.0,0.0,0.0,0.0,0.0,-4.9821,-5.0576,-5.1957,-5.0906,-5.0382,-5.0509,-4.9282,-4.7958,-4.6625,0.0,0.0,0.0,0.0,0.0,0.0,0.0,0.0,0.0,0.0,0.0,0.0,0.0,0.0,0.0,0.0,0.0,0.0,0.0,0.0,0.0,0.0,0.0,0.0,0.0,0.0,0.0,0.0,0.0,0.0,0.0,0.0,0.0,0.0,0.0,0.0,0.0,0.0,-4.4342,-4.4109,0.0,0.0,0.0,0.0,0.0,0.0,0.0,0.0,-4.3856,0.0,0.0,0.0,0.0,0.0,0.0,0.0,0.0,0.0,0.0,0.0,0.0,0.0,0.0,0.0,0.0,0.0,0.0,0.0,0.0,0.0,0.0,0.0,0.0,0.0,0.0,0.0,0.0,0.0,0.0,0.0,0.0,0.0,0.0,0.0,0.0,0.0,0.0,0.0,0.0,0.0,0.0,0.0,0.0,0.0,0.0,0.0,0.0,0.0,0.0,0.0,0.0,0.0,0.0,0.0,0.0,-4.8984,-4.9044,-4.973,-5.0984,-5.0512,-5.008,-4.9791,-4.8991,-4.7904,-4.6462,0.0,0.0,0.0,0.0,0.0,0.0,0.0,0.0,0.0,0.0,0.0,0.0,0.0,0.0,0.0,0.0,0.0,0.0,0.0,0.0,0.0,0.0,0.0,0.0,0.0,0.0,0.0,0.0,0.0,0.0,0.0,0.0,0.0,0.0,0.0,0.0,0.0,0.0,0.0,-4.4041,-4.392,0.0,0.0,0.0,0.0,0.0,0.0,0.0,0.0,-4.322,0.0,0.0,0.0,0.0,0.0,0.0,0.0,0.0,0.0,0.0,0.0,0.0,0.0,0.0,0.0,0.0,0.0,0.0,0.0,0.0,0.0,0.0,0.0,0.0,0.0,0.0,0.0,0.0,0.0,0.0,0.0,0.0,0.0,0.0,0.0,0.0,0.0,0.0,0.0,0.0,0.0,0.0,0.0,0.0,0.0,0.0,0.0,0.0,0.0,0.0,0.0,0.0,0.0,0.0,0.0,-4.7992,-4.8231,-4.8968,-5.0099,-4.9636,-4.9238,-4.9013,-4.8492,-4.7424,0.0,0.0,0.0,0.0,0.0,0.0,0.0,0.0,0.0,0.0,0.0,0.0,0.0,0.0,0.0,0.0,0.0,0.0,0.0,0.0,0.0,0.0,0.0,0.0,0.0,0.0,0.0,0.0,0.0,0.0,0.0,0.0,0.0,0.0,0.0,0.0,0.0,0.0,0.0,0.0,-4.3703,-4.3697,-4.3697,0.0,0.0,0.0,0.0,0.0,0.0,-4.2333,-4.2415,0.0,0.0,0.0,0.0,0.0,0.0,0.0,0.0,0.0,0.0,0.0,0.0,0.0,0.0,0.0,0.0,0.0,0.0,0.0,0.0,0.0,0.0,0.0,0.0,0.0,0.0,0.0,0.0,0.0,0.0,0.0,0.0,0.0,0.0,0.0,0.0,0.0,0.0,0.0,0.0,0.0,0.0,0.0,0.0,0.0,0.0,0.0,0.0,0.0,0.0,0.0,0.0,0.0,0.0,0.0,-4.6842,-4.7289,-4.8013,-4.8979,-4.8583,-4.8249,-4.8194,-4.7781,-4.6845,0.0,0.0,0.0,0.0,0.0,0.0,0.0,0.0,0.0,0.0,0.0,0.0,0.0,0.0,0.0,0.0,0.0,0.0,0.0,0.0,0.0,0.0,0.0,0.0,0.0,0.0,0.0,0.0,0.0,0.0,0.0,0.0,0.0,0.0,0.0,0.0,0.0,0.0,0.0,0.0,0.0,-4.341,-4.3321,-4.2954,0.0,0.0,0.0,0.0,-4.1409,-4.1353,0.0,0.0,0.0,0.0,0.0,0.0,0.0,0.0,0.0,0.0,0.0,0.0,0.0,0.0,0.0,0.0,0.0,0.0,0.0,0.0,0.0,0.0,0.0,0.0,0.0,0.0,0.0,0.0,0.0,0.0,0.0,0.0,0.0,0.0,0.0,0.0,0.0,0.0,0.0,0.0,0.0,0.0,0.0,0.0,0.0,0.0,0.0,0.0,0.0,0.0,0.0,0.0,0.0,0.0,0.0,0.0,-4.5296,-4.5802,-4.6435,-4.7088,-4.7304,-4.7312,-4.7144,-4.6843,-4.6458,0.0,0.0,0.0,0.0,0.0,0.0,0.0,0.0,0.0,0.0,0.0,0.0,0.0,0.0,0.0,0.0,0.0,0.0,0.0,0.0,0.0,0.0,0.0,0.0,0.0,0.0,0.0,0.0,0.0,0.0,0.0,0.0,0.0,0.0,0.0,0.0,0.0,0.0,0.0,0.0,0.0,-4.3068,-4.2819,-4.2232,-4.1727,0.0,0.0,-4.081,-4.0296,-4.017,0.0,0.0,0.0,0.0,0.0,0.0,0.0,0.0,0.0,0.0,0.0,0.0,0.0,0.0,0.0,0.0,0.0,0.0,0.0,0.0,0.0,0.0,0.0,0.0,0.0,0.0,0.0,0.0,0.0,0.0,0.0,0.0,0.0,0.0,0.0,0.0,0.0,0.0,0.0,0.0,0.0,0.0,0.0,0.0,0.0,0.0,0.0,0.0,0.0,0.0,0.0,0.0,0.0,0.0,0.0,-4.4176,-4.4573,-4.5302,-4.5961,-4.6309,-4.6467,-4.6376,-4.6132,-4.594,-4.5523,0.0,0.0,0.0,0.0,0.0,0.0,0.0,0.0,0.0,0.0,0.0,0.0,0.0,0.0,0.0,0.0,0.0,0.0,0.0,0.0,0.0,0.0,0.0,0.0,0.0,0.0,0.0,0.0,0.0,0.0,0.0,0.0,0.0,0.0,0.0,0.0,0.0,0.0,0.0,0.0,0.0,0.0,-4.2842,-4.2134,0.0,0.0,0.0,-4.0196,-3.9924,0.0,0.0,0.0,0.0,0.0,0.0,0.0,0.0,0.0,0.0,0.0,0.0,0.0,0.0,0.0,0.0,0.0,0.0,0.0,0.0,0.0,0.0,0.0,0.0,0.0,0.0,0.0,0.0,0.0,0.0,0.0,0.0,0.0,0.0,0.0,0.0,0.0,0.0,0.0,0.0,0.0,0.0,0.0,0.0,0.0,0.0,0.0,0.0,0.0,0.0,0.0,0.0,0.0,0.0,0.0,0.0,0.0,-4.3926,-4.489,-4.5488,-4.5649,-4.5702,-4.5594,-4.5414,-4.5282,0.0,0.0,0.0,0.0,0.0,0.0,0.0,0.0,0.0,0.0,0.0,0.0,0.0,0.0,0.0,0.0,0.0,0.0,0.0,0.0,0.0,0.0,0.0,0.0,0.0,0.0,0.0,-4.1368,0.0,0.0,0.0,0.0,0.0,0.0,0.0,0.0,0.0,0.0,0.0,0.0,0.0,0.0,-4.2693,-4.2595,-4.2024,-4.1641,0.0,0.0,-3.998,-3.9833,-3.9465,-3.9216,0.0,0.0,0.0,0.0,0.0,0.0,0.0,0.0,0.0,0.0,0.0,0.0,0.0,0.0,0.0,0.0,0.0,0.0,0.0,0.0,0.0,0.0,0.0,0.0,0.0,0.0,0.0,0.0,0.0,0.0,0.0,0.0,0.0,0.0,0.0,0.0,0.0,0.0,0.0,0.0,0.0,0.0,0.0,0.0,0.0,0.0,0.0,0.0,0.0,0.0,0.0,0.0,0.0,0.0,-4.282,-4.3088,-4.42,-4.4789,-4.4789,-4.4776,-4.4938,-4.5221,-4.493,-4.4705,0.0,0.0,0.0,0.0,0.0,0.0,0.0,0.0,0.0,0.0,0.0,0.0,0.0,0.0,0.0,0.0,0.0,0.0,0.0,0.0,0.0,0.0,0.0,0.0,0.0,0.0,0.0,0.0,0.0,0.0,0.0,0.0,0.0,0.0,0.0,0.0,0.0,0.0,0.0,0.0,0.0,-4.2092,-4.1796,-4.1769,-4.1495,0.0,-4.0773,-4.0522,-3.9955,-3.9823,-3.9857,-3.9857,0.0,0.0,0.0,0.0,0.0,0.0,0.0,0.0,0.0,0.0,0.0,0.0,0.0,0.0,0.0,0.0,0.0,0.0,0.0,0.0,0.0,0.0,0.0,0.0,0.0,0.0,0.0,0.0,0.0,0.0,0.0,0.0,0.0,0.0,0.0,0.0,0.0,0.0,0.0,0.0,0.0,0.0,0.0,0.0,0.0,0.0,0.0,0.0,0.0,0.0,0.0,0.0,0.0,-4.221,-4.3023,-4.4093,-4.4681,-4.4681,-4.4681,-4.4789,-4.4897,-4.4613,-4.4241,0.0,0.0,0.0,0.0,0.0,0.0,0.0,0.0,0.0,0.0,0.0,0.0,0.0,0.0,0.0,0.0,0.0,0.0,0.0,0.0,0.0,0.0,0.0,0.0,0.0,0.0,0.0,0.0,-3.9959,-3.9763,-3.952,0.0,0.0,0.0,0.0,0.0,0.0,0.0,0.0,0.0,0.0,-4.1547,-4.1448,-4.1298,0.0,0.0,-4.0411,-4.0,-3.978,-3.9589,-3.9464,-3.9477,-3.9662,0.0,0.0,0.0,0.0,0.0,0.0,0.0,0.0,0.0,0.0,0.0,0.0,0.0,0.0,0.0,0.0,0.0,0.0,0.0,0.0,0.0,0.0,0.0,0.0,0.0,0.0,0.0,0.0,0.0,0.0,0.0,0.0,0.0,0.0,0.0,0.0,0.0,0.0,0.0,0.0,0.0,0.0,0.0,0.0,0.0,0.0,0.0,0.0,0.0,0.0,0.0,0.0,-4.1916,-4.2866,-4.3986,-4.4518,-4.4476,-4.4463,-4.4463,-4.4463,-4.4248,-4.3847,0.0,0.0,0.0,0.0,0.0,0.0,0.0,0.0,0.0,0.0,0.0,0.0,0.0,0.0,0.0,0.0,0.0,0.0,0.0,0.0,0.0,0.0,0.0,0.0,0.0,0.0,0.0,0.0,-3.927,-3.9037,-3.8791,0.0,0.0,0.0,0.0,0.0,0.0,0.0,0.0,0.0,0.0,-4.0808,-4.0694,-4.058,-4.0542,-4.0529,-4.0044,-3.9638,-3.9638,-3.9519,-3.946,-3.9447,0.0,0.0,0.0,0.0,0.0,0.0,0.0,0.0,0.0,0.0,0.0,0.0,0.0,0.0,0.0,0.0,0.0,0.0,0.0,0.0,0.0,0.0,0.0,0.0,0.0,0.0,0.0,0.0,0.0,0.0,-4.0593,0.0,0.0,0.0,0.0,0.0,0.0,0.0,0.0,0.0,0.0,0.0,0.0,0.0,0.0,0.0,0.0,0.0,0.0,0.0,0.0,0.0,0.0,-4.2035,-4.2578,-4.3676,-4.4148,-4.3955,-4.3899,-4.3899,-4.3899,-4.3887,-4.3511,-4.2656,0.0,0.0,0.0,0.0,0.0,0.0,0.0,0.0,0.0,0.0,0.0,0.0,0.0,0.0,0.0,0.0,0.0,0.0,0.0,0.0,0.0,0.0,0.0,0.0,0.0,0.0,-3.8697,-3.8535,-3.8299,0.0,0.0,0.0,0.0,0.0,0.0,0.0,0.0,0.0,0.0,-3.9218,-3.9633,-3.9285,-3.9505,-3.9685,-3.9685,-3.9672,-3.9659,-3.9647,-3.9879,-4.0096,0.0,0.0,0.0,0.0,0.0,0.0,0.0,0.0,0.0,0.0,0.0,0.0,0.0,0.0,0.0,0.0,0.0,0.0,0.0,0.0,0.0,0.0,0.0,0.0,0.0,0.0,0.0,-4.0695,-4.0521,0.0,0.0,0.0,0.0,0.0,0.0,0.0,0.0,0.0,0.0,0.0,-4.0351,-4.0219,0.0,0.0,0.0,0.0,0.0,0.0,0.0,0.0,0.0,0.0,0.0,0.0,-4.1121,-4.1757,-4.2848,-4.3376,-4.3321,-4.3321,-4.3321,-4.3321,-4.3321,-4.2789,-4.177,0.0,0.0,0.0,0.0,0.0,0.0,0.0,0.0,0.0,0.0,0.0,0.0,0.0,0.0,0.0,0.0,0.0,0.0,0.0,0.0,0.0,0.0,0.0,0.0,0.0,-3.7629,0.0,0.0,0.0,0.0,0.0,0.0,0.0,0.0,0.0,0.0,0.0,-3.7426,-3.7557,-3.7927,-3.8267,-3.8319,-3.8267,-3.8279,0.0,0.0,0.0,0.0,0.0,0.0,0.0,0.0,0.0,0.0,0.0,0.0,0.0,0.0,-3.9245,-3.918,-3.9225,-3.9289,-3.9186,0.0,0.0,0.0,0.0,0.0,0.0,0.0,0.0,0.0,0.0,0.0,0.0,0.0,0.0,-4.0296,0.0,-4.0206,0.0,0.0,0.0,0.0,0.0,0.0,0.0,0.0,-3.946,-3.9712,-3.982,-3.9556,-3.9304,0.0,-3.8239,-3.7844,0.0,0.0,0.0,0.0,0.0,0.0,0.0,0.0,-4.0273,-4.071,-4.1651,-4.2105,-4.2049,-4.2049,-4.2037,-4.2037,-4.1848,-4.1428,-4.0698,-3.9283,-3.8353,0.0,0.0,0.0,0.0,0.0,0.0,0.0,0.0,0.0,0.0,0.0,0.0,0.0,0.0,0.0,0.0,0.0,0.0,0.0,0.0,0.0,0.0,0.0,-3.6677,0.0,0.0,0.0,0.0,0.0,0.0,0.0,0.0,0.0,-3.6285,-3.6363,-3.6379,-3.6343,-3.6605,-3.6815,-3.6858,0.0,0.0,0.0,0.0,0.0,0.0,0.0,-3.7838,-3.8007,-3.8185,-3.8142,-3.7601,-3.7233,-3.7115,-3.7311,0.0,0.0,-3.8567,-3.8836,-3.8968,-3.8715,-3.8823,-3.8933,-3.8968,-3.9136,-3.9277,0.0,0.0,0.0,0.0,0.0,0.0,0.0,0.0,-4.0621,-4.0262,0.0,-3.9314,0.0,0.0,0.0,0.0,0.0,-3.8843,0.0,0.0,-3.8671,-3.8586,-3.8312,-3.816,-3.7815,-3.7286,-3.6867,-3.6376,-3.6023,-3.7164,0.0,0.0,0.0,0.0,0.0,0.0,-3.9414,-3.9474,-4.0185,-4.0408,-4.0176,-4.0118,-4.0106,-4.0117,-3.9685,-3.9414,-3.9386,-3.8392,-3.78,-3.7827,-3.7059,0.0,0.0,0.0,0.0,0.0,0.0,0.0,0.0,0.0,0.0,0.0,0.0,0.0,0.0,0.0,0.0,0.0,0.0,0.0,0.0,-3.6038,0.0,0.0,0.0,0.0,0.0,0.0,0.0,0.0,0.0,0.0,-3.5633,-3.5295,-3.4937,-3.4902,0.0,0.0,0.0,0.0,-3.5513,-3.5893,-3.5982,-3.6229,-3.6996,-3.7326,-3.7495,-3.7359,0.0,0.0,-3.594,-3.5532,-3.5532,-3.6013,-3.6177,-3.661,-3.7949,-3.8489,-3.8542,-3.8079,-3.7979,-3.7929,-3.7978,-3.8417,-3.8742,-3.9165,0.0,0.0,0.0,0.0,-3.9925,-3.9635,-3.9594,-3.9357,-3.9155,-3.9011,-3.9114,0.0,0.0,0.0,0.0,0.0,0.0,-3.8579,-3.8487,-3.8562,-3.837,-3.8091,-3.7943,-3.7609,-3.7138,-3.6688,-3.6389,-3.6239,-3.629,-3.6206,-3.6005,0.0,0.0,0.0,0.0,-3.7976,-3.8102,-3.8672,-3.8944,-3.8826,-3.8826,-3.8714,-3.835,-3.808,-3.78,-3.743,-3.6983,-3.6572,-3.6209,-3.6166,0.0,0.0,0.0,0.0,0.0,0.0,0.0,0.0,0.0,0.0,0.0,0.0,0.0,0.0,0.0,0.0,0.0,0.0,0.0,-3.5399,-3.5532,-3.5538,0.0,0.0,0.0,0.0,0.0,0.0,0.0,0.0,0.0,-3.4195,-3.4305,-3.436,0.0,0.0,-3.4177,-3.4289,-3.4469,-3.4729,-3.4997,-3.5208,0.0,-3.5842,-3.5969,-3.6099,-3.6301,-3.5865,-3.5252,-3.4701,-3.4356,-3.4233,-3.4635,-3.488,-3.5189,-3.5831,-3.7009,-3.7831,-3.7919,-3.7999,-3.7999,-3.7999,-3.812,-3.8218,-3.856,-3.9265,-3.9043,-3.9228,-3.9645,-3.913,-3.8986,-3.8979,-3.8798,-3.867,-3.8723,-3.8732,-3.861,-3.8442,-3.8693,0.0,0.0,0.0,-3.8381,-3.8324,-3.8194,-3.7999,-3.7762,-3.7328,-3.7002,-3.6708,-3.6204,-3.5983,-3.5983,-3.5699,-3.5484,-3.5315,0.0,0.0,-3.5771,-3.6487,-3.6875,-3.6986,-3.7352,-3.7544,-3.7544,-3.7544,-3.7303,-3.6879,-3.6697,-3.6393,-3.5892,-3.5691,-3.5463,-3.5104,-3.5171,-3.4801,0.0,0.0,0.0,0.0,0.0,0.0,0.0,0.0,0.0,0.0,0.0,-3.5271,-3.4969,0.0,0.0,0.0,-3.4788,-3.4585,-3.4645,-3.4653,0.0,0.0,0.0,0.0,0.0,0.0,0.0,-3.3901,-3.3515,-3.3306,-3.3424,-3.3523,-3.3523,-3.3523,-3.3353,-3.3416,-3.3756,0.0,-3.4154,-3.4678,-3.4857,-3.5051,-3.5518,-3.561,-3.5606,-3.5602,-3.5056,-3.4487,-3.4184,-3.3948,-3.3891,-3.4168,-3.4386,-3.4585,-3.4797,-3.568,-3.6493,-3.6885,-3.6947,-3.6947,-3.6958,-3.7,-3.7,-3.837,-3.8608,-3.8048,-3.8263,-3.8949,-3.8636,-3.8544,-3.8681,-3.8671,-3.8681,-3.866,-3.8186,-3.8192,-3.8475,-3.8071,0.0,-3.8325,-3.8143,-3.7997,-3.7955,-3.7618,-3.7446,-3.7343,-3.6515,-3.609,-3.6049,-3.5625,-3.5428,-3.5418,-3.5418,-3.5211,-3.4868,-3.5198,-3.5376,-3.5366,-3.5833,-3.6009,-3.6052,-3.626,-3.63,-3.63,-3.63,-3.6056,-3.5607,-3.5478,-3.5171,-3.4665,-3.4506,-3.4424,-3.4413,-3.4208,-3.3877,-3.3511,0.0,0.0,0.0,0.0,0.0,0.0,0.0,0.0,0.0,0.0,0.0,0.0,0.0,0.0,-3.3931,-3.3815,0.0,-3.3987,-3.3621,0.0,0.0,0.0,-3.2922,-3.2717,-3.3039,-3.3176,-3.2976,0.0,0.0,-3.3136,-3.2908,-3.269,-3.2778,-3.2789,-3.2934,-3.3317,-3.3509,-3.3862,-3.4721,-3.4837,-3.5084,-3.5692,-3.5786,-3.5619,-3.525,-3.4802,-3.446,-3.4139,-3.4069,-3.4219,-3.4414,-3.4456,-3.4496,-3.4632,-3.474,-3.4783,-3.528,-3.5379,-3.5367,-3.5422,-3.5422,-3.5477,-3.8258,-3.8293,-3.8141,-3.8374,-3.8711,-3.8402,-3.8266,-3.8304,-3.8314,-3.8314,-3.8293,-3.82,-3.8336,-3.8645,-3.8287,-3.8311,-3.8618,-3.8294,-3.7971,-3.7639,-3.7553,-3.7125,-3.6453,-3.6215,-3.5925,-3.5594,-3.548,-3.5428,-3.5428,-3.5428,-3.5366,-3.5262,-3.5332,-3.5225,-3.4962,-3.5226,-3.5457,-3.5559,-3.5612,-3.5613,-3.5613,-3.5665,-3.5289,-3.4487,-3.4648,-3.4392,-3.361,-3.3745,-3.3784,-3.384,-3.3733,-3.351,-3.3093,-3.2868,0.0,0.0,0.0,0.0,0.0,0.0,0.0,0.0,0.0,-3.2617,-3.2712,0.0,-3.3107,0.0,-3.3878,-3.3845,-3.3466,-3.3473,0.0,0.0,-3.3359,-3.3463,-3.3351,-3.3289,-3.3194,-3.3138,-3.2949,-3.2794,-3.2851,-3.2727,-3.2861,-3.3161,-3.3223,-3.3265,-3.3379,-3.4059,-3.4557,-3.4805,-3.5045,-3.5293,-3.552,-3.549,-3.5396,-3.4949,-3.4783,-3.4596,-3.4183,-3.4072,-3.4121,-3.4191,-3.4181,-3.4247,-3.4271,-3.425,-3.4278,-3.4403,-3.455,-3.4692,-3.4703,-3.4703,-3.4758,-3.8191,-3.8191,-3.8191,-3.8314,-3.8426,-3.8314,-3.8191,-3.8191,-3.8191,-3.8191,-3.8191,-3.8191,-3.8304,-3.8493,-3.8314,-3.82,-3.8135,-3.8003,-3.7622,-3.7187,-3.697,-3.6608,-3.6111,-3.5904,-3.5676,-3.5428,-3.5428,-3.5428,-3.5428,-3.5428,-3.5428,-3.5428,-3.5428,-3.5293,-3.5066,-3.5228,-3.5353,-3.5418,-3.5428,-3.5428,-3.5428,-3.5428,-3.4983,-3.4173,-3.423,-3.3872,-3.2996,-3.3136,-3.3172,-3.3182,-3.3182,-3.2962,-3.25,-3.2367,-3.1827,0.0,0.0,0.0,0.0,0.0,0.0,0.0,0.0,0.0,0.0,0.0,-3.276,-3.3247,-3.3409,-3.3296,-3.283,-3.3058,-3.3069,-3.2841,-3.2944,-3.2991,-3.3058,-3.2887,-3.2841,-3.2965,-3.2851,-3.2669,-3.2669,-3.2903,-3.3099,-3.3348,-3.3789,-3.3989,-3.402,-3.4505,-3.4878,-3.5024,-3.5262,-3.5428,-3.5428,-3.5428,-3.5345,-3.5107,-3.5055,-3.4962,-3.4724,-3.4672,-3.4662,-3.4672,-3.4672,-3.46,-3.4424,-3.4443,-3.432,-3.417,-3.4244,-3.431,-3.4336,-3.4325,-3.4325,-3.8191,-3.8191,-3.8191,-3.8191,-3.8191,-3.8191,-3.8191,-3.8191,-3.8191,-3.8191,-3.8191,-3.8191,-3.8191,-3.8181,-3.8052,-3.7804,-3.7432,-3.737,-3.7027,-3.6637,-3.6234,-3.6017,-3.6008,-3.5614,-3.5428,-3.5428,-3.5428,-3.5428,-3.5428,-3.5428,-3.5428,-3.5428,-3.5428,-3.5428,-3.5428,-3.5428,-3.5428,-3.5428,-3.5428,-3.5428,-3.5428,-3.5428,-3.5014,-3.4207,-3.4163,-3.3679,-3.2851,-3.27,-3.2669,-3.2669,-3.2669,-3.2494,-3.2091,-3.1913,-3.146,0.0,-3.0389,0.0,0.0,0.0,0.0,0.0,0.0,0.0,0.0,-3.2279,-3.2665,-3.254,-3.2487,-3.2373,-3.2123,-3.2315,-3.2373,-3.2133,-3.2123,-3.2133,-3.2123,-3.2133,-3.2258,-3.2555,-3.2612,-3.268,-3.2773,-3.3151,-3.3437,-3.3617,-3.4277,-3.4754,-3.4828,-3.4909,-3.5004,-3.5376,-3.5428,-3.5428,-3.5428,-3.5428,-3.5418,-3.5418,-3.5387,-3.5428,-3.5376,-3.5376,-3.5397,-3.5397,-3.5355,-3.5262,-3.49,-3.4899,-3.4714,-3.4372,-3.4329,-3.4305,-3.416,-3.4097,-3.4181,-3.8191,-3.8191,-3.8191,-3.8191,-3.8191,-3.8191,-3.8191,-3.8191,-3.8191,-3.8191,-3.8191,-3.8191,-3.8191,-3.816,-3.7523,-3.7176,-3.7074,-3.6379,-3.5973,-3.5791,-3.5773,-3.5653,-3.549,-3.5469,-3.5428,-3.5428,-3.5428,-3.5428,-3.5428,-3.5428,-3.5428,-3.5428,-3.5428,-3.5428,-3.5428,0.0,0.0,0.0,-3.5428,-3.5428,-3.5428,-3.5428,-3.5169,-3.4641,-3.4329,0.0,-3.3275,-3.2913,-3.2669,-3.2669,-3.2669,0.0,0.0,0.0,0.0,0.0,0.0,0.0,0.0,0.0,0.0,0.0,-3.1609,-3.1709,-3.1906,-3.1989,-3.1869,-3.1604,-3.1305,-3.1121,-3.1121,-3.1121,-3.1121,-3.1121,-3.1063,-3.1121,-3.1063,-3.1315,-3.1614,-3.1903,-3.2201,-3.2621,-3.3134,-3.3337,-3.3679,-3.4391,-3.4712,-3.491,-3.5242,-3.5273,-3.5324,-3.5418,-3.5428,-3.5428,-3.5428,-3.5428,-3.5428,-3.5428,-3.5428,-3.5428,-3.5428,-3.5428,-3.5428,-3.5428,-3.5428,-3.5407,-3.5304,-3.5293,-3.5242,-3.5169,-3.5148,-3.4952,-3.4227,-3.4072,-3.4132,-3.7904,0.0,-3.7904,-3.7837,0.0,-3.7636,-3.7636,-3.7703,-3.8048,-3.8114,-3.7904,-3.7904,-3.7714,-3.7289,-3.6846,-3.6389,-3.577,-3.5345,-3.4992,-3.4703,-3.4693,-3.4745,-3.4922,-3.4922,-3.4922,-3.4922,-3.4922,-3.4922,-3.4922,-3.4932,-3.4984,-3.518,-3.517,-3.5232,-3.5428,-3.5428,-3.5428,-3.5428,-3.5428,-3.5428,-3.5428,-3.5428,-3.52,-3.4776,-3.4598,0.0,0.0,0.0,0.0,0.0,0.0,0.0,0.0,0.0,0.0,-3.1799,-3.1388,-3.1189,-3.1227,-3.1248,-3.1284,-3.1339,-3.1144,-3.1092,-3.1388,-3.1244,-3.0908,-3.0441,-3.0363,-3.0295,-3.0119,-3.0236,-3.0295,-3.0119,-3.0119,-3.0128,-3.0119,-3.0246,-3.0548,-3.1054,-3.1571,-3.22,-3.2891,-3.3507,-3.4027,-3.4693,-3.4952,-3.5159,-3.5366,-3.5428,-3.5428,-3.5428,-3.5428,-3.5428,-3.5428,-3.5428,-3.5428,-3.5428,-3.5428,-3.5428,-3.5428,-3.5428,-3.5428,-3.5428,-3.5428,-3.5428,-3.5428,-3.5428,-3.5428,-3.5428,-3.5428,-3.5304,-3.4817,-3.4734,-3.4734,-3.7482,-3.7482,-3.7492,-3.7348,-3.7089,-3.7089,-3.7089,-3.7146,0.0,0.0,0.0,-3.74,-3.6983,-3.6284,-3.6067,-3.5365,-3.429,-3.4128,-3.3897,-3.3607,-3.3597,-3.3788,-3.4182,-3.4192,-3.4192,-3.4192,-3.4192,-3.4192,-3.4192,-3.4192,-3.4326,-3.4563,-3.4563,-3.4749,-3.5057,-3.5128,-3.5159,-3.517,-3.5314,-3.5428,-3.5428,-3.5428,-3.5252,-3.489,-3.4797,-3.4579,-3.4147,-3.4113,-3.3886,-3.3465,-3.3503,-3.3337,-3.2985,-3.2416,-3.2046,-3.1742,-3.1269,-3.102,-3.1034,-3.1007,-3.0928,-3.0946,-3.045,-3.0265,-3.0529,-3.0314,-2.9912,-2.9303,-2.9422,-2.9412,-2.9185,-2.9422,-2.9481,-2.9185,-2.9126,-2.9126,-2.9126,-2.9185,-2.9509,-3.0154,-3.0845,-3.1562,-3.2366,-3.3306,-3.4177,-3.4595,-3.4872,-3.5304,-3.5294,-3.5366,-3.5428,-3.5428,-3.5428,-3.5428,-3.5428,-3.5428,-3.5428,-3.5428,-3.5428,-3.5428,-3.5428,-3.5428,-3.5428,-3.5428,-3.5428,-3.5428,-3.5428,-3.5428,-3.5428,-3.5428,-3.5428,-3.5428,-3.5428,-3.5418,-3.5376,-3.7146,-3.7146,-3.7146,-3.7146,-3.7089,-3.7089,-3.7089,-3.7089,-3.7213,-3.7213,-3.7126,-3.6743,-3.633,-3.5811,-3.4812,-3.4037,-3.3428,-3.2816,-3.2619,-3.2863,-3.2863,-3.3014,-3.3377,-3.3377,-3.3367,-3.3377,-3.3367,-3.3367,-3.3377,-3.3377,-3.3367,-3.3447,-3.3437,-3.3558,-3.3839,-3.4139,-3.4335,-3.4472,-3.5098,-3.5428,-3.5428,-3.5428,-3.5397,-3.5314,-3.4952,-3.4603,-3.4298,-3.417,-3.3922,-3.3612,-3.385,-3.3938,-3.3865,-3.3128,-3.2669,-3.2367,-3.1674,-3.1156,-3.0848,-3.0636,-3.0256,-2.9717,-2.939,-2.9331,-2.954,-2.9381,-2.9025,-2.8659,-2.8421,-2.825,-2.8191,-2.825,-2.825,-2.8191,-2.8191,-2.8199,-2.8208,-2.8466,-2.8883,-2.9554,-2.9948,-3.0789,-3.1982,-3.2624,-3.325,-3.3858,-3.43,-3.4662,-3.4932,-3.5242,-3.5356,-3.5428,-3.5428,-3.5428,-3.5428,-3.5428,-3.5428,-3.5428,-3.5428,-3.5428,-3.5428,-3.5428,-3.5428,-3.5428,-3.5428,-3.5428,-3.5428,-3.5428,-3.5428,-3.5428,-3.5428,-3.5428,-3.5428,-3.5428,-3.5428,-3.6799,-3.6799,-3.6799,-3.6545,-3.6192,-3.5867,-3.5825,-3.5815,-3.5825,-3.602,-3.639,-3.599,-3.5356,-3.4453,-3.392,-3.3188,-3.2332,-3.1964,-3.1936,-3.2047,-3.2056,-3.2245,-3.2643,-3.2653,-3.2653,-3.2653,-3.2643,-3.2653,-3.2653,-3.2643,-3.2774,-3.2884,-3.3135,-3.3185,-3.3115,-3.3426,-3.3467,-3.3174,-3.4279,-3.4738,-3.459,-3.4797,-3.4735,-3.46,-3.4594,-3.4441,-3.4059,-3.4053,-3.3709,-3.3163,-3.3447,-3.3528,-3.3295,-3.2725,-3.2316,-3.2016,-3.1148,-3.0422,-3.0106,-2.9602,-2.9135,-2.8659,-2.837,-2.8191,-2.8131,-2.8191,-2.8071,-2.7779,-2.7608,-2.7487,-2.7487,-2.7547,-2.7487,-2.7547,-2.7652,-2.7774,-2.7809,-2.8106,-2.8536,-2.903,-2.9546,-3.0307,-3.1292,-3.1904,-3.2526,-3.3243,-3.365,-3.3985,-3.4298,-3.46,-3.4984,-3.5304,-3.5428,-3.5428,-3.5428,-3.5428,-3.5428,-3.5428,-3.5428,-3.5428,-3.5428,-3.5428,-3.5428,-3.5428,-3.5428,-3.5428,-3.5428,-3.5428,-3.5428,-3.5428,-3.5428,-3.5428,-3.5428,-3.5428,-3.5428,-3.6245,-3.6245,-3.6137,-3.5786,-3.5215,-3.4853,-3.4697,-3.4687,-3.46,-3.4943,-3.5386,-3.5175,-3.4398,-3.3457,-3.333,-3.2685,-3.1758,-3.167,-3.167,-3.166,-3.167,-3.1797,-3.2002,-3.2021,-3.1973,-3.1885,-3.1885,-3.1885,-3.1875,-3.1875,-3.1995,-3.2176,-3.2525,-3.2525,-3.2166,-3.2405,-3.2315,-3.1811,-3.2731,-3.3361,-3.3556,-3.371,-3.374,-3.3597,-3.3786,-3.3796,-3.3345,-3.3471,-3.3189,-3.2503,-3.2776,-3.2887,-3.2574,-3.207,-3.1654,-3.1266,-3.0358,-2.9578,-2.9114,-2.8619,-2.8147,-2.7861,-2.7661,-2.7426,-2.7313,-2.7487,-2.7505,-2.7271,-2.7271,-2.7296,-2.7399,-2.7408,-2.733,-2.7347,-2.7569,-2.7794,-2.7766,-2.8006,-2.8372,-2.872,-2.9217,-2.9848,-3.0501,-3.1112,-3.179,-3.2438,-3.2838,-3.3155,-3.3408,-3.3786,-3.4298,-3.4797,-3.517,-3.5356,-3.5428,-3.5428,-3.5428,-3.5428,-3.5428,-3.5428,-3.5428,-3.5428,-3.5428,-3.5428,-3.5428,-3.5428,-3.5428,-3.5428,-3.5428,-3.5428,-3.5428,-3.5428,-3.5428,-3.5428,-3.5428,-3.5516,-3.5448,-3.5086,-3.4861,-3.4756,-3.4697,-3.4658,-3.4619,-3.4297,-3.4205,-3.4264,-3.4215,-3.3931,-3.3408,-3.3018,-3.2578,-3.21,-3.21,-3.21,-3.209,-3.2109,-3.1924,-3.1641,-3.1601,-3.1387,-3.1103,-3.1094,-3.1172,-3.1162,-3.1084,-3.0908,-3.0683,-3.0967,-3.0947,-3.0644,-3.0644,-3.0522,-3.0264,-3.0121,-3.0818,-3.232,-3.22,-3.2194,-3.2556,-3.2565,-3.2247,-3.1616,-3.2192,-3.2164,-3.1561,-3.2053,-3.2426,-3.2349,-3.1722,-3.1013,-3.0365,-2.9574,-2.8807,-2.7912,-2.7697,-2.7521,-2.7255,-2.7466,-2.7655,-2.7592,-2.7932,-2.7991,-2.7664,-2.7569,-2.7698,-2.8023,-2.8049,-2.8015,-2.7989,-2.8092,-2.8134,-2.8152,-2.8169,-2.8323,-2.8764,-2.8905,-2.9146,-2.9868,-3.0307,-3.0797,-3.1433,-3.1818,-3.2074,-3.2202,-3.2702,-3.3209,-3.3723,-3.4548,-3.5294,-3.5366,-3.5428,-3.5428,-3.5428,-3.5428,-3.5428,-3.5428,-3.5428,-3.5428,-3.5428,-3.5428,-3.5428,-3.5428,-3.5428,-3.5428,-3.5428,-3.5428,-3.5428,-3.5428,-3.5428,-3.5428,-3.5234,-3.4961,-3.4775,-3.4551,-3.4307,-3.4062,-3.3945,-3.3916,-3.3769,-3.3682,-3.3691,-3.3682,-3.3457,-3.3047,-3.2871,-3.2568,-3.2238,-3.2229,-3.2229,-3.2229,-3.2229,-3.207,-3.1914,-3.1904,-3.1807,-3.165,-3.165,-3.165,-3.1601,-3.1199,-3.0642,-3.0117,-3.0079,-2.9785,-2.9322,-2.9253,-2.8851,-2.7982,-2.7843,-2.8044,-2.8675,-2.9779,-3.041,-3.0565,-3.0729,-3.0664,-3.0225,-3.0437,-3.0307,-2.9935,-3.0307,-3.0631,-3.0834,-3.0368,-2.9966,-2.9616,-2.8772,-2.8018,-2.7364,-2.7283,-2.722,-2.7101,-2.7237,-2.7355,-2.7364,-2.768,-2.7879,-2.7938,-2.7957,-2.8023,-2.8186,-2.8194,-2.8194,-2.822,-2.8391,-2.8537,-2.8545,-2.8725,-2.8931,-2.9068,-2.9102,-2.9201,-2.9461,-2.9822,-3.0148,-3.0464,-3.0797,-3.1064,-3.1249,-3.169,-3.2192,-3.2829,-3.3776,-3.46,-3.4984,-3.5294,-3.5366,-3.5428,-3.5428,-3.5428,-3.5428,-3.5428,-3.5428,-3.5428,-3.5428,-3.5428,-3.5428,-3.5428,-3.5428,-3.5428,-3.5428,-3.5428,-3.5428,-3.5428,-3.5428,-3.4844,-3.4531,-3.4404,-3.418,-3.3867,-3.3555,-3.3418,-3.3418,-3.3418,-3.3418,-3.3418,-3.3292,-3.3073,-3.2873,-3.2906,-3.2793,-3.2529,-3.251,-3.251,-3.251,-3.251,-3.2512,-3.2353,-3.2283,-3.2153,-3.2056,-3.1905,-3.1915,-3.1805,-3.1108,-3.0376,-2.9705,-2.9259,-2.865,-2.7993,-2.7882,-2.7272,-2.625,-2.6042,-2.5884,-2.5834,-2.7085,-2.8083,-2.8456,-2.8785,-2.8781,-2.8515,-2.8632,-2.8568,-2.8246,-2.8568,-2.8822,-2.9028,-2.8839,-2.8716,-2.8568,-2.7744,-2.7165,-2.6842,-2.6955,-2.702,-2.7011,-2.714,-2.7269,-2.7333,-2.7654,-2.7972,-2.8173,-2.8272,-2.8392,-2.8503,-2.8503,-2.8494,-2.852,-2.8768,-2.8922,-2.8939,-2.917,-2.9282,-2.9307,-2.9273,-2.9307,-2.9307,-2.9495,-2.9691,-2.9757,-2.9896,-3.0174,-3.0417,-3.0732,-3.124,-3.2001,-3.2956,-3.3902,-3.46,-3.5108,-3.5356,-3.5428,-3.5428,-3.5428,-3.5428,-3.5428,-3.5428,-3.5428,-3.5428,-3.5428,-3.5428,-3.5428,-3.5428,-3.5428,-3.5428,-3.5428,-3.5428,-3.5428,-3.5428,-3.4185,-3.4043,-3.3652,-3.3442,-3.3447,-3.3374,-3.3355,-3.3292,-3.3355,-3.3355,-3.3292,-3.3048,-3.2912,-3.2863,-3.3097,-3.3316,-3.3277,-3.3238,-3.3228,-3.3228,-3.3248,-3.3135,-3.2783,-3.2463,-3.2075,-3.1735,-3.1479,-3.1257,-3.1129,-3.041,-2.9692,-2.9109,-2.8378,-2.759,-2.6736,-2.6371,-2.5876,-2.5202,-2.4903,-2.4556,-2.4262,-2.4347,-2.5125,-2.6216,-2.6664,-2.6759,-2.6454,-2.6944,-2.7118,-2.6792,-2.7118,-2.7334,-2.7334,-2.7334,-2.72,-2.6851,-2.6442,-2.6226,-2.6254,-2.6491,-2.669,-2.6781,-2.7256,-2.7627,-2.7562,-2.79,-2.813,-2.8287,-2.8484,-2.8804,-2.9048,-2.9054,-2.9162,-2.917,-2.923,-2.9265,-2.9265,-2.9265,-2.9307,-2.9307,-2.9307,-2.9307,-2.9307,-2.9307,-2.9373,-2.9373,-2.9373,-2.9447,-2.9569,-2.9757,-3.039,-3.1359,-3.2384,-3.3325,-3.4225,-3.4984,-3.5356,-3.5428,-3.5428,-3.5428,-3.5428,-3.5428,-3.5428,-3.5428,-3.5428,-3.5428,-3.5428,-3.5428,-3.5428,-3.5428,-3.5428,-3.5428,-3.5428,-3.5428,-3.5428,-3.3788,-3.3334,-3.2925,-3.274,-3.2731,-3.2731,-3.2794,-3.2731,-3.274,-3.2731,-3.2731,-3.2603,-3.2603,-3.2603,-3.2667,-3.2731,-3.274,-3.2731,-3.2731,-3.274,-3.274,-3.2654,-3.2539,-3.2384,-3.2201,-3.1851,-3.1696,-3.1125,-3.0202,-2.9706,-2.8879,-2.7869,-2.7105,-2.6371,-2.5692,-2.5272,-2.4787,-2.4224,-2.4046,-2.3798,-2.3479,-2.3487,-2.3731,-2.4207,-2.4986,-2.5342,-2.5161,-2.5626,-2.581,-2.5677,-2.6016,-2.6264,-2.6473,-2.6473,-2.6473,-2.6339,-2.6205,-2.6071,-2.6138,-2.6197,-2.6331,-2.6339,-2.6792,-2.7051,-2.7118,-2.7584,-2.7915,-2.7981,-2.8263,-2.8535,-2.8725,-2.9045,-2.9307,-2.9307,-2.9307,-2.9307,-2.9307,-2.9307,-2.9307,-2.9307,-2.9307,-2.9307,-2.9307,-2.9307,-2.9307,-2.9307,-2.9307,-2.9307,-2.9373,-2.9561,-3.0204,-3.124,-3.2256,-3.3262,-3.4235,-3.4984,-3.5428,-3.5428,-3.5428,-3.5428,-3.5428,-3.5428,-3.5428,-3.5428,-3.5428,-3.5428,-3.5428,-3.5428,-3.5428,-3.5428,-3.5428,-3.5428,-3.5428,-3.5428,-3.5428,-3.3181,-3.2622,-3.2339,-3.2157,-3.2093,-3.2093,-3.2093,-3.2093,-3.2211,-3.2157,-3.2093,-3.2093,-3.1965,-3.1699,-3.1635,-3.1506,-3.1515,-3.1965,-3.2221,-3.2221,-3.2166,-3.2102,-3.2029,-3.1827,-3.1625,-3.135,-3.1028,-3.0303,-2.9249,-2.8636,-2.7843,-2.6839,-2.6015,-2.528,-2.471,-2.4348,-2.3984,-2.3549,-2.3425,-2.3293,-2.3113,-2.3106,-2.3106,-2.3197,-2.3765,-2.4168,-2.424,-2.4632,-2.481,-2.4789,-2.5063,-2.542,-2.5712,-2.5801,-2.5801,-2.5801,-2.5801,-2.5801,-2.5801,-2.5876,-2.5944,-2.5936,-2.6272,-2.6465,-2.6532,-2.7051,-2.7318,-2.7451,-2.7849,-2.8122,-2.8188,-2.8659,-2.8988,-2.8988,-2.9053,-2.9119,-2.9119,-2.925,-2.9307,-2.9307,-2.9307,-2.9307,-2.9307,-2.9307,-2.9307,-2.9307,-2.9307,-2.9307,-2.9495,-2.9887,-3.0529,-3.1561,-3.2638,-3.3587,-3.4423,-3.5118,-3.5366,-3.5428,-3.5428,-3.5428,-3.5428,-3.5428,-3.5428,-3.5428,-3.5428,-3.5428,-3.5428,-3.5428,-3.5428,-3.5428,-3.5428,-3.5428,-3.5428,-3.5428,-3.5428,-3.223,-3.1882,-3.1873,-3.1561,-3.1249,-3.1249,-3.1313,-3.1313,-3.1625,-3.1497,-3.1249,-3.1313,-3.0917,-3.039,-3.0139,-2.9691,-2.9757,-3.0843,-3.1561,-3.1561,-3.1377,-3.124,-3.1184,-3.0576,-3.0242,-3.0121,-2.9282,-2.8625,-2.813,-2.7302,-2.6615,-2.6065,-2.5101,-2.4355,-2.3611,-2.3666,-2.3479,-2.323,-2.3168,-2.3113,-2.3106,-2.3106,-2.3106,-2.3106,-2.3197,-2.3344,-2.3652,-2.3975,-2.4136,-2.418,-2.4481,-2.473,-2.5143,-2.5194,-2.5127,-2.5194,-2.5127,-2.5119,-2.5194,-2.5464,-2.5599,-2.5667,-2.5936,-2.6138,-2.6205,-2.6465,-2.6725,-2.6926,-2.7318,-2.7642,-2.7775,-2.8056,-2.8329,-2.8329,-2.8667,-2.8807,-2.8865,-2.9119,-2.9307,-2.9307,-2.9307,-2.9307,-2.9307,-2.9307,-2.9307,-2.9307,-2.9373,-2.9504,-2.9813,-3.0399,-3.123,-3.2256,-3.3146,-3.4037,-3.4673,-3.518,-3.5304,-3.5428,-3.5428,-3.5428,-3.5428,-3.5428,-3.5428,-3.5428,-3.5428,-3.5428,-3.5428,-3.5428,-3.5428,-3.5428,-3.5428,-3.5428,-3.5428,-3.5428,-3.5428,-3.1368,-3.077,-3.0269,-2.9878,-2.9617,-2.9617,-2.9617,-2.9683,-2.9944,-3.0091,-2.9952,-2.9961,-2.9691,-2.9347,-2.9159,-2.8888,-2.8551,-2.8945,-2.9282,-2.9674,-2.9683,-2.9478,-2.9208,-2.9003,-2.874,-2.8493,-2.7981,-2.7517,-2.7116,-2.634,-2.5687,-2.5057,-2.431,-2.3688,-2.3293,-2.323,-2.3175,-2.3106,-2.3106,-2.3106,-2.3106,-2.3106,-2.3106,-2.3106,-2.3106,-2.3164,-2.3267,-2.3574,-2.3742,-2.3764,-2.4276,-2.4723,-2.4986,-2.5059,-2.5059,-2.5059,-2.5059,-2.5059,-2.5127,-2.5194,-2.5262,-2.5329,-2.5599,-2.5734,-2.5809,-2.6071,-2.6398,-2.6658,-2.6926,-2.7059,-2.7326,-2.7467,-2.7733,-2.8263,-2.8395,-2.8469,-2.8535,-2.8733,-2.9062,-2.9242,-2.9307,-2.9307,-2.9307,-2.9307,-2.9307,-2.9373,-2.9569,-2.9822,-3.0213,-3.1046,-3.1946,-3.2902,-3.3733,-3.4485,-3.4984,-3.5304,-3.5366,-3.5428,-3.5428,-3.5428,-3.5428,-3.5428,-3.5428,-3.5428,-3.5428,-3.5428,-3.5428,-3.5428,-3.5428,-3.5428,-3.5428,-3.5428,-3.5428,-3.5428,-3.5428,-3.0399,-2.9674,-2.9102,-2.8708,-2.8378,-2.8246,-2.818,-2.8246,-2.8576,-2.865,-2.8584,-2.865,-2.8444,-2.8106,-2.8039,-2.7775,-2.7443,-2.7177,-2.7318,-2.765,-2.8114,-2.8039,-2.7833,-2.7692,-2.7368,-2.6977,-2.6725,-2.6398,-2.6084,-2.5466,-2.4857,-2.4364,-2.3743,-2.33,-2.3106,-2.3106,-2.3106,-2.3106,-2.3106,-2.3106,-2.3106,-2.3106,-2.3106,-2.3106,-2.3106,-2.3171,-2.3288,-2.3493,-2.3596,-2.3706,-2.4218,-2.4715,-2.5083,-2.5187,-2.5255,-2.5322,-2.539,-2.5464,-2.5464,-2.539,-2.5329,-2.5464,-2.5532,-2.5667,-2.5801,-2.6138,-2.6465,-2.6666,-2.6859,-2.6992,-2.7134,-2.72,-2.74,-2.7865,-2.799,-2.8196,-2.8395,-2.8675,-2.8939,-2.9185,-2.9307,-2.9307,-2.9307,-2.9438,-2.9569,-2.97,-3.0083,-3.0584,-3.1111,-3.2001,-3.2902,-3.367,-3.436,-3.4922,-3.5232,-3.5366,-3.5428,-3.5428,-3.5428,-3.5428,-3.5428,-3.5428,-3.5428,-3.5428,-3.5428,-3.5428,-3.5428,-3.5428,-3.5428,-3.5428,-3.5428,-3.5428,-3.5428,-3.5428,-3.5428,-2.9421,-2.8765,-2.8378,-2.7981,-2.7576,-2.7334,-2.7134,-2.7134,-2.7451,-2.7451,-2.7326,-2.7517,-2.7251,-2.6792,-2.6792,-2.6525,-2.6138,-2.6138,-2.5996,-2.613,-2.6599,-2.7,-2.6926,-2.6725,-2.6324,-2.5794,-2.5667,-2.5442,-2.5211,-2.4576,-2.4136,-2.4084,-2.3547,-2.3168,-2.323,-2.3168,-2.323,-2.3168,-2.3168,-2.3168,-2.3106,-2.3106,-2.3106,-2.3113,-2.3157,-2.3296,-2.3515,-2.3676,-2.3713,-2.3749,-2.4349,-2.4856,-2.5121,-2.5464,-2.5599,-2.5667,-2.5936,-2.6003,-2.6003,-2.5801,-2.5734,-2.5936,-2.5801,-2.5734,-2.6071,-2.6339,-2.6532,-2.6725,-2.6934,-2.7142,-2.7208,-2.72,-2.7267,-2.7259,-2.765,-2.8056,-2.8667,-2.8865,-2.9062,-2.9316,-2.9373,-2.9373,-2.9504,-2.9757,-3.0018,-3.0473,-3.0991,-3.1561,-3.2256,-3.3019,-3.3849,-3.4423,-3.4859,-3.5108,-3.5428,-3.5428,-3.5428,-3.5428,-3.5428,-3.5428,-3.5428,-3.5428,-3.5428,-3.5428,-3.5428,-3.5428,-3.5428,-3.5428,-3.5428,-3.5428,-3.5428,-3.5428,-3.5428,-3.5428,-3.5428,-2.97,-2.8765,-2.8114,-2.7318,-2.6599,-2.6406,-2.6272,-2.6071,-2.6406,-2.6532,-2.6406,-2.6465,-2.6339,-2.5928,-2.5928,-2.5667,-2.5532,-2.5397,-2.5329,-2.5262,-2.5457,-2.5667,-2.5659,-2.5599,-2.5464,-2.5262,-2.5255,-2.5069,-2.4753,-2.4356,-2.4098,-2.4096,-2.3717,-2.3611,-2.3798,-2.3798,-2.3666,-2.3479,-2.3487,-2.3362,-2.3168,-2.3106,-2.3106,-2.3128,-2.3332,-2.3493,-2.3647,-2.4071,-2.4313,-2.4386,-2.4708,-2.5122,-2.5427,-2.5801,-2.6003,-2.6003,-2.6071,-2.6138,-2.6138,-2.6003,-2.6011,-2.6071,-2.6071,-2.6011,-2.6071,-2.6205,-2.6398,-2.6592,-2.6792,-2.7,-2.7134,-2.72,-2.7326,-2.7517,-2.7775,-2.818,-2.8914,-2.9185,-2.9382,-2.9979,-3.01,-3.023,-3.0417,-3.0602,-3.0861,-3.1368,-3.1946,-3.2457,-3.3146,-3.3723,-3.4485,-3.4735,-3.5046,-3.5232,-3.5428,-3.5428,-3.5428,-3.5428,-3.5428,-3.5428,-3.5428,-3.5428,-3.5428,-3.5428,-3.5428,-3.5428,-3.5428,-3.5428,-3.5428,-3.5428,-3.5428,-3.5428,-3.5428,-3.5428,-3.5428,-2.9831,-2.8971,-2.8106,-2.7259,-2.654,-2.6213,-2.6003,-2.5869,-2.6011,-2.6071,-2.6071,-2.6071,-2.6011,-2.5801,-2.5801,-2.5734,-2.5532,-2.5532,-2.5532,-2.5532,-2.5599,-2.5464,-2.5194,-2.5059,-2.5059,-2.5059,-2.5127,-2.4876,-2.4643,-2.437,-2.424,-2.4112,-2.3893,-2.3937,-2.4046,-2.4108,-2.3984,-2.386,-2.3798,-2.3673,-2.3362,-2.33,-2.3333,-2.3359,-2.3523,-2.374,-2.4207,-2.4899,-2.5122,-2.4974,-2.51,-2.5472,-2.5771,-2.6138,-2.6339,-2.6339,-2.6473,-2.6532,-2.654,-2.6473,-2.6398,-2.6465,-2.6473,-2.6398,-2.6532,-2.6607,-2.6733,-2.6867,-2.7059,-2.7185,-2.7392,-2.7533,-2.7865,-2.8312,-2.8502,-2.8831,-2.9487,-2.9617,-3.0148,-3.0741,-3.1073,-3.1193,-3.1497,-3.1625,-3.201,-3.2457,-3.2956,-3.3471,-3.3975,-3.4485,-3.4797,-3.5046,-3.517,-3.5366,-3.5428,-3.5428,-3.5428,-3.5428,-3.5428,-3.5428,-3.5428,-3.5428,-3.5428,-3.5428,-3.5428,-3.5428,-3.5428,-3.5428,-3.5428,-3.5428,-3.5428,-3.5428,-3.5428,-3.5428,-3.5428,-3.0139,-2.943,-2.8304,-2.765,-2.7134,-2.6473,-2.6138,-2.6071,-2.6071,-2.6071,-2.6071,-2.6071,-2.6071,-2.6071,-2.5996,-2.6071,-2.6071,-2.6003,-2.6003,-2.6003,-2.6003,-2.5734,-2.5329,-2.5329,-2.5262,-2.5194,-2.5194,-2.4959,-2.4701,-2.458,-2.446,-2.429,-2.416,-2.4185,-2.4293,-2.4293,-2.417,-2.4177,-2.417,-2.3984,-2.3758,-2.3748,-2.3773,-2.3776,-2.3998,-2.4389,-2.5097,-2.5665,-2.5792,-2.5306,-2.5576,-2.5898,-2.6205,-2.6532,-2.68,-2.6934,-2.7134,-2.7334,-2.7267,-2.7067,-2.7,-2.72,-2.7059,-2.6992,-2.7267,-2.7334,-2.7334,-2.74,-2.765,-2.7841,-2.7973,-2.8254,-2.865,-2.9233,-2.9683,-2.9944,-3.0139,-3.0381,-3.0899,-3.1882,-3.2074,-3.2192,-3.2502,-3.2819,-3.3146,-3.3471,-3.3912,-3.4225,-3.461,-3.4922,-3.517,-3.5294,-3.5366,-3.5366,-3.5428,-3.5428,-3.5428,-3.5428,-3.5428,-3.5428,-3.5428,-3.5428,-3.5428,-3.5428,-3.5428,-3.5428,-3.5428,-3.5428,-3.5428,-3.5428,-3.5428,-3.5428,-3.5428,-3.5428,-3.5428,-3.1552,-3.0861,-2.9504,-2.8444,-2.7584,-2.6859,-2.6406,-2.6138,-2.6138,-2.6205,-2.6138,-2.6138,-2.6138,-2.6138,-2.6138,-2.6071,-2.6138,-2.6138,-2.6071,-2.6071,-2.6071,-2.6071,-2.5869,-2.5869,-2.5734,-2.5599,-2.5734,-2.5419,-2.4895,-2.48,-2.481,-2.4533,-2.4556,-2.461,-2.4795,-2.4857,-2.4734,-2.4548,-2.4479,-2.4371,-2.413,-2.4242,-2.4346,-2.4393,-2.4872,-2.5391,-2.5732,-2.6032,-2.6167,-2.6329,-2.6411,-2.6532,-2.6666,-2.7118,-2.7376,-2.7517,-2.7791,-2.7998,-2.8064,-2.7932,-2.7998,-2.7932,-2.7865,-2.7998,-2.7998,-2.8072,-2.8064,-2.813,-2.8378,-2.8699,-2.8971,-2.9045,-2.9495,-3.0074,-3.0723,-3.1368,-3.2019,-3.2065,-3.232,-3.2838,-3.3092,-3.3219,-3.3534,-3.3597,-3.3985,-3.4485,-3.4735,-3.4922,-3.5108,-3.5294,-3.5356,-3.5428,-3.5428,-3.5428,-3.5428,-3.5428,-3.5428,-3.5428,-3.5428,-3.5428,-3.5428,-3.5428,-3.5428,-3.5428,-3.5428,-3.5428,-3.5428,-3.5428,-3.5428,-3.5428,-3.5428,-3.5428,-3.5428,-3.5428,-3.5428,-3.2384,-3.1497,-3.0269,-2.9159,-2.8188,-2.7666,-2.7334,-2.7142,-2.7134,-2.7,-2.6859,-2.6859,-2.68,-2.6599,-2.6607,-2.6607,-2.6599,-2.6599,-2.6733,-2.6792,-2.6725,-2.6599,-2.6607,-2.654,-2.6398,-2.5906,-2.5829,-2.5464,-2.5027,-2.4932,-2.4935,-2.4657,-2.4919,-2.5173,-2.5349,-2.548,-2.541,-2.5165,-2.505,-2.4928,-2.4672,-2.4701,-2.4968,-2.5164,-2.5712,-2.6229,-2.6375,-2.6725,-2.6926,-2.7193,-2.7326,-2.7326,-2.7185,-2.7509,-2.7775,-2.799,-2.813,-2.8271,-2.8271,-2.8271,-2.8271,-2.8337,-2.8271,-2.8271,-2.8329,-2.8452,-2.865,-2.8848,-2.9233,-2.9674,-3.0213,-3.0278,-3.0584,-3.1221,-3.1754,-3.2521,-3.3292,-3.3345,-3.3345,-3.3922,-3.411,-3.4288,-3.4475,-3.4423,-3.461,-3.4984,-3.4984,-3.5232,-3.5232,-3.5356,-3.5356,-3.5428,-3.5428,-3.5428,-3.5428,-3.5428,-3.5428,-3.5428,-3.5428,-3.5428,-3.5428,-3.5428,-3.5428,-3.5428,-3.5428,-3.5428,-3.5428,-3.5428,-3.5428,-3.5428,-3.5428,-3.5428,-3.5428,-3.5428,-3.5428,-3.2912,-3.1937,-3.077,-2.9748,-2.8939,-2.8469,-2.8196,-2.8263,-2.8271,-2.799,-2.7849,-2.7783,-2.7592,-2.74,-2.74,-2.7342,-2.7334,-2.74,-2.7525,-2.7584,-2.7459,-2.74,-2.7318,-2.7195,-2.6999,-2.6357,-2.6067,-2.5639,-2.5247,-2.5209,-2.518,-2.4912,-2.5357,-2.5602,-2.5717,-2.5892,-2.5892,-2.5656,-2.57,-2.5644,-2.5478,-2.5557,-2.5855,-2.6268,-2.6624,-2.7012,-2.7126,-2.7451,-2.7783,-2.7775,-2.8122,-2.8122,-2.7981,-2.7915,-2.799,-2.8403,-2.8461,-2.8593,-2.8593,-2.8527,-2.8527,-2.8461,-2.8461,-2.8527,-2.865,-2.8971,-2.9299,-2.9813,-3.0325,-3.1019,-3.1625,-3.1699,-3.201,-3.2511,-3.2912,-3.3544,-3.4173,-3.4235,-3.4423,-3.4735,-3.4797,-3.4922,-3.5046,-3.517,-3.5294,-3.5428,-3.5428,-3.5428,-3.5428,-3.5428,-3.5428,-3.5428,-3.5428,-3.5428,-3.5428,-3.5428,-3.5428,-3.5428,-3.5428,-3.5428,-3.5428,-3.5428,-3.5428,-3.5428,-3.5428,-3.5428,-3.5428,-3.5428,-3.5428,-3.5428,-3.5428,-3.5428,-3.5428,-3.5428,-3.5469,-3.3408,-3.2619,-3.0954,-2.987,-2.9185,-2.8593,-2.8337,-2.8271,-2.8337,-2.8271,-2.8196,-2.8196,-2.8196,-2.8064,-2.8064,-2.813,-2.8064,-2.7998,-2.8064,-2.8196,-2.8064,-2.799,-2.7892,-2.7646,-2.7499,-2.7336,-2.6735,-2.5957,-2.5485,-2.5628,-2.5638,-2.5528,-2.5778,-2.6022,-2.6022,-2.6075,-2.6153,-2.6129,-2.6302,-2.6305,-2.6417,-2.6776,-2.719,-2.7554,-2.7758,-2.7857,-2.7932,-2.8064,-2.8196,-2.8188,-2.8263,-2.8403,-2.8535,-2.8601,-2.8601,-2.8733,-2.8922,-2.8979,-2.8979,-2.9045,-2.9119,-2.9119,-2.9111,-2.9299,-2.9561,-2.9887,-3.0408,-3.1102,-3.1863,-3.2629,-3.3029,-3.2975,-3.3228,-3.3607,-3.3912,-3.4288,-3.4735,-3.4922,-3.5046,-3.5232,-3.5294,-3.5294,-3.5356,-3.5428,-3.5428,-3.5428,-3.5428,-3.5428,-3.5428,-3.5428,-3.5428,-3.5428,-3.5428,-3.5428,-3.5428,-3.5428,-3.5428,-3.5428,-3.5428,-3.5428,-3.5428,-3.5428,-3.5428,-3.5428,-3.5428,-3.5428,-3.5428,-3.5428,-3.5428,-3.5428,-3.5428,-3.5428,-3.5459,-3.55,-3.5718,-3.3155,-3.2256,-3.0908,-2.9887,-2.9307,-2.8988,-2.8856,-2.8782,-2.879,-2.8733,-2.8601,-2.8535,-2.8461,-2.8329,-2.8271,-2.8403,-2.8469,-2.8337,-2.8395,-2.8469,-2.8395,-2.8139,-2.8072,-2.7824,-2.7454,-2.7111,-2.6734,-2.6446,-2.5949,-2.5972,-2.6011,-2.5958,-2.6205,-2.6388,-2.6388,-2.6571,-2.6558,-2.6655,-2.6802,-2.7023,-2.7165,-2.7734,-2.8147,-2.8271,-2.8337,-2.8271,-2.8337,-2.8469,-2.8535,-2.8601,-2.8733,-2.893,-2.8996,-2.9062,-2.9062,-2.9053,-2.9176,-2.9307,-2.9307,-2.9307,-2.9373,-2.9561,-2.9691,-3.0083,-3.0593,-3.1102,-3.1754,-3.2584,-3.3146,-3.3713,-3.3859,-3.3922,-3.411,-3.436,-3.4548,-3.4797,-3.5046,-3.5294,-3.5356,-3.5428,-3.5356,-3.5356,-3.5356,-3.5428,-3.5428,-3.5428,-3.5428,-3.5428,-3.5428,-3.5428,-3.5428,-3.5428,-3.5428,-3.5428,-3.5428,-3.5428,-3.5428,-3.5428,-3.5428,-3.5428,-3.5428,-3.5428,-3.5428,-3.5428,-3.5428,-3.5428,-3.5428,-3.5428,-3.5428,-3.5428,-3.5428,-3.5438,-3.55,-3.5614,-3.5863,-3.2711,-3.1818,-3.0667,-2.9831,-2.9373,-2.9307,-2.9307,-2.9307,-2.9242,-2.9119,-2.893,-2.8865,-2.8733,-2.8593,-2.8527,-2.8659,-2.8873,-2.8601,-2.8725,-2.8765,-2.8615,-2.8235,-2.797,-2.7671,-2.7435,-2.7115,-2.6827,-2.6645,-2.6306,-2.6302,-2.623,-2.6266,-2.651,-2.67,-2.6761,-2.6993,-2.7127,-2.7244,-2.7407,-2.7651,-2.8002,-2.8286,-2.8527,-2.8527,-2.8461,-2.8527,-2.8593,-2.8799,-2.8865,-2.8996,-2.9119,-2.9242,-2.9307,-2.9307,-2.9307,-2.9307,-2.9307,-2.9307,-2.9307,-2.9307,-2.9438,-2.9822,-3.0213,-3.0797,-3.1561,-3.2256,-3.3146,-3.3922,-3.436,-3.4548,-3.461,-3.461,-3.4735,-3.4859,-3.4984,-3.5108,-3.5232,-3.5366,-3.5366,-3.5428,-3.5428,-3.5428,-3.5428,-3.5428,-3.5428,-3.5428,-3.5428,-3.5428,-3.5428,-3.5428,-3.5428,-3.5428,-3.5428,-3.5428,-3.5428,-3.5428,-3.5428,-3.5428,-3.5428,-3.5428,-3.5428,-3.5428,-3.5428,-3.5428,-3.5428,-3.5428,-3.5428,-3.5428,-3.5428,-3.5428,-3.5428,-3.5521,-3.5697,-3.5904,-3.6142,-3.2565,-3.1809,-3.0464,-2.9626,-2.9307,-2.9307,-2.9307,-2.9307,-2.9307,-2.9307,-2.9176,-2.9242,-2.9176,-2.9111,-2.9111,-2.9185,-2.9185,-2.9119,-2.9085,-2.9017,-2.8813,-2.8634,-2.8494,-2.7889,-2.7569,-2.7263,-2.7104,-2.6716,-2.648,-2.6491,-2.6571,-2.6631,-2.6822,-2.7021,-2.7106,-2.7286,-2.7561,-2.7679,-2.8225,-2.8682,-2.9014,-2.9077,-2.9111,-2.9111,-2.9111,-2.9111,-2.9045,-2.9185,-2.9176,-2.9176,-2.9242,-2.9307,-2.9307,-2.9307,-2.9307,-2.9307,-2.9307,-2.9307,-2.9316,-2.9424,-2.977,-3.0301,-3.0757,-3.1322,-3.2507,-3.3555,-3.4375,-3.4673,-3.5097,-3.5304,-3.5355,-3.5304,-3.5325,-3.5397,-3.55,-3.5428,-3.549,-3.5604,-3.5583,-3.5428,-3.5428,-3.5428,-3.5428,-3.5428,-3.5428,-3.5428,-3.5428,-3.5428,-3.5428,-3.5428,-3.5428,-3.5428,-3.5428,-3.5428,-3.5428,-3.5428,-3.5449,-3.5438,-3.5438,-3.5438,-3.5428,-3.5428,-3.5428,-3.5428,-3.5428,-3.549,-3.5562,-3.5552,-3.5469,-3.5459,-3.5511,-3.5738,-3.5997,-3.6215,-3.6504,-3.232,-3.1249,-3.0009,-2.9438,-2.9307,-2.9307,-2.9307,-2.9307,-2.9307,-2.9307,-2.9307,-2.9307,-2.9307,-2.9307,-2.9307,-2.9307,-2.9307,-2.929,-2.9179,-2.9016,-2.8802,-2.8537,-2.8109,-2.7775,-2.7552,-2.7304,-2.7176,-2.6994,-2.6761,-2.677,-2.6891,-2.6891,-2.7038,-2.7201,-2.733,-2.7518,-2.7878,-2.8289,-2.8785,-2.9136,-2.9265,-2.9307,-2.9307,-2.9307,-2.9307,-2.9307,-2.9307,-2.9307,-2.9307,-2.9307,-2.9307,-2.9307,-2.9307,-2.9307,-2.9307,-2.9333,-2.9539,-2.953,-2.9376,-2.9719,-3.039,-3.1276,-3.2031,-3.3141,-3.4324,-3.5201,-3.572,-3.5961,-3.6088,-3.6183,-3.6163,-3.6204,-3.6194,-3.6183,-3.6059,-3.5935,-3.5863,-3.5801,-3.579,-3.5604,-3.5459,-3.5562,-3.5625,-3.5604,-3.5552,-3.5428,-3.5428,-3.5428,-3.5428,-3.5428,-3.5428,-3.5428,-3.5428,-3.5428,-3.5428,-3.5428,-3.55,-3.55,-3.55,-3.548,-3.5438,-3.5428,-3.5562,-3.5521,-3.5459,-3.5552,-3.5707,-3.5645,-3.5542,-3.5573,-3.5635,-3.5966,-3.6318,-3.6825,-3.7146,-3.2266,-3.1064,-2.9896,-2.943,-2.9438,-2.9307,-2.9307,-2.9307,-2.9307,-2.9307,-2.9307,-2.9307,-2.9307,-2.9307,-2.9299,-2.9256,-2.9153,-2.9179,-2.8948,-2.8725,-2.8477,-2.8134,-2.7783,-2.7535,-2.7321,-2.7081,-2.7098,-2.7081,-2.7107,-2.7158,-2.7201,-2.7098,-2.7218,-2.7347,-2.7578,-2.7886,-2.828,-2.8845,-2.9119,-2.9273,-2.9307,-2.9307,-2.9307,-2.9307,-2.9307,-2.9307,-2.9307,-2.9307,-2.9307,-2.9307,-2.9307,-2.9307,-2.9307,-2.9307,-2.9402,-2.9496,-2.9736,-2.9879,-3.0036,-3.0415,-3.1251,-3.2362,-3.3659,-3.4841,-3.5929,-3.6676,-3.6794,-3.6627,-3.6701,-3.6732,-3.6794,-3.6753,-3.668,-3.6649,-3.668,-3.6535,-3.639,-3.6308,-3.6256,-3.6163,-3.6049,-3.5945,-3.5966,-3.5873,-3.5728,-3.549,-3.5428,-3.5449,-3.548,-3.5521,-3.549,-3.5521,-3.5676,-3.5687,-3.5697,-3.5666,-3.5666,-3.5687,-3.5687,-3.5759,-3.5863,-3.5904,-3.6008,-3.5873,-3.5687,-3.5914,-3.6256,-3.5925,-3.5656,-3.5945,-3.6204,-3.6349,-3.6691,-3.7229,-3.7632,-3.2775,-3.168,-3.039,-2.9813,-2.9748,-2.9438,-2.9307,-2.9307,-2.9307,-2.9307,-2.9307,-2.9307,-2.9307,-2.929,-2.9239,-2.9093,-2.8837,-2.8819,-2.8571,-2.822,-2.7878,-2.7723,-2.7484,-2.7295,-2.7141,-2.709,-2.7081,-2.7081,-2.7167,-2.739,-2.7304,-2.7219,-2.7467,-2.7561,-2.786,-2.834,-2.8734,-2.9145,-2.929,-2.9299,-2.9307,-2.9307,-2.9307,-2.9307,-2.9307,-2.9307,-2.9307,-2.9307,-2.9307,-2.9307,-2.9307,-2.9307,-2.9307,-2.9376,-2.9521,-2.9727,-3.0042,-3.0323,-3.0798,-3.1331,-3.2065,-3.3283,-3.4756,-3.6213,-3.6859,-3.6833,-3.6846,-3.697,-3.7074,-3.6991,-3.6929,-3.6836,-3.7032,-3.7084,-3.7146,-3.6991,-3.6867,-3.6784,-3.6732,-3.6711,-3.6597,-3.6411,-3.637,-3.6297,-3.6152,-3.5925,-3.5832,-3.5852,-3.5759,-3.5769,-3.5656,-3.5697,-3.5956,-3.6059,-3.6132,-3.6152,-3.6235,-3.6287,-3.6297,-3.6422,-3.6556,-3.6566,-3.6401,-3.6432,-3.6339,-3.6566,-3.6711,-3.6473,-3.639,-3.6608,-3.6794,-3.6898,-3.7146,-3.7643,-3.7912,-3.366,-3.3019,-3.2119,-3.123,-3.0417,-3.0091,-2.9822,-2.9561,-2.9373,-2.9307,-2.9307,-2.9307,-2.9307,-2.9248,-2.9051,-2.8922,-2.8751,-2.8503,-2.8194,-2.792,-2.7672,-2.7484,-2.7313,-2.7184,-2.7081,-2.7081,-2.709,-2.7227,-2.7432,-2.7612,-2.7732,-2.7766,-2.792,-2.8126,-2.8443,-2.8759,-2.9102,-2.9239,-2.9307,-2.9307,-2.9307,-2.9307,-2.9307,-2.9307,-2.9307,-2.9307,-2.9307,-2.9307,-2.9307,-2.9307,-2.9307,-2.9325,-2.9393,-2.953,-2.9744,-3.0051,-3.0487,-3.1129,-3.1738,-3.2363,-3.3452,-3.5402,-3.6718,-3.748,-3.755,-3.7622,-3.7643,-3.7664,-3.7601,-3.7529,-3.7632,-3.7664,-3.7715,-3.7674,-3.757,-3.7425,-3.7322,-3.725,-3.7136,-3.7084,-3.6898,-3.6701,-3.6711,-3.6742,-3.6566,-3.639,-3.6318,-3.6235,-3.6142,-3.6111,-3.6049,-3.609,-3.6349,-3.6494,-3.6556,-3.6691,-3.6836,-3.6877,-3.6908,-3.697,-3.7032,-3.6794,-3.6691,-3.6794,-3.6918,-3.7011,-3.7063,-3.7043,-3.7043,-3.7043,-3.7208,-3.7405,-3.7715,-3.8036,-3.8119,-3.436,-3.3985,-3.3534,-3.2511,-3.1249,-3.0676,-3.0222,-2.9748,-2.9438,-2.9307,-2.9299,-2.9222,-2.9153,-2.9051,-2.8777,-2.8494,-2.834,-2.8109,-2.7792,-2.7561,-2.7398,-2.7287,-2.7158,-2.7081,-2.7081,-2.7098,-2.7218,-2.7398,-2.7569,-2.7835,-2.81,-2.8314,-2.8477,-2.8665,-2.8734,-2.9111,-2.9307,-2.9307,-2.9307,-2.9307,-2.9307,-2.9307,-2.9307,-2.9307,-2.9307,-2.9307,-2.9307,-2.9307,-2.9307,-2.9307,-2.9325,-2.9384,-2.9539,-2.9744,-3.0059,-3.0589,-3.1199,-3.1996,-3.2782,-3.3728,-3.4978,-3.6706,-3.7544,-3.8042,-3.8191,-3.8191,-3.8046,-3.8088,-3.8129,-3.8191,-3.8191,-3.8078,-3.8036,-3.7953,-3.7964,-3.786,-3.7777,-3.7695,-3.755,-3.7425,-3.7312,-3.7322,-3.7332,-3.7363,-3.7011,-3.6794,-3.6577,-3.6546,-3.6546,-3.6535,-3.6587,-3.667,-3.6846,-3.6939,-3.7011,-3.7239,-3.7446,-3.7498,-3.7498,-3.7415,-3.7374,-3.7167,-3.7177,-3.7405,-3.7488,-3.7436,-3.7477,-3.756,-3.7467,-3.7343,-3.755,-3.7777,-3.7891,-3.8129,-3.815,-3.4673,-3.4423,-3.436,-3.3408,-3.1946,-3.1111,-3.0464,-2.9878,-2.9495,-2.929,-2.9213,-2.8965,-2.8802,-2.8708,-2.8374,-2.8083,-2.7835,-2.7681,-2.7458,-2.7227,-2.7193,-2.7107,-2.709,-2.7081,-2.7124,-2.7176,-2.7355,-2.7544,-2.7732,-2.8263,-2.8614,-2.8802,-2.8956,-2.9033,-2.8854,-2.9136,-2.9299,-2.9307,-2.9307,-2.9307,-2.9307,-2.9307,-2.9307,-2.9307,-2.9307,-2.9307,-2.9307,-2.9307,-2.9333,-2.9419,-2.9485,-2.963,-3.0006,-3.0176,-3.0707,-3.1519,-3.1968,-3.2905,-3.4152,-3.5305,-3.6422,-3.7404,-3.8048,-3.8181,-3.8191,-3.8191,-3.8191,-3.8191,-3.8191,-3.8191,-3.8191,-3.8191,-3.8191,-3.8191,-3.8191,-3.816,-3.8057,-3.8015,-3.785,-3.7757,-3.7964,-3.8119,-3.8109,-3.7995,-3.756,-3.7229,-3.6908,-3.6846,-3.697,-3.7063,-3.7156,-3.7229,-3.7374,-3.7415,-3.755,-3.786,-3.8057,-3.8098,-3.8015,-3.785,-3.7839,-3.7798,-3.7881,-3.8026,-3.7953,-3.7819,-3.7964,-3.8129,-3.7922,-3.7736,-3.7912,-3.8098,-3.8171,-3.8191,-3.8191,-3.518,-3.5046,-3.5046,-3.436,-3.3155,-3.2001,-3.1111,-3.0482,-2.9683,-2.9179,-2.8974,-2.8811,-2.8605,-2.8349,-2.8006,-2.7715,-2.7586,-2.7295,-2.7116,-2.7107,-2.7081,-2.7081,-2.709,-2.7124,-2.7201,-2.7398,-2.7612,-2.7972,-2.8417,-2.8725,-2.8931,-2.9119,-2.9205,-2.9239,-2.9188,-2.9282,-2.9307,-2.9307,-2.9307,-2.9307,-2.9307,-2.9307,-2.9307,-2.9307,-2.9307,-2.9307,-2.9316,-2.9316,-2.951,-2.9757,-2.9924,-3.0273,-3.083,-3.1123,-3.2001,-3.277,-3.3349,-3.4645,-3.5811,-3.6789,-3.728,-3.7837,-3.8114,-3.8191,-3.8191,-3.8191,-3.8191,-3.8191,-3.8191,-3.8191,-3.8191,-3.8191,-3.8191,-3.8191,-3.8191,-3.8191,-3.814,-3.814,-3.8078,-3.8057,-3.8181,-3.8191,-3.8191,-3.8191,-3.786,-3.7767,-3.7519,-3.755,-3.7664,-3.7746,-3.7839,-3.785,-3.7912,-3.7943,-3.8036,-3.8129,-3.8171,-3.815,-3.814,-3.8098,-3.814,-3.8191,-3.8171,-3.8109,-3.815,-3.8191,-3.8191,-3.8191,-3.8191,-3.816,-3.8191,-3.8191,-3.8191,-3.8191,-3.8191,-3.5428,-3.5428,-3.5428,-3.4859,-3.3985,-3.2765,-3.1625,-3.0538,-2.9691,-2.9111,-2.8811,-2.8648,-2.8357,-2.7963,-2.7621,-2.7415,-2.739,-2.7201,-2.7081,-2.7081,-2.7081,-2.7081,-2.7098,-2.721,-2.739,-2.7629,-2.7955,-2.8331,-2.87,-2.8888,-2.9076,-2.923,-2.9307,-2.929,-2.929,-2.9299,-2.9307,-2.9307,-2.9307,-2.9307,-2.9307,-2.9307,-2.9307,-2.9307,-2.9307,-2.9307,-2.9342,-2.9519,-2.9889,-3.0255,-3.0781,-3.1309,-3.2011,-3.2603,-3.3394,-3.4038,-3.5084,-3.6103,-3.7001,-3.7549,-3.7837,-3.8114,-3.8181,-3.8191,-3.8191,-3.8191,-3.8191,-3.8191,-3.8191,-3.8191,-3.8191,-3.8191,-3.8191,-3.8191,-3.8191,-3.8191,-3.8191,-3.8191,-3.8191,-3.8191,-3.8191,-3.8191,-3.8191,-3.8191,-3.8088,-3.8119,-3.814,-3.8191,-3.8191,-3.8191,-3.8191,-3.8171,-3.816,-3.8119,-3.8109,-3.815,-3.8181,-3.8191,-3.8191,-3.8191,-3.8191,-3.8191,-3.8191,-3.8191,-3.8191,-3.8191,-3.8191,-3.8191,-3.8191,-3.8191,-3.8191,-3.8191,-3.8191,-3.8191,-3.8191,-3.5428,-3.5428,-3.5356,-3.4922,-3.4235,-3.3082,-3.1607,-2.987,-2.9404,-2.9068,-2.8725,-2.8323,-2.7963,-2.7586,-2.7235,-2.7124,-2.7133,-2.709,-2.7081,-2.7081,-2.7081,-2.7098,-2.7235,-2.7415,-2.7646,-2.7929,-2.8254,-2.8605,-2.8837,-2.9068,-2.9248,-2.9299,-2.9364,-2.9438,-2.9438,-2.9569,-2.9504,-2.9373,-2.9373,-2.9373,-2.9307,-2.9307,-2.9307,-2.9307,-2.9307,-2.9424,-2.9593,-3.0038,-3.0588,-3.1207,-3.1814,-3.2722,-3.3403,-3.3881,-3.4543,-3.5423,-3.6509,-3.7146,-3.7559,-3.7971,-3.8104,-3.8181,-3.8181,-3.8191,-3.8191,-3.8191,-3.8191,-3.8191,-3.8191,-3.8191,-3.8191,-3.8191,-3.8191,-3.8191,-3.8191,-3.8191,-3.8191,-3.8191,-3.8191,-3.8191,-3.8191,-3.8191,-3.8191,-3.8191,-3.8191,-3.8191,-3.8191,-3.8191,-3.8191,-3.8191,-3.8191,-3.8181,-3.8181,-3.8181,-3.8191,-3.8191,-3.8191,-3.8191,-3.8191,-3.8191,-3.8191,-3.8191,-3.8191,-3.8191,-3.8191,-3.8191,-3.8191,-3.8191,-3.8191,-3.8191,-3.8191,-3.8191,-3.8191,-3.8191,-3.8191,-3.5232,-3.5046,-3.4797,-3.4298,-3.3544,-3.2083,-3.0852,-2.9787,-2.9245,-2.8717,-2.834,-2.7946,-2.7612,-2.7227,-2.7124,-2.709,-2.7081,-2.7081,-2.7081,-2.709,-2.7124,-2.7253,-2.7424,-2.7621,-2.7938,-2.8323,-2.8674,-2.8931,-2.9111,-2.9307,-2.9307,-2.9307,-2.9626,-2.9765,-3.0035,-3.0296,-2.9961,-2.9626,-2.9691,-2.9495,-2.9373,-2.9307,-2.9325,-2.935,-2.9424,-2.9659,-3.0249,-3.0712,-3.1461,-3.2493,-3.3246,-3.4084,-3.4783,-3.5452,-3.6111,-3.6894,-3.7559,-3.7981,-3.8048,-3.8125,-3.8191,-3.8191,-3.8191,-3.8191,-3.8191,-3.8191,-3.8191,-3.8191,-3.8191,-3.8191,-3.8191,-3.8191,-3.8191,-3.8191,-3.8191,-3.8191,-3.8191,-3.8191,-3.8191,-3.8191,-3.8191,-3.8191,-3.8191,-3.8191,-3.8191,-3.8191,-3.8191,-3.8191,-3.8191,-3.8191,-3.8191,-3.8191,-3.8191,-3.8191,-3.8191,-3.8191,-3.8191,-3.8191,-3.8191,-3.8191,-3.8191,-3.8191,-3.8191,-3.8191,-3.8191,-3.8191,-3.8191,-3.8191,-3.8191,-3.8191,-3.8191,-3.8191,-3.8191,-3.8191,-3.8191,-3.4922,-3.4485,-3.4173,-3.3481,-3.2466,-3.1184,-3.0272,-2.9587,-2.9056,-2.8494,-2.7963,-2.7715,-2.7407,-2.7133,-2.709,-2.7081,-2.7081,-2.7081,-2.7081,-2.7098,-2.7271,-2.739,-2.7586,-2.7929,-2.8331,-2.87,-2.8939,-2.9119,-2.9339,-2.9504,-2.9504,-2.9561,-2.9944,-3.0408,-3.0806,-3.112,-3.1055,-3.0593,-3.0139,-2.9822,-2.9569,-2.939,-2.945,-2.9702,-2.9777,-3.0474,-3.1256,-3.1839,-3.2869,-3.3989,-3.4758,-3.5481,-3.6228,-3.6856,-3.7203,-3.777,-3.7971,-3.8114,-3.8191,-3.8191,-3.8191,-3.8191,-3.8191,-3.8191,-3.8191,-3.8191,-3.8191,-3.8191,-3.8191,-3.8191,-3.8191,-3.8191,-3.8191,-3.8191,-3.8191,-3.8191,-3.8191,-3.8191,-3.8191,-3.8191,-3.8191,-3.8191,-3.8191,-3.8191,-3.8191,-3.8191,-3.8191,-3.8191,-3.8191,-3.8191,-3.8191,-3.8191,-3.8191,-3.8191,-3.8191,-3.8191,-3.8191,-3.8191,-3.8191,-3.8191,-3.8191,-3.8191,-3.8191,-3.8191,-3.8191,-3.8191,-3.8191,-3.8191,-3.8191,-3.8191,-3.8191,-3.8191,-3.8191,-3.8191,-3.8191,-3.4485,-3.3796,-3.3408,-3.2457,-3.1313,-3.0631,-2.9948,-2.9311,-2.8959,-2.8406,-2.776,-2.7622,-2.7478,-2.7349,-2.7315,-2.7315,-2.7315,-2.7315,-2.7384,-2.7245,-2.7643,-2.7815,-2.8131,-2.8446,-2.8729,-2.8961,-2.9206,-2.9492,-2.9609,-2.9831,-3.0018,-3.0009,-3.0732,-3.1258,-3.1763,-3.2266,-3.2266,-3.1946,-3.1248,-3.0719,-2.9996,-2.9695,-2.9711,-3.0385,-3.0924,-3.1625,-3.2731,-3.3716,-3.4758,-3.545,-3.6164,-3.6816,-3.7404,-3.777,-3.8048,-3.8114,-3.8181,-3.8181,-3.8191,-3.8191,-3.8191,-3.8191,-3.8191,-3.8191,-3.8191,-3.8191,-3.8191,-3.8191,-3.8191,-3.8191,-3.8191,-3.8191,-3.8191,-3.8191,-3.8191,-3.8191,-3.8191,-3.8191,-3.8191,-3.8191,-3.8191,-3.8191,-3.8191,-3.8191,-3.8191,-3.8191,-3.8191,-3.8191,-3.8191,-3.8191,-3.8191,-3.8191,-3.8191,-3.8191,-3.8191,-3.8191,-3.8191,-3.8191,-3.8191,-3.8191,-3.8191,-3.8191,-3.8191,-3.8191,-3.8191,-3.8191,-3.8191,-3.8191,-3.8191,-3.8191,-3.8191,-3.8191,-3.8191,-3.8191,-3.8191,-3.3985,-3.3048,-3.2202,-3.1387,-3.064,-3.0362,-2.9895,-2.926,-2.9075,-2.8677,-2.8018,-2.7739,-2.7704,-2.7866,-2.79,-2.784,-2.7848,-2.7866,-2.7964,-2.8183,-2.8342,-2.8658,-2.8863,-2.9168,-2.931,-2.9258,-2.9526,-3.0009,-3.0408,-3.0676,-3.0926,-3.1368,-3.1882,-3.2266,-3.2785,-3.3355,-3.3418,-3.3306,-3.286,-3.1773,-3.0763,-3.0614,-3.0751,-3.1194,-3.1718,-3.2892,-3.3888,-3.4739,-3.5701,-3.6542,-3.7055,-3.7549,-3.8048,-3.8114,-3.8181,-3.8191,-3.8191,-3.8191,-3.8191,-3.8191,-3.8191,-3.8191,-3.8191,-3.8191,-3.8191,-3.8191,-3.8191,-3.8191,-3.8191,-3.8191,-3.8191,-3.8191,-3.8191,-3.8191,-3.8191,-3.8191,-3.8191,-3.8191,-3.8191,-3.8191,-3.8191,-3.8191,-3.8191,-3.8191,-3.8191,-3.8191,-3.8191,-3.8191,-3.8191,-3.8191,-3.8191,-3.8191,-3.8191,-3.8191,-3.8191,-3.8191,-3.8191,-3.8191,-3.8191,-3.8191,-3.8191,-3.8191,-3.8191,-3.8191,-3.8191,-3.8191,-3.8191,-3.8191,-3.8191,-3.8191,-3.8191,-3.8191,-3.8191,-3.8191,-3.8191,-3.3597,-3.2584,-3.158,-3.1064,-3.0807,-3.0574,-3.0176,-2.9848,-2.9571,-2.9349,-2.9055,-2.864,-2.8471,-2.8659,-2.8778,-2.8728,-2.8668,-2.8609,-2.8784,-2.8985,-2.9337,-2.9609,-2.9851,-3.0127,-3.0314,-3.0316,-3.0584,-3.1046,-3.1377,-3.1754,-3.2065,-3.2384,-3.2819,-3.3335,-3.3869,-3.4183,-3.4481,-3.4609,-3.4369,-3.3508,-3.2106,-3.2111,-3.2244,-3.259,-3.3423,-3.4432,-3.5335,-3.6095,-3.677,-3.7354,-3.775,-3.7904,-3.8114,-3.8181,-3.8181,-3.8191,-3.8191,-3.8191,-3.8191,-3.8191,-3.8191,-3.8191,-3.8191,-3.8191,-3.8191,-3.8191,-3.8191,-3.8191,-3.8191,-3.8191,-3.8191,-3.8191,-3.8191,-3.8191,-3.8191,-3.8191,-3.8191,-3.8191,-3.8191,-3.8191,-3.8191,-3.8191,-3.8191,-3.8191,-3.8191,-3.8191,-3.8191,-3.8191,-3.8191,-3.8191,-3.8191,-3.8191,-3.8191,-3.8191,-3.8191,-3.8191,-3.8191,-3.8191,-3.8191,-3.8191,-3.8191,-3.8191,-3.8191,-3.8191,-3.8191,-3.8191,-3.8191,-3.8191,-3.8191,-3.8191,-3.8191,-3.8191,-3.8191,-3.8191,-3.8191,-3.3345,-3.232,-3.1497,-3.1277,-3.1432,-3.1045,-3.0816,-3.0663,-3.033,-3.0313,-3.0391,-2.9971,-2.9776,-2.9717,-2.9825,-2.9776,-2.9705,-2.9749,-2.9804,-3.0125,-3.0445,-3.0819,-3.1126,-3.1367,-3.1487,-3.1598,-3.1809,-3.2001,-3.2266,-3.2638,-3.2956,-3.3199,-3.365,-3.4235,-3.4558,-3.4909,-3.5197,-3.5387,-3.5342,-3.5271,-3.4684,-3.4041,-3.3965,-3.4461,-3.5238,-3.6115,-3.6958,-3.7482,-3.7827,-3.7971,-3.8114,-3.8114,-3.8181,-3.8191,-3.8191,-3.8191,-3.8191,-3.8191,-3.8191,-3.8191,-3.8191,-3.8191,-3.8191,-3.8191,-3.8191,-3.8191,-3.8191,-3.8191,-3.8191,-3.8191,-3.8191,-3.8191,-3.8191,-3.8191,-3.8191,-3.8191,-3.8191,-3.8191,-3.8191,-3.8191,-3.8191,-3.8191,-3.8191,-3.8191,-3.8191,-3.8191,-3.8191,-3.8191,-3.8191,-3.8191,-3.8191,-3.8191,-3.8191,-3.8191,-3.8191,-3.8191,-3.8191,-3.8191,-3.8191,-3.8191,-3.8191,-3.8191,-3.8191,-3.8191,-3.8191,-3.8191,-3.8191,-3.8191,-3.8191,-3.8191,-3.8191,-3.8191,-3.8191,-3.8191,-3.8191,-3.3282,-3.2374,-3.2438,-3.233,-3.206,-3.1888,-3.1658,-3.1362,-3.1132,-3.1093,-3.1228,-3.1556,-3.1363,-3.0529,-3.0587,-3.0597,-3.0645,-3.0799,-3.1293,-3.1677,-3.1863,-3.2253,-3.2463,-3.2543,-3.261,-3.2692,-3.2819,-3.3019,-3.3272,-3.3597,-3.3975,-3.4413,-3.4475,-3.489,-3.52,-3.5572,-3.5829,-3.6105,-3.6364,-3.6375,-3.6193,-3.5689,-3.5177,-3.5593,-3.6231,-3.6871,-3.7482,-3.7904,-3.8037,-3.8181,-3.8191,-3.8191,-3.8191,-3.8191,-3.8191,-3.8191,-3.8191,-3.8191,-3.8191,-3.8191,-3.8191,-3.8191,-3.8191,-3.8191,-3.8191,-3.8191,-3.8191,-3.8191,-3.8191,-3.8191,-3.8191,-3.8191,-3.8191,-3.8191,-3.8191,-3.8191,-3.8191,-3.8191,-3.8191,-3.8191,-3.8191,-3.8191,-3.8191,-3.8191,-3.8191,-3.8191,-3.8191,-3.8191,-3.8191,-3.8191,-3.8191,-3.8191,-3.8191,-3.8191,-3.8191,-3.8191,-3.8191,-3.8191,-3.8191,-3.8191,-3.8191,-3.8191,-3.8191,-3.8191,-3.8191,-3.8191,-3.8191,-3.8191,-3.8191,-3.8191,-3.8191,-3.8191,-3.8191,-3.8191,-3.8191]},{"header":{"parameterUnit":"m.s-1","parameterCategory":1,"la1":31.0,"la2":29.5877,"lo1":-88.7671,"lo2":-86.6584,"dy":0.0162,"dx":0.0185,"nx":115,"ny":88,"refTime":"2024-04-04T06:00:00:Z","depth":0,"parameterNumber":3,"parameterNumberName":"V-component_of_WINDS"},"data":[0.0,0.0,0.0,0.0,0.0,0.0,0.0,0.0,0.0,0.0,0.0,0.0,0.0,0.0,0.0,0.0,0.0,0.0,0.0,0.0,0.0,0.0,0.0,0.0,0.0,0.0,0.0,0.0,0.0,0.0,0.0,0.0,0.0,0.0,0.0,0.0,0.0,0.0,0.0,0.0,0.0,0.0,0.0,0.0,0.0,0.0,0.0,0.0,0.0,0.0,0.0,0.0,0.0,0.0,0.0,0.0,0.0,0.0,0.0,0.0,0.0,0.0,0.0,0.0,0.0,0.0,0.0,0.0,0.0,0.0,0.0,0.0,0.0,0.0,0.0,0.0,0.0,0.0,0.0,0.0,0.0,0.0,0.0,0.0,0.0,0.0,0.0,0.0,0.0,0.0,0.0,0.0,0.0,0.0,0.0,0.0,0.0,0.0,0.0,0.0,0.0,0.0,0.0,0.0,0.0,0.0,0.0,0.0,0.0,0.0,0.0,0.0,0.0,0.0,0.0,0.0,0.0,0.0,0.0,0.0,0.0,0.0,0.0,0.0,0.0,0.0,0.0,0.0,0.0,0.0,0.0,0.0,0.0,0.0,0.0,0.0,0.0,0.0,0.0,0.0,0.0,0.0,0.0,0.0,0.0,0.0,0.0,0.0,0.0,0.0,0.0,0.0,0.0,0.0,0.0,0.0,0.0,0.0,0.0,0.0,0.0,0.0,0.0,0.0,0.0,0.0,0.0,0.0,0.0,0.0,0.0,0.0,0.0,0.0,0.0,0.0,0.0,0.0,0.0,0.0,0.0,0.0,0.0,0.0,0.0,0.0,0.0,0.0,0.0,0.0,0.0,0.0,0.0,0.0,0.0,0.0,0.0,0.0,0.0,0.0,0.0,0.0,0.0,0.0,0.0,0.0,0.0,0.0,0.0,0.0,0.0,0.0,0.0,0.0,0.0,0.0,0.0,0.0,0.0,0.0,0.0,0.0,0.0,0.0,0.0,0.0,0.0,0.0,0.0,0.0,0.0,0.0,0.0,0.0,0.0,0.0,0.0,0.0,0.0,0.0,0.0,0.0,0.0,0.0,0.0,0.0,0.0,0.0,0.0,0.0,0.0,0.0,0.0,0.0,0.0,0.0,0.0,0.0,0.0,0.0,0.0,0.0,0.0,0.0,0.0,0.0,0.0,0.0,0.0,0.0,0.0,0.0,0.0,0.0,0.0,0.0,0.0,0.0,0.0,0.0,0.0,0.0,0.0,0.0,0.0,0.0,0.0,0.0,0.0,0.0,0.0,0.0,0.0,0.0,0.0,0.0,0.0,0.0,0.0,0.0,0.0,0.0,0.0,0.0,0.0,0.0,0.0,0.0,0.0,0.0,0.0,0.0,0.0,0.0,0.0,0.0,0.0,0.0,0.0,0.0,0.0,0.0,0.0,0.0,0.0,0.0,0.0,0.0,0.0,0.0,0.0,0.0,0.0,0.0,0.0,0.0,0.0,0.0,0.0,0.0,0.0,0.0,0.0,0.0,0.0,0.0,0.0,0.0,0.0,0.0,0.0,0.0,0.0,0.0,0.0,0.0,0.0,0.0,0.0,0.0,0.0,0.0,0.0,0.0,0.0,0.0,0.0,0.0,0.0,0.0,0.0,0.0,0.0,0.0,0.0,0.0,0.0,0.0,0.0,0.0,0.0,0.0,0.0,0.0,0.0,0.0,0.0,0.0,0.0,0.0,0.0,0.0,0.0,0.0,0.0,0.0,0.0,0.0,0.0,0.0,0.0,0.0,0.0,0.0,0.0,0.0,0.0,0.0,0.0,0.0,0.0,0.0,0.0,0.0,0.0,0.0,0.0,0.0,0.0,0.0,0.0,0.0,0.0,0.0,0.0,0.0,0.0,0.0,0.0,0.0,0.0,0.0,0.0,0.0,0.0,0.0,0.0,0.0,0.0,0.0,0.0,0.0,0.0,0.0,0.0,0.0,0.0,0.0,0.0,0.0,0.0,0.0,0.0,0.0,0.0,0.0,0.0,0.0,0.0,0.0,0.0,0.0,0.0,0.0,0.0,0.0,0.0,0.0,0.0,0.0,0.0,0.0,0.0,0.0,0.0,0.0,0.0,0.0,0.0,0.0,0.0,0.0,0.0,0.0,0.0,0.0,0.0,0.0,0.0,0.0,0.0,0.0,0.0,0.0,0.0,0.0,0.0,0.0,0.0,0.0,0.0,0.0,0.0,0.0,0.0,0.0,0.0,0.0,0.0,0.0,0.0,0.0,0.0,0.0,0.0,0.0,0.0,0.0,0.0,0.0,0.0,0.0,0.0,0.0,0.0,0.0,0.0,0.0,0.0,0.0,0.0,0.0,0.0,0.0,0.0,0.0,0.0,0.0,0.0,0.0,0.0,0.0,0.0,0.0,0.0,0.0,0.0,0.0,0.0,0.0,0.0,0.0,0.0,0.0,0.0,0.0,0.0,0.0,0.0,0.0,0.0,0.0,0.0,0.0,0.0,0.0,0.0,0.0,0.0,0.0,0.0,0.0,0.0,0.0,0.0,0.0,0.0,0.0,0.0,0.0,0.0,0.0,0.0,0.0,0.0,0.0,0.0,0.0,0.0,0.0,0.0,0.0,0.0,0.0,0.0,0.0,0.0,0.0,0.0,0.0,0.0,0.0,0.0,0.0,0.0,0.0,0.0,0.0,0.0,0.0,0.0,0.0,0.0,0.0,0.0,0.0,0.0,0.0,0.0,0.0,0.0,0.0,0.0,0.0,0.0,0.0,0.0,0.0,0.0,0.0,0.0,0.0,0.0,0.0,0.0,0.0,0.0,0.0,0.0,0.0,0.0,0.0,0.0,0.0,0.0,0.0,0.0,0.0,0.0,0.0,0.0,0.0,0.0,0.0,0.0,0.0,0.0,0.0,0.0,0.0,0.0,0.0,0.0,0.0,0.0,0.0,0.0,0.0,0.0,0.0,0.0,0.0,0.0,0.0,0.0,0.0,0.0,0.0,0.0,0.0,0.0,0.0,0.0,0.0,0.0,0.0,0.0,0.0,0.0,0.0,0.0,0.0,0.0,0.0,0.0,0.0,0.0,0.0,0.0,0.0,0.0,0.0,0.0,0.0,0.0,0.0,0.0,0.0,0.0,0.0,0.0,0.0,0.0,0.0,0.0,0.0,0.0,0.0,0.0,0.0,0.0,0.0,0.0,0.0,0.0,0.0,0.0,0.0,0.0,0.0,0.0,0.0,0.0,0.0,0.0,0.0,0.0,0.0,0.0,0.0,0.0,0.0,0.0,0.0,0.0,0.0,0.0,0.0,0.0,0.0,0.0,0.0,0.0,0.0,0.0,0.0,0.0,0.0,0.0,0.0,0.0,0.0,0.0,0.0,0.0,0.0,0.0,0.0,0.0,0.0,0.0,0.0,0.0,0.0,0.0,0.0,0.0,0.0,0.0,0.0,0.0,0.0,0.0,0.0,0.0,0.0,0.0,0.0,0.0,0.0,0.0,0.0,0.0,0.0,0.0,0.0,0.0,0.0,0.0,0.0,0.0,0.0,0.0,0.0,0.0,0.0,0.0,0.0,0.0,0.0,0.0,0.0,0.0,0.0,0.0,0.0,0.0,0.0,0.0,0.0,0.0,0.0,0.0,0.0,0.0,0.0,0.0,0.0,0.0,0.0,0.0,0.0,0.0,0.0,0.0,0.0,0.0,0.0,0.0,0.0,0.0,0.0,0.0,0.0,0.0,0.0,0.0,0.0,0.0,0.0,0.0,0.0,0.0,0.0,0.0,0.0,0.0,0.0,0.0,0.0,0.0,0.0,0.0,0.0,0.0,0.0,0.0,0.0,0.0,0.0,0.0,0.0,0.0,0.0,0.0,0.0,0.0,0.0,0.0,0.0,0.0,0.0,0.0,0.0,0.0,0.0,0.0,0.0,0.0,0.0,0.0,0.0,0.0,0.0,0.0,0.0,0.0,0.0,0.0,0.0,0.0,0.0,0.0,0.0,0.0,0.0,0.0,0.0,0.0,0.0,0.0,0.0,0.0,0.0,0.0,0.0,0.0,0.0,0.0,0.0,0.0,0.0,0.0,0.0,0.0,0.0,0.0,0.0,0.0,0.0,0.0,0.0,0.0,0.0,0.0,0.0,0.0,0.0,0.0,0.0,0.0,0.0,0.0,0.0,0.0,0.0,0.0,0.0,0.0,0.0,0.0,0.0,0.0,0.0,0.0,0.0,0.0,0.0,0.0,0.0,0.0,0.0,0.0,0.0,0.0,0.0,2.6628,0.0,0.0,0.0,0.0,0.0,0.0,0.0,0.0,0.0,0.0,0.0,0.0,0.0,0.0,0.0,0.0,0.0,0.0,0.0,0.0,0.0,0.0,0.0,0.0,0.0,0.0,0.0,0.0,0.0,0.0,0.0,0.0,0.0,0.0,0.0,0.0,0.0,0.0,0.0,0.0,0.0,0.0,0.0,0.0,0.0,0.0,0.0,0.0,0.0,0.0,0.0,0.0,0.0,0.0,0.0,0.0,0.0,0.0,0.0,0.0,0.0,0.0,0.0,0.0,0.0,0.0,0.0,0.0,0.0,0.0,0.0,0.0,0.0,0.0,0.0,0.0,0.0,0.0,0.0,0.0,0.0,0.0,0.0,0.0,0.0,0.0,0.0,0.0,0.0,0.0,0.0,0.0,0.0,0.0,0.0,0.0,0.0,0.0,0.0,0.0,0.0,0.0,0.0,0.0,0.0,0.0,0.0,0.0,0.0,0.0,2.8709,2.8132,2.7884,2.7555,2.694,0.0,0.0,0.0,0.0,0.0,0.0,0.0,0.0,0.0,0.0,0.0,0.0,0.0,0.0,0.0,0.0,0.0,0.0,0.0,0.0,0.0,0.0,0.0,0.0,0.0,0.0,0.0,0.0,0.0,0.0,0.0,0.0,0.0,0.0,0.0,0.0,0.0,0.0,0.0,0.0,0.0,0.0,0.0,0.0,0.0,0.0,0.0,0.0,0.0,0.0,0.0,0.0,0.0,0.0,0.0,0.0,0.0,0.0,0.0,0.0,0.0,0.0,0.0,0.0,0.0,0.0,0.0,0.0,0.0,0.0,0.0,0.0,0.0,0.0,0.0,0.0,0.0,0.0,0.0,0.0,0.0,0.0,0.0,0.0,0.0,0.0,0.0,0.0,0.0,0.0,0.0,0.0,0.0,0.0,0.0,0.0,0.0,0.0,0.0,0.0,0.0,0.0,0.0,0.0,0.0,0.0,0.0,0.0,0.0,0.0,0.0,0.0,2.7985,2.7592,2.7059,0.0,0.0,0.0,0.0,0.0,0.0,0.0,0.0,0.0,0.0,0.0,0.0,0.0,0.0,0.0,0.0,0.0,0.0,0.0,0.0,0.0,0.0,0.0,0.0,0.0,0.0,0.0,0.0,0.0,0.0,0.0,0.0,0.0,0.0,0.0,0.0,0.0,0.0,0.0,0.0,0.0,0.0,0.0,0.0,0.0,0.0,0.0,0.0,0.0,0.0,0.0,0.0,0.0,0.0,0.0,0.0,0.0,0.0,0.0,0.0,0.0,0.0,0.0,0.0,0.0,0.0,0.0,0.0,0.0,0.0,0.0,0.0,0.0,0.0,0.0,0.0,0.0,0.0,0.0,0.0,0.0,0.0,0.0,0.0,0.0,0.0,0.0,0.0,0.0,0.0,0.0,0.0,0.0,0.0,0.0,0.0,0.0,0.0,0.0,0.0,0.0,0.0,0.0,0.0,0.0,0.0,0.0,0.0,0.0,0.0,2.8792,2.8407,2.7985,0.0,2.6701,0.0,0.0,0.0,0.0,0.0,0.0,0.0,0.0,0.0,0.0,0.0,0.0,0.0,0.0,0.0,0.0,0.0,0.0,0.0,0.0,0.0,0.0,0.0,0.0,0.0,0.0,0.0,0.0,0.0,0.0,0.0,0.0,0.0,0.0,0.0,0.0,0.0,0.0,0.0,0.0,0.0,0.0,0.0,0.0,0.0,0.0,0.0,0.0,0.0,0.0,0.0,0.0,0.0,0.0,0.0,0.0,0.0,0.0,0.0,0.0,0.0,0.0,0.0,0.0,0.0,0.0,0.0,0.0,0.0,0.0,0.0,0.0,0.0,0.0,0.0,0.0,0.0,0.0,0.0,0.0,0.0,0.0,0.0,0.0,0.0,0.0,0.0,0.0,0.0,0.0,0.0,0.0,0.0,0.0,0.0,0.0,0.0,0.0,0.0,0.0,0.0,0.0,0.0,0.0,0.0,0.0,0.0,0.0,0.0,0.0,2.8902,2.8746,2.8113,2.7555,0.0,0.0,0.0,0.0,0.0,0.0,0.0,0.0,0.0,0.0,0.0,0.0,0.0,0.0,0.0,0.0,0.0,0.0,0.0,0.0,0.0,0.0,0.0,0.0,0.0,0.0,0.0,0.0,0.0,0.0,0.0,0.0,0.0,0.0,0.0,0.0,0.0,0.0,0.0,0.0,0.0,0.0,0.0,0.0,0.0,0.0,0.0,0.0,0.0,0.0,0.0,0.0,0.0,0.0,0.0,0.0,0.0,0.0,0.0,0.0,0.0,0.0,0.0,0.0,0.0,0.0,0.0,0.0,0.0,0.0,0.0,0.0,0.0,0.0,0.0,0.0,0.0,0.0,0.0,0.0,0.0,0.0,0.0,0.0,0.0,0.0,0.0,0.0,0.0,0.0,0.0,0.0,0.0,0.0,0.0,0.0,0.0,0.0,0.0,0.0,0.0,0.0,0.0,0.0,0.0,0.0,0.0,0.0,0.0,0.0,2.9103,2.9052,2.8929,2.8249,2.7696,2.7124,0.0,0.0,0.0,0.0,0.0,0.0,0.0,0.0,0.0,0.0,0.0,0.0,0.0,0.0,0.0,0.0,0.0,0.0,0.0,0.0,0.0,0.0,0.0,0.0,0.0,0.0,0.0,0.0,0.0,0.0,0.0,0.0,0.0,0.0,0.0,0.0,0.0,0.0,0.0,0.0,0.0,0.0,0.0,0.0,0.0,0.0,0.0,0.0,0.0,0.0,0.0,0.0,0.0,0.0,0.0,0.0,0.0,0.0,0.0,0.0,0.0,0.0,0.0,0.0,0.0,0.0,0.0,0.0,0.0,0.0,0.0,0.0,0.0,0.0,0.0,0.0,0.0,0.0,0.0,0.0,0.0,0.0,0.0,0.0,0.0,0.0,0.0,0.0,0.0,0.0,0.0,0.0,0.0,0.0,0.0,0.0,0.0,0.0,0.0,0.0,0.0,0.0,0.0,0.0,0.0,0.0,0.0,0.0,2.8984,2.9331,2.9243,2.8786,2.8351,2.7847,0.0,0.0,0.0,0.0,0.0,0.0,0.0,0.0,0.0,0.0,0.0,0.0,0.0,0.0,0.0,0.0,0.0,0.0,0.0,0.0,0.0,0.0,0.0,0.0,0.0,0.0,0.0,0.0,0.0,0.0,0.0,0.0,0.0,0.0,0.0,0.0,0.0,0.0,0.0,0.0,0.0,0.0,0.0,0.0,0.0,0.0,0.0,0.0,0.0,0.0,0.0,0.0,0.0,0.0,0.0,0.0,0.0,0.0,0.0,0.0,0.0,0.0,0.0,0.0,0.0,0.0,0.0,0.0,0.0,0.0,0.0,0.0,0.0,0.0,0.0,0.0,0.0,0.0,0.0,0.0,0.0,0.0,0.0,0.0,0.0,0.0,0.0,0.0,0.0,0.0,0.0,0.0,0.0,0.0,0.0,0.0,0.0,0.0,0.0,0.0,0.0,0.0,0.0,0.0,0.0,0.0,0.0,0.0,0.0,2.9568,2.9922,2.9929,2.965,2.9087,2.8518,0.0,0.0,0.0,0.0,0.0,0.0,0.0,0.0,0.0,0.0,0.0,0.0,0.0,0.0,0.0,0.0,0.0,0.0,0.0,0.0,0.0,0.0,0.0,0.0,0.0,0.0,0.0,0.0,0.0,0.0,0.0,0.0,0.0,0.0,0.0,0.0,0.0,0.0,0.0,0.0,0.0,0.0,0.0,0.0,0.0,0.0,0.0,0.0,0.0,0.0,0.0,0.0,0.0,0.0,0.0,0.0,0.0,0.0,0.0,0.0,0.0,0.0,0.0,0.0,0.0,0.0,0.0,0.0,0.0,0.0,0.0,0.0,0.0,0.0,0.0,0.0,0.0,0.0,0.0,0.0,0.0,0.0,0.0,0.0,0.0,0.0,0.0,0.0,0.0,0.0,0.0,0.0,0.0,0.0,0.0,0.0,0.0,0.0,0.0,0.0,0.0,0.0,0.0,0.0,0.0,0.0,0.0,0.0,0.0,3.0509,0.0,3.0864,3.0555,2.9931,2.9297,0.0,0.0,0.0,0.0,0.0,0.0,0.0,0.0,0.0,0.0,0.0,0.0,0.0,0.0,0.0,0.0,0.0,0.0,0.0,0.0,0.0,0.0,0.0,0.0,0.0,0.0,0.0,0.0,0.0,0.0,0.0,0.0,0.0,0.0,0.0,0.0,0.0,0.0,0.0,0.0,0.0,0.0,0.0,0.0,0.0,0.0,0.0,0.0,0.0,0.0,0.0,0.0,0.0,0.0,0.0,0.0,0.0,0.0,0.0,0.0,0.0,0.0,0.0,0.0,0.0,0.0,0.0,0.0,0.0,0.0,0.0,0.0,0.0,0.0,0.0,0.0,0.0,0.0,0.0,0.0,0.0,0.0,0.0,0.0,0.0,0.0,0.0,0.0,0.0,0.0,0.0,0.0,0.0,0.0,0.0,0.0,0.0,0.0,0.0,0.0,0.0,0.0,0.0,0.0,0.0,0.0,0.0,0.0,3.1526,3.1787,3.2055,3.1979,3.136,3.0825,3.0092,0.0,0.0,0.0,0.0,0.0,0.0,0.0,0.0,0.0,0.0,0.0,0.0,0.0,0.0,0.0,0.0,0.0,0.0,0.0,0.0,0.0,0.0,0.0,0.0,0.0,0.0,0.0,0.0,0.0,0.0,0.0,0.0,0.0,0.0,0.0,0.0,0.0,0.0,0.0,0.0,0.0,0.0,0.0,0.0,0.0,0.0,0.0,0.0,0.0,0.0,0.0,0.0,0.0,0.0,0.0,0.0,0.0,0.0,0.0,0.0,0.0,0.0,0.0,0.0,0.0,0.0,0.0,0.0,0.0,0.0,0.0,0.0,0.0,0.0,0.0,0.0,0.0,0.0,0.0,0.0,0.0,0.0,0.0,0.0,0.0,0.0,0.0,0.0,0.0,0.0,0.0,0.0,0.0,0.0,0.0,0.0,0.0,0.0,0.0,0.0,0.0,0.0,0.0,0.0,0.0,0.0,0.0,0.0,0.0,3.3346,3.3402,3.3285,3.3028,3.2349,3.158,0.0,0.0,0.0,0.0,0.0,0.0,0.0,0.0,0.0,0.0,0.0,0.0,0.0,0.0,0.0,0.0,0.0,0.0,0.0,0.0,0.0,0.0,0.0,0.0,0.0,0.0,0.0,0.0,0.0,0.0,0.0,0.0,0.0,0.0,0.0,0.0,0.0,0.0,0.0,0.0,0.0,0.0,0.0,0.0,0.0,0.0,0.0,0.0,0.0,0.0,0.0,0.0,0.0,0.0,0.0,0.0,0.0,0.0,0.0,0.0,0.0,0.0,0.0,0.0,0.0,0.0,0.0,0.0,0.0,0.0,0.0,0.0,0.0,0.0,0.0,0.0,0.0,0.0,0.0,0.0,0.0,0.0,0.0,0.0,0.0,0.0,0.0,0.0,0.0,0.0,0.0,0.0,0.0,0.0,0.0,0.0,0.0,0.0,0.0,0.0,0.0,0.0,0.0,0.0,0.0,0.0,0.0,0.0,0.0,3.5179,3.4969,3.4747,3.4434,3.3676,3.2926,3.2204,0.0,0.0,0.0,0.0,0.0,0.0,0.0,0.0,0.0,0.0,0.0,0.0,0.0,0.0,0.0,0.0,0.0,0.0,0.0,0.0,0.0,0.0,0.0,0.0,0.0,0.0,0.0,0.0,0.0,0.0,0.0,0.0,0.0,0.0,0.0,0.0,0.0,0.0,0.0,0.0,0.0,0.0,0.0,0.0,0.0,0.0,0.0,0.0,0.0,0.0,0.0,0.0,0.0,0.0,0.0,0.0,0.0,0.0,0.0,0.0,0.0,0.0,0.0,0.0,0.0,0.0,0.0,0.0,0.0,0.0,0.0,0.0,0.0,0.0,0.0,0.0,0.0,0.0,0.0,0.0,0.0,0.0,0.0,0.0,0.0,0.0,0.0,0.0,0.0,0.0,0.0,0.0,0.0,0.0,0.0,0.0,0.0,0.0,0.0,0.0,0.0,0.0,0.0,0.0,0.0,0.0,0.0,0.0,3.7131,3.6681,3.6179,3.5584,3.4792,3.403,0.0,0.0,0.0,0.0,0.0,0.0,0.0,0.0,0.0,0.0,0.0,0.0,0.0,0.0,0.0,0.0,0.0,0.0,0.0,0.0,0.0,0.0,0.0,0.0,0.0,0.0,0.0,0.0,0.0,0.0,0.0,0.0,0.0,0.0,0.0,0.0,0.0,0.0,0.0,0.0,0.0,0.0,0.0,0.0,0.0,0.0,0.0,0.0,0.0,0.0,0.0,0.0,0.0,0.0,0.0,0.0,0.0,0.0,0.0,0.0,0.0,0.0,0.0,0.0,0.0,0.0,0.0,0.0,0.0,0.0,0.0,0.0,0.0,0.0,0.0,0.0,0.0,0.0,0.0,0.0,0.0,0.0,0.0,0.0,0.0,0.0,0.0,0.0,0.0,0.0,0.0,0.0,0.0,0.0,0.0,0.0,0.0,0.0,0.0,0.0,0.0,0.0,0.0,0.0,0.0,0.0,0.0,0.0,0.0,3.7809,3.8006,3.7689,3.6706,3.5789,3.5085,0.0,0.0,0.0,0.0,0.0,0.0,0.0,0.0,0.0,0.0,0.0,0.0,0.0,0.0,0.0,0.0,0.0,0.0,0.0,0.0,0.0,0.0,0.0,0.0,0.0,0.0,0.0,0.0,0.0,0.0,0.0,0.0,0.0,0.0,0.0,0.0,0.0,0.0,0.0,0.0,0.0,0.0,0.0,0.0,0.0,0.0,0.0,0.0,0.0,0.0,0.0,0.0,0.0,0.0,0.0,0.0,0.0,0.0,0.0,0.0,0.0,0.0,0.0,0.0,0.0,0.0,0.0,0.0,0.0,0.0,0.0,0.0,0.0,0.0,0.0,0.0,0.0,0.0,0.0,0.0,0.0,0.0,0.0,0.0,0.0,0.0,0.0,0.0,0.0,0.0,0.0,0.0,0.0,0.0,0.0,0.0,0.0,0.0,0.0,0.0,0.0,0.0,0.0,0.0,0.0,0.0,0.0,0.0,3.8767,3.8671,3.8779,3.8497,3.7809,3.683,3.6062,0.0,0.0,0.0,0.0,0.0,0.0,0.0,0.0,0.0,0.0,0.0,0.0,0.0,0.0,0.0,0.0,0.0,0.0,0.0,0.0,0.0,0.0,0.0,0.0,0.0,0.0,0.0,0.0,0.0,0.0,0.0,0.0,0.0,0.0,0.0,0.0,0.0,0.0,0.0,0.0,0.0,0.0,0.0,0.0,0.0,0.0,0.0,0.0,0.0,0.0,0.0,0.0,0.0,0.0,0.0,0.0,0.0,0.0,0.0,0.0,0.0,0.0,0.0,0.0,0.0,0.0,0.0,0.0,0.0,0.0,0.0,0.0,0.0,0.0,0.0,0.0,0.0,0.0,0.0,0.0,0.0,0.0,0.0,0.0,0.0,0.0,0.0,0.0,0.0,0.0,0.0,0.0,0.0,0.0,0.0,0.0,0.0,0.0,0.0,0.0,0.0,0.0,0.0,0.0,0.0,0.0,0.0,0.0,3.9128,3.9585,3.9152,3.8876,3.8737,3.7769,3.6836,0.0,0.0,0.0,0.0,0.0,0.0,0.0,0.0,0.0,0.0,0.0,0.0,0.0,0.0,0.0,0.0,0.0,0.0,0.0,0.0,0.0,0.0,0.0,0.0,0.0,0.0,0.0,0.0,0.0,0.0,0.0,0.0,0.0,0.0,0.0,0.0,0.0,0.0,0.0,0.0,0.0,0.0,0.0,0.0,0.0,0.0,0.0,0.0,0.0,0.0,0.0,0.0,0.0,0.0,0.0,0.0,0.0,0.0,0.0,0.0,0.0,0.0,0.0,0.0,0.0,0.0,0.0,0.0,0.0,0.0,0.0,0.0,0.0,0.0,0.0,0.0,0.0,0.0,0.0,0.0,0.0,0.0,0.0,0.0,0.0,0.0,0.0,0.0,0.0,0.0,0.0,0.0,0.0,0.0,0.0,0.0,0.0,0.0,0.0,0.0,0.0,0.0,0.0,0.0,0.0,0.0,0.0,0.0,3.9489,3.9597,3.9501,3.9236,3.8827,3.7757,3.6952,0.0,0.0,0.0,0.0,0.0,0.0,0.0,0.0,0.0,0.0,0.0,0.0,0.0,0.0,0.0,0.0,0.0,0.0,0.0,0.0,0.0,0.0,0.0,0.0,0.0,0.0,0.0,0.0,0.0,0.0,0.0,0.0,0.0,0.0,0.0,0.0,0.0,0.0,0.0,0.0,0.0,0.0,0.0,0.0,0.0,0.0,0.0,0.0,3.464,0.0,0.0,0.0,0.0,0.0,0.0,0.0,0.0,0.0,0.0,0.0,0.0,0.0,0.0,0.0,0.0,0.0,0.0,0.0,0.0,0.0,0.0,0.0,0.0,0.0,0.0,0.0,0.0,0.0,0.0,0.0,0.0,0.0,0.0,0.0,0.0,0.0,0.0,0.0,0.0,0.0,0.0,0.0,0.0,0.0,0.0,0.0,0.0,0.0,0.0,0.0,0.0,0.0,0.0,0.0,0.0,0.0,0.0,0.0,4.017,4.0519,4.0072,3.9563,3.9164,3.813,3.7192,0.0,0.0,0.0,0.0,0.0,0.0,0.0,0.0,0.0,0.0,0.0,0.0,0.0,0.0,0.0,0.0,0.0,0.0,0.0,0.0,0.0,0.0,0.0,0.0,0.0,0.0,0.0,0.0,0.0,0.0,0.0,0.0,0.0,0.0,0.0,0.0,0.0,0.0,0.0,0.0,0.0,0.0,0.0,0.0,0.0,0.0,0.0,0.0,0.0,0.0,0.0,0.0,0.0,0.0,0.0,0.0,0.0,0.0,0.0,0.0,0.0,0.0,0.0,0.0,0.0,0.0,0.0,0.0,0.0,0.0,0.0,0.0,0.0,0.0,0.0,0.0,0.0,0.0,0.0,0.0,0.0,0.0,0.0,0.0,0.0,0.0,0.0,0.0,0.0,0.0,0.0,0.0,0.0,0.0,0.0,0.0,0.0,0.0,0.0,0.0,0.0,0.0,0.0,0.0,0.0,0.0,0.0,4.0706,4.1047,4.1793,4.0856,4.0166,3.9818,3.885,3.7722,3.6509,0.0,0.0,0.0,0.0,0.0,0.0,0.0,0.0,0.0,0.0,0.0,0.0,0.0,0.0,0.0,0.0,0.0,0.0,0.0,0.0,0.0,0.0,0.0,0.0,0.0,0.0,0.0,0.0,0.0,0.0,0.0,0.0,0.0,0.0,0.0,0.0,0.0,0.0,3.5429,3.5719,0.0,0.0,0.0,0.0,0.0,0.0,0.0,0.0,3.5752,0.0,0.0,0.0,0.0,0.0,0.0,0.0,0.0,0.0,0.0,0.0,0.0,0.0,0.0,0.0,0.0,0.0,0.0,0.0,0.0,0.0,0.0,0.0,0.0,0.0,0.0,0.0,0.0,0.0,0.0,0.0,0.0,0.0,0.0,0.0,0.0,0.0,0.0,0.0,0.0,0.0,0.0,0.0,0.0,0.0,0.0,0.0,0.0,0.0,0.0,0.0,0.0,0.0,0.0,0.0,0.0,4.1468,4.1518,4.2007,4.3066,4.2291,4.1467,4.0681,4.0116,3.8792,3.6875,0.0,0.0,0.0,0.0,0.0,0.0,0.0,0.0,0.0,0.0,0.0,0.0,0.0,0.0,0.0,0.0,0.0,0.0,0.0,0.0,0.0,0.0,0.0,0.0,0.0,0.0,0.0,0.0,0.0,0.0,0.0,0.0,0.0,0.0,0.0,0.0,0.0,0.0,0.0,3.7119,3.7263,0.0,0.0,0.0,0.0,0.0,0.0,0.0,0.0,3.6427,0.0,0.0,0.0,0.0,0.0,0.0,0.0,0.0,0.0,0.0,0.0,0.0,0.0,0.0,0.0,0.0,0.0,0.0,0.0,0.0,0.0,0.0,0.0,0.0,0.0,0.0,0.0,0.0,0.0,0.0,0.0,0.0,0.0,0.0,0.0,0.0,0.0,0.0,0.0,0.0,0.0,0.0,0.0,0.0,0.0,0.0,0.0,0.0,0.0,0.0,0.0,0.0,0.0,0.0,0.0,4.2553,4.3048,4.3514,4.4032,4.3434,4.2613,4.1585,4.087,3.953,0.0,0.0,0.0,0.0,0.0,0.0,0.0,0.0,0.0,0.0,0.0,0.0,0.0,0.0,0.0,0.0,0.0,0.0,0.0,0.0,0.0,0.0,0.0,0.0,0.0,0.0,0.0,0.0,0.0,0.0,0.0,0.0,0.0,0.0,0.0,0.0,0.0,0.0,0.0,0.0,3.8411,3.883,3.883,0.0,0.0,0.0,0.0,0.0,0.0,3.7453,3.7361,0.0,0.0,0.0,0.0,0.0,0.0,0.0,0.0,0.0,0.0,0.0,0.0,0.0,0.0,0.0,0.0,0.0,0.0,0.0,0.0,0.0,0.0,0.0,0.0,0.0,0.0,0.0,0.0,0.0,0.0,0.0,0.0,0.0,0.0,0.0,0.0,0.0,0.0,0.0,0.0,0.0,0.0,0.0,0.0,0.0,0.0,0.0,0.0,0.0,0.0,0.0,0.0,0.0,0.0,0.0,4.3873,4.468,4.5166,4.5275,4.4811,4.4019,4.2826,4.1995,4.0632,0.0,0.0,0.0,0.0,0.0,0.0,0.0,0.0,0.0,0.0,0.0,0.0,0.0,0.0,0.0,0.0,0.0,0.0,0.0,0.0,0.0,0.0,0.0,0.0,0.0,0.0,0.0,0.0,0.0,0.0,0.0,0.0,0.0,0.0,0.0,0.0,0.0,0.0,0.0,0.0,0.0,4.048,4.0575,3.988,0.0,0.0,0.0,0.0,3.853,3.8562,0.0,0.0,0.0,0.0,0.0,0.0,0.0,0.0,0.0,0.0,0.0,0.0,0.0,0.0,0.0,0.0,0.0,0.0,0.0,0.0,0.0,0.0,0.0,0.0,0.0,0.0,0.0,0.0,0.0,0.0,0.0,0.0,0.0,0.0,0.0,0.0,0.0,0.0,0.0,0.0,0.0,0.0,0.0,0.0,0.0,0.0,0.0,0.0,0.0,0.0,0.0,0.0,0.0,0.0,0.0,0.0,4.5495,4.6204,4.6842,4.7294,4.6995,4.6291,4.5229,4.4356,4.2852,0.0,0.0,0.0,0.0,0.0,0.0,0.0,0.0,0.0,0.0,0.0,0.0,0.0,0.0,0.0,0.0,0.0,0.0,0.0,0.0,0.0,0.0,0.0,0.0,0.0,0.0,0.0,0.0,0.0,0.0,0.0,0.0,0.0,0.0,0.0,0.0,0.0,0.0,0.0,0.0,0.0,4.2139,4.2447,4.1957,4.1274,0.0,0.0,4.0368,3.9859,3.9821,0.0,0.0,0.0,0.0,0.0,0.0,0.0,0.0,0.0,0.0,0.0,0.0,0.0,0.0,0.0,0.0,0.0,0.0,0.0,0.0,0.0,0.0,0.0,0.0,0.0,0.0,0.0,0.0,0.0,0.0,0.0,0.0,0.0,0.0,0.0,0.0,0.0,0.0,0.0,0.0,0.0,0.0,0.0,0.0,0.0,0.0,0.0,0.0,0.0,0.0,0.0,0.0,0.0,0.0,0.0,4.5447,4.6258,4.7426,4.8012,4.8165,4.8013,4.7502,4.6536,4.5541,4.4153,0.0,0.0,0.0,0.0,0.0,0.0,0.0,0.0,0.0,0.0,0.0,0.0,0.0,0.0,0.0,0.0,0.0,0.0,0.0,0.0,0.0,0.0,0.0,0.0,0.0,0.0,0.0,0.0,0.0,0.0,0.0,0.0,0.0,0.0,0.0,0.0,0.0,0.0,0.0,0.0,0.0,0.0,4.3691,4.3346,0.0,0.0,0.0,4.1443,4.1163,0.0,0.0,0.0,0.0,0.0,0.0,0.0,0.0,0.0,0.0,0.0,0.0,0.0,0.0,0.0,0.0,0.0,0.0,0.0,0.0,0.0,0.0,0.0,0.0,0.0,0.0,0.0,0.0,0.0,0.0,0.0,0.0,0.0,0.0,0.0,0.0,0.0,0.0,0.0,0.0,0.0,0.0,0.0,0.0,0.0,0.0,0.0,0.0,0.0,0.0,0.0,0.0,0.0,0.0,0.0,0.0,0.0,4.6899,4.835,4.8994,4.8845,4.8795,4.8468,4.7751,4.6686,0.0,0.0,0.0,0.0,0.0,0.0,0.0,0.0,0.0,0.0,0.0,0.0,0.0,0.0,0.0,0.0,0.0,0.0,0.0,0.0,0.0,0.0,0.0,0.0,0.0,0.0,0.0,3.8661,0.0,0.0,0.0,0.0,0.0,0.0,0.0,0.0,0.0,0.0,0.0,0.0,0.0,0.0,4.4597,4.469,4.4478,4.4169,0.0,0.0,4.2593,4.2437,4.1952,4.1597,0.0,0.0,0.0,0.0,0.0,0.0,0.0,0.0,0.0,0.0,0.0,0.0,0.0,0.0,0.0,0.0,0.0,0.0,0.0,0.0,0.0,0.0,0.0,0.0,0.0,0.0,0.0,0.0,0.0,0.0,0.0,0.0,0.0,0.0,0.0,0.0,0.0,0.0,0.0,0.0,0.0,0.0,0.0,0.0,0.0,0.0,0.0,0.0,0.0,0.0,0.0,0.0,0.0,0.0,4.6832,4.7749,4.8982,4.9634,4.9634,4.962,4.9473,4.9135,4.8287,4.7212,0.0,0.0,0.0,0.0,0.0,0.0,0.0,0.0,0.0,0.0,0.0,0.0,0.0,0.0,0.0,0.0,0.0,0.0,0.0,0.0,0.0,0.0,0.0,0.0,0.0,0.0,0.0,0.0,0.0,0.0,0.0,0.0,0.0,0.0,0.0,0.0,0.0,0.0,0.0,0.0,0.0,4.5138,4.5413,4.5384,4.5185,0.0,4.4496,4.4222,4.3603,4.3459,4.3401,4.3401,0.0,0.0,0.0,0.0,0.0,0.0,0.0,0.0,0.0,0.0,0.0,0.0,0.0,0.0,0.0,0.0,0.0,0.0,0.0,0.0,0.0,0.0,0.0,0.0,0.0,0.0,0.0,0.0,0.0,0.0,0.0,0.0,0.0,0.0,0.0,0.0,0.0,0.0,0.0,0.0,0.0,0.0,0.0,0.0,0.0,0.0,0.0,0.0,0.0,0.0,0.0,0.0,0.0,4.6674,4.7782,4.9078,4.9732,4.9732,4.9732,4.9634,4.9537,4.8686,4.786,0.0,0.0,0.0,0.0,0.0,0.0,0.0,0.0,0.0,0.0,0.0,0.0,0.0,0.0,0.0,0.0,0.0,0.0,0.0,0.0,0.0,0.0,0.0,0.0,0.0,0.0,0.0,0.0,4.1833,4.1993,4.2195,0.0,0.0,0.0,0.0,0.0,0.0,0.0,0.0,0.0,0.0,4.564,4.573,4.5866,0.0,0.0,4.5376,4.5113,4.4865,4.4355,4.4022,4.4036,4.3474,0.0,0.0,0.0,0.0,0.0,0.0,0.0,0.0,0.0,0.0,0.0,0.0,0.0,0.0,0.0,0.0,0.0,0.0,0.0,0.0,0.0,0.0,0.0,0.0,0.0,0.0,0.0,0.0,0.0,0.0,0.0,0.0,0.0,0.0,0.0,0.0,0.0,0.0,0.0,0.0,0.0,0.0,0.0,0.0,0.0,0.0,0.0,0.0,0.0,0.0,0.0,0.0,4.686,4.7922,4.9174,4.9878,4.9941,4.9926,4.9926,4.9926,4.9359,4.859,0.0,0.0,0.0,0.0,0.0,0.0,0.0,0.0,0.0,0.0,0.0,0.0,0.0,0.0,0.0,0.0,0.0,0.0,0.0,0.0,0.0,0.0,0.0,0.0,0.0,0.0,0.0,0.0,4.2482,4.2695,4.2893,0.0,0.0,0.0,0.0,0.0,0.0,0.0,0.0,0.0,0.0,4.6328,4.6403,4.6476,4.6535,4.6521,4.6269,4.6104,4.6104,4.5561,4.5095,4.508,0.0,0.0,0.0,0.0,0.0,0.0,0.0,0.0,0.0,0.0,0.0,0.0,0.0,0.0,0.0,0.0,0.0,0.0,0.0,0.0,0.0,0.0,0.0,0.0,0.0,0.0,0.0,0.0,0.0,0.0,4.6594,0.0,0.0,0.0,0.0,0.0,0.0,0.0,0.0,0.0,0.0,0.0,0.0,0.0,0.0,0.0,0.0,0.0,0.0,0.0,0.0,0.0,0.0,4.7512,4.8231,4.9476,5.0231,5.0453,5.0501,5.0501,5.0501,5.0486,4.9725,4.8214,0.0,0.0,0.0,0.0,0.0,0.0,0.0,0.0,0.0,0.0,0.0,0.0,0.0,0.0,0.0,0.0,0.0,0.0,0.0,0.0,0.0,0.0,0.0,0.0,0.0,0.0,4.2977,4.3175,4.3385,0.0,0.0,0.0,0.0,0.0,0.0,0.0,0.0,0.0,0.0,4.6946,4.7337,4.7551,4.7394,4.7294,4.7294,4.7279,4.7264,4.7249,4.7003,4.6843,0.0,0.0,0.0,0.0,0.0,0.0,0.0,0.0,0.0,0.0,0.0,0.0,0.0,0.0,0.0,0.0,0.0,0.0,0.0,0.0,0.0,0.0,0.0,0.0,0.0,0.0,0.0,4.9477,4.9265,0.0,0.0,0.0,0.0,0.0,0.0,0.0,0.0,0.0,0.0,0.0,5.416,5.289,0.0,0.0,0.0,0.0,0.0,0.0,0.0,0.0,0.0,0.0,0.0,0.0,4.8253,4.8892,5.0169,5.0899,5.0947,5.0947,5.0947,5.0947,5.0947,5.0322,4.8906,0.0,0.0,0.0,0.0,0.0,0.0,0.0,0.0,0.0,0.0,0.0,0.0,0.0,0.0,0.0,0.0,0.0,0.0,0.0,0.0,0.0,0.0,0.0,0.0,0.0,4.3864,0.0,0.0,0.0,0.0,0.0,0.0,0.0,0.0,0.0,0.0,0.0,4.6946,4.7216,4.7895,4.8324,4.8282,4.8324,4.8339,0.0,0.0,0.0,0.0,0.0,0.0,0.0,0.0,0.0,0.0,0.0,0.0,0.0,0.0,4.5849,4.4091,4.3659,4.3443,4.3141,0.0,0.0,0.0,0.0,0.0,0.0,0.0,0.0,0.0,0.0,0.0,0.0,0.0,0.0,5.2043,0.0,5.1346,0.0,0.0,0.0,0.0,0.0,0.0,0.0,0.0,5.4813,5.5545,5.6737,5.52,5.4347,0.0,5.2996,5.1495,0.0,0.0,0.0,0.0,0.0,0.0,0.0,0.0,4.9292,4.9716,5.1092,5.188,5.1926,5.1926,5.1911,5.1911,5.1334,5.0593,4.9701,4.7654,4.6319,0.0,0.0,0.0,0.0,0.0,0.0,0.0,0.0,0.0,0.0,0.0,0.0,0.0,0.0,0.0,0.0,0.0,0.0,0.0,0.0,0.0,0.0,0.0,4.479,0.0,0.0,0.0,0.0,0.0,0.0,0.0,0.0,0.0,4.6131,4.7283,4.8277,4.867,4.9132,4.9414,4.9358,0.0,0.0,0.0,0.0,0.0,0.0,0.0,4.9647,4.9197,4.8984,4.882,4.8893,4.9075,4.9141,4.9066,0.0,0.0,4.5759,4.5171,4.4927,4.4733,4.4562,4.4492,4.4435,4.4626,4.4787,0.0,0.0,0.0,0.0,0.0,0.0,0.0,0.0,5.6167,5.5799,0.0,5.4485,0.0,0.0,0.0,0.0,0.0,5.3957,0.0,0.0,5.7197,5.7748,5.7883,5.6976,5.6195,5.5539,5.4786,5.4057,5.3281,5.1387,0.0,0.0,0.0,0.0,0.0,0.0,5.0676,5.0753,5.2252,5.3139,5.3315,5.3359,5.3343,5.3237,5.1602,5.0676,5.0525,4.8374,4.7098,4.7026,4.5662,0.0,0.0,0.0,0.0,0.0,0.0,0.0,0.0,0.0,0.0,0.0,0.0,0.0,0.0,0.0,0.0,0.0,0.0,0.0,0.0,4.5306,0.0,0.0,0.0,0.0,0.0,0.0,0.0,0.0,0.0,0.0,4.8709,4.9027,4.9665,5.0665,0.0,0.0,0.0,0.0,5.0836,5.1499,5.1627,5.186,5.2348,5.2209,5.1726,5.0834,0.0,0.0,5.0271,5.0393,5.0393,5.0026,4.9908,4.9251,4.7178,4.6587,4.6239,4.5683,4.5563,4.5503,4.5462,4.5987,4.6376,5.7522,0.0,0.0,0.0,0.0,5.6232,5.6605,5.6942,5.7131,5.7104,5.6894,5.6515,0.0,0.0,0.0,0.0,0.0,0.0,5.733,5.8423,5.8678,5.8943,5.9077,5.8149,5.7364,5.6645,5.5959,5.5502,5.5273,5.4184,5.2803,5.1182,0.0,0.0,0.0,0.0,5.215,5.2806,5.3719,5.4221,5.4306,5.4306,5.4026,5.3518,5.2412,5.1552,5.1048,4.9752,4.8865,4.838,4.7777,0.0,0.0,0.0,0.0,0.0,0.0,0.0,0.0,0.0,0.0,0.0,0.0,0.0,0.0,0.0,0.0,0.0,0.0,0.0,4.7839,4.791,4.8027,0.0,0.0,0.0,0.0,0.0,0.0,0.0,0.0,0.0,5.0816,5.0859,5.094,0.0,0.0,5.1392,5.1317,5.1831,5.2221,5.2253,5.2817,0.0,5.3263,5.32,5.3018,5.2572,5.2184,5.1775,5.1205,5.1296,5.1355,5.1108,5.087,5.049,4.9772,4.878,4.8096,4.7777,4.7664,4.7664,4.7664,4.7817,4.7939,5.9519,5.8351,5.7747,5.7479,5.7549,5.7877,5.8209,5.8613,5.8756,5.8841,5.8782,5.8379,5.792,5.7398,5.6828,0.0,0.0,0.0,5.882,5.9439,5.9522,5.9647,5.9705,5.8593,5.7804,5.7343,5.6692,5.6346,5.6346,5.5902,5.4902,5.3356,0.0,0.0,5.2414,5.2965,5.3528,5.4067,5.4858,5.5271,5.5271,5.5271,5.4915,5.4164,5.3271,5.246,5.1738,5.0854,5.0179,4.9786,4.9308,4.8564,0.0,0.0,0.0,0.0,0.0,0.0,0.0,0.0,0.0,0.0,0.0,4.4143,4.4358,0.0,0.0,0.0,4.6906,4.8263,4.9941,4.9721,0.0,0.0,0.0,0.0,0.0,0.0,0.0,4.9907,5.0636,5.1287,5.1838,5.1868,5.1868,5.1868,5.1977,5.2076,5.2228,0.0,5.3226,5.3656,5.4191,5.4624,5.4694,5.4704,5.4567,5.4173,5.3596,5.3105,5.2765,5.2778,5.2815,5.2613,5.2447,5.2129,5.1588,5.0838,5.0113,4.9508,4.9365,4.9365,4.9381,4.9325,4.9325,6.0961,6.0602,5.9152,5.878,5.9125,5.9353,5.9924,6.0717,6.0701,6.0717,6.0685,6.0084,5.9662,5.9388,5.8765,0.0,5.8179,5.93,5.9787,5.9721,5.9911,5.9926,5.9761,5.8436,5.7757,5.769,5.7011,5.6697,5.668,5.668,5.6349,5.5665,5.4459,5.383,5.3814,5.4395,5.4793,5.4858,5.5702,5.6165,5.6165,5.6165,5.5788,5.4962,5.4113,5.3264,5.2498,5.1642,5.1156,5.114,5.0359,4.9639,4.8872,0.0,0.0,0.0,0.0,0.0,0.0,0.0,0.0,0.0,0.0,0.0,0.0,0.0,0.0,4.7025,4.8971,0.0,5.1471,5.0917,0.0,0.0,0.0,4.9388,4.9548,5.0154,5.0602,5.0779,0.0,0.0,5.2139,5.2283,5.2442,5.2456,5.2473,5.2705,5.3318,5.3496,5.4059,5.5296,5.5615,5.5875,5.6161,5.6309,5.6045,5.5331,5.4759,5.4352,5.437,5.439,5.4365,5.415,5.4216,5.3889,5.2823,5.2612,5.2303,5.1093,5.0644,5.0509,5.047,5.047,5.0432,6.1077,6.0986,6.0597,6.038,6.0328,6.0571,6.0795,6.1002,6.1019,6.1019,6.0986,6.0837,6.0613,6.037,6.0389,6.0282,6.0039,6.0547,6.0473,5.9944,5.9952,5.9413,5.8336,5.7955,5.7492,5.6962,5.6779,5.6697,5.6697,5.6697,5.6597,5.6432,5.6134,5.5694,5.5144,5.5161,5.5523,5.6222,5.6442,5.658,5.658,5.6525,5.593,5.4658,5.4255,5.3468,5.2253,5.1839,5.1651,5.1614,5.1451,5.099,5.0236,4.9307,0.0,0.0,0.0,0.0,0.0,0.0,0.0,0.0,0.0,4.6474,4.7264,0.0,4.8059,0.0,5.0464,5.1377,5.1904,5.1667,0.0,0.0,5.1368,5.1161,5.1234,5.1507,5.173,5.1767,5.2095,5.2354,5.2318,5.2373,5.2589,5.3069,5.3169,5.3235,5.3417,5.4374,5.5168,5.5565,5.6084,5.6481,5.6569,5.6658,5.6371,5.566,5.5395,5.5097,5.4572,5.4527,5.4473,5.4452,5.4436,5.4278,5.4055,5.4022,5.3935,5.3485,5.2199,5.0951,5.0968,5.0968,5.093,6.1119,6.1119,6.1119,6.1019,6.0902,6.1019,6.1119,6.1119,6.1119,6.1119,6.1119,6.1119,6.1002,6.086,6.1019,6.0837,6.044,6.0523,6.0208,5.9512,5.9164,5.8585,5.779,5.7458,5.7094,5.6697,5.6697,5.6697,5.6697,5.6697,5.6697,5.6697,5.6697,5.6481,5.6117,5.5969,5.6167,5.668,5.6697,5.6697,5.6697,5.6697,5.5984,5.4556,5.4382,5.3684,5.2296,5.2139,5.2069,5.2086,5.2086,5.174,5.1015,5.008,4.8893,0.0,0.0,0.0,0.0,0.0,0.0,0.0,0.0,0.0,0.0,0.0,4.973,5.0952,5.1569,5.2013,5.2285,5.2142,5.2158,5.2302,5.2214,5.2161,5.2142,5.225,5.2302,5.2247,5.2318,5.2409,5.2409,5.2655,5.297,5.3367,5.3943,5.4394,5.4444,5.5085,5.5681,5.6051,5.6432,5.6697,5.6697,5.6697,5.6564,5.6183,5.61,5.5951,5.557,5.5487,5.5471,5.5487,5.5487,5.5371,5.509,5.4986,5.4924,5.4419,5.3494,5.2707,5.262,5.2604,5.2604,6.1119,6.1119,6.1119,6.1119,6.1119,6.1119,6.1119,6.1119,6.1119,6.1119,6.1119,6.1119,6.1119,6.1102,6.1045,6.0647,6.005,5.9951,5.9544,5.8774,5.8127,5.7779,5.7624,5.6995,5.6697,5.6697,5.6697,5.6697,5.6697,5.6697,5.6697,5.6697,5.6697,5.6697,5.6697,5.6697,5.6697,5.6697,5.6697,5.6697,5.6697,5.6697,5.6034,5.4742,5.4539,5.3897,5.2572,5.2459,5.2409,5.2409,5.2409,5.2127,5.1481,5.0578,4.9501,0.0,4.7358,0.0,0.0,0.0,0.0,0.0,0.0,0.0,0.0,5.0183,5.1397,5.2329,5.2499,5.257,5.2677,5.2605,5.257,5.2694,5.2677,5.2694,5.2677,5.2694,5.264,5.248,5.2445,5.2426,5.2575,5.3053,5.3381,5.3798,5.4721,5.5483,5.5736,5.5731,5.6017,5.6614,5.6697,5.6697,5.6697,5.6697,5.668,5.668,5.663,5.6697,5.6614,5.6614,5.6647,5.6647,5.6581,5.6432,5.5852,5.5714,5.5554,5.5007,5.4804,5.4634,5.4403,5.4303,5.4436,6.1119,6.1119,6.1119,6.1119,6.1119,6.1119,6.1119,6.1119,6.1119,6.1119,6.1119,6.1119,6.1119,6.1069,6.0637,6.037,6.0203,5.9804,5.9137,5.8263,5.8091,5.7615,5.6934,5.6763,5.6697,5.6697,5.6697,5.6697,5.6697,5.6697,5.6697,5.6697,5.6697,5.6697,5.6697,0.0,0.0,0.0,5.6697,5.6697,5.6697,5.6697,5.6282,5.5438,5.4804,0.0,5.3251,5.2672,5.2409,5.2409,5.2409,0.0,0.0,0.0,0.0,0.0,0.0,0.0,0.0,0.0,0.0,0.0,5.0585,5.0868,5.0813,5.182,5.2648,5.299,5.3145,5.323,5.323,5.323,5.323,5.323,5.3264,5.323,5.3264,5.3162,5.3007,5.2834,5.2676,5.2715,5.3155,5.3351,5.3897,5.4903,5.5416,5.5868,5.6398,5.6448,5.6531,5.668,5.6697,5.6697,5.6697,5.6697,5.6697,5.6697,5.6697,5.6697,5.6697,5.6697,5.6697,5.6697,5.6697,5.6663,5.6498,5.6481,5.6398,5.6282,5.6249,5.5935,5.4775,5.4527,5.449,6.1252,0.0,6.1252,6.1293,0.0,6.1417,6.1417,6.1375,6.1186,6.1144,6.1252,6.1252,6.1094,6.085,6.0572,5.9821,5.8803,5.8535,5.795,5.7189,5.7172,5.7118,5.6987,5.6987,5.6987,5.6987,5.6987,5.6987,5.6987,5.7004,5.6949,5.6851,5.6834,5.6796,5.6697,5.6697,5.6697,5.6697,5.6697,5.6697,5.6697,5.6697,5.6332,5.5653,5.5234,0.0,0.0,0.0,0.0,0.0,0.0,0.0,0.0,0.0,0.0,5.1386,5.0722,5.0524,5.0958,5.0992,5.1176,5.1645,5.2219,5.2522,5.2368,5.2909,5.3399,5.3667,5.3666,5.3682,5.3781,5.3715,5.3682,5.3781,5.3781,5.3798,5.3781,5.3732,5.3583,5.3382,5.3464,5.359,5.3673,5.428,5.4854,5.5521,5.5935,5.6266,5.6597,5.6697,5.6697,5.6697,5.6697,5.6697,5.6697,5.6697,5.6697,5.6697,5.6697,5.6697,5.6697,5.6697,5.6697,5.6697,5.6697,5.6697,5.6697,5.6697,5.6697,5.6697,5.6697,5.6498,5.5719,5.5587,5.5587,6.1465,6.1465,6.1482,6.1547,6.1726,6.1726,6.1726,6.1669,0.0,0.0,0.0,6.1332,6.0946,6.0387,6.0175,5.9002,5.721,5.7079,5.6694,5.6071,5.6054,5.6372,5.6888,5.6904,5.6904,5.6904,5.6904,5.6904,5.6904,5.6904,5.6846,5.6679,5.6679,5.6566,5.6376,5.6354,5.6404,5.6558,5.6652,5.6697,5.6697,5.6697,5.6415,5.5835,5.5686,5.5338,5.4779,5.4593,5.4229,5.3685,5.3616,5.3351,5.2788,5.213,5.1785,5.1926,5.1277,5.1245,5.2034,5.2118,5.2505,5.3332,5.3684,5.3766,5.355,5.3716,5.3963,5.4252,5.4188,5.4171,5.4316,5.4188,5.4156,5.4316,5.4348,5.4348,5.4348,5.4316,5.4207,5.412,5.438,5.4668,5.4673,5.5431,5.6046,5.6041,5.649,5.6774,5.6757,5.6735,5.6697,5.6697,5.6697,5.6697,5.6697,5.6697,5.6697,5.6697,5.6697,5.6697,5.6697,5.6697,5.6697,5.6697,5.6697,5.6697,5.6697,5.6697,5.6697,5.6697,5.6697,5.6697,5.6697,5.668,5.6614,6.1669,6.1669,6.1669,6.1669,6.1726,6.1726,6.1726,6.1726,6.1628,6.1628,6.1635,6.1,6.0314,5.96,5.8513,5.7497,5.6609,5.613,5.5793,5.5513,5.5513,5.5492,5.5412,5.5412,5.5395,5.5412,5.5395,5.5395,5.5412,5.5412,5.5395,5.5392,5.5375,5.5302,5.5085,5.4899,5.5215,5.5979,5.6442,5.6697,5.6697,5.6697,5.6647,5.6514,5.5935,5.5646,5.5697,5.4949,5.4551,5.4582,5.4435,5.4311,5.4195,5.3665,5.3442,5.3603,5.3108,5.2892,5.3163,5.3331,5.3614,5.4027,5.4271,5.4303,5.4124,5.4254,5.4445,5.4617,5.4741,5.4852,5.4882,5.4852,5.4852,5.4882,5.4882,5.49,5.4917,5.4828,5.4897,5.5292,5.5302,5.5688,5.6385,5.6649,5.6872,5.7194,5.7226,5.7122,5.7004,5.6812,5.6719,5.6697,5.6697,5.6697,5.6697,5.6697,5.6697,5.6697,5.6697,5.6697,5.6697,5.6697,5.6697,5.6697,5.6697,5.6697,5.6697,5.6697,5.6697,5.6697,5.6697,5.6697,5.6697,5.6697,5.6697,6.1854,6.1854,6.1854,6.1732,6.1441,6.1043,6.0819,6.0802,6.0819,6.0998,6.1165,6.0494,5.9576,5.8635,5.8019,5.6908,5.5441,5.5225,5.5038,5.4951,5.4968,5.5152,5.5417,5.5434,5.5434,5.5434,5.5417,5.5434,5.5434,5.5417,5.5362,5.5274,5.5147,5.5094,5.5113,5.4948,5.5152,5.5761,5.6075,5.6549,5.7143,5.7063,5.7101,5.716,5.6729,5.6617,5.6824,5.6395,5.6101,5.5881,5.5666,5.5389,5.5004,5.4869,5.4861,5.5037,5.4635,5.4462,5.4593,5.4379,5.4365,5.4617,5.479,5.4882,5.4913,5.4882,5.4944,5.5113,5.5221,5.5282,5.5282,5.5252,5.5282,5.5252,5.5614,5.5859,5.5929,5.6217,5.646,5.6669,5.6908,5.7149,5.7484,5.7705,5.7783,5.787,5.7701,5.7551,5.7364,5.716,5.6949,5.6774,5.6697,5.6697,5.6697,5.6697,5.6697,5.6697,5.6697,5.6697,5.6697,5.6697,5.6697,5.6697,5.6697,5.6697,5.6697,5.6697,5.6697,5.6697,5.6697,5.6697,5.6697,5.6697,5.6697,6.184,6.184,6.1655,6.1363,6.0994,6.0368,6.0097,6.008,5.9928,6.0068,6.0374,5.9864,5.8984,5.7949,5.7729,5.6613,5.5006,5.4854,5.4854,5.4837,5.4854,5.5074,5.5429,5.5463,5.5378,5.5226,5.5226,5.5226,5.5209,5.5209,5.5139,5.5034,5.4806,5.4806,5.5017,5.4877,5.4998,5.5516,5.5705,5.6354,5.7395,5.7372,5.7423,5.7755,5.7645,5.7662,5.7901,5.7828,5.763,5.7303,5.7057,5.6677,5.6136,5.6111,5.6234,5.6406,5.6058,5.5921,5.6076,5.5716,5.554,5.5728,5.5784,5.5922,5.5999,5.5892,5.5774,5.5759,5.5759,5.5811,5.6022,5.6039,5.6034,5.6069,5.6526,5.6829,5.6929,5.7421,5.7851,5.7919,5.8282,5.8422,5.8437,5.8667,5.8702,5.8369,5.819,5.801,5.7865,5.7645,5.7364,5.7063,5.6834,5.6719,5.6697,5.6697,5.6697,5.6697,5.6697,5.6697,5.6697,5.6697,5.6697,5.6697,5.6697,5.6697,5.6697,5.6697,5.6697,5.6697,5.6697,5.6697,5.6697,5.6697,5.6697,6.1361,6.1243,6.0617,6.0228,6.0199,6.0097,6.003,5.9962,5.9404,5.9096,5.9197,5.9113,5.8623,5.7865,5.7188,5.6427,5.5598,5.5598,5.5598,5.5581,5.5615,5.5294,5.4803,5.4735,5.4363,5.3873,5.3856,5.3991,5.3974,5.3839,5.3805,5.3821,5.3636,5.3737,5.3888,5.3888,5.4361,5.5308,5.5475,5.6029,5.698,5.7204,5.7633,5.8281,5.8298,5.8475,5.8841,5.8527,5.8476,5.8737,5.8425,5.8197,5.8061,5.7672,5.7568,5.7868,5.7421,5.7308,5.7706,5.7744,5.7698,5.7954,5.7746,5.7656,5.7686,5.7587,5.7232,5.6719,5.6526,5.6789,5.7456,5.7509,5.7438,5.7386,5.7596,5.7684,5.7719,5.7754,5.807,5.8811,5.8938,5.9102,5.9419,5.9482,5.9318,5.8961,5.8754,5.8615,5.8545,5.8244,5.7957,5.7681,5.7214,5.6757,5.6735,5.6697,5.6697,5.6697,5.6697,5.6697,5.6697,5.6697,5.6697,5.6697,5.6697,5.6697,5.6697,5.6697,5.6697,5.6697,5.6697,5.6697,5.6697,5.6697,5.6697,6.1028,6.0554,6.0233,5.9844,5.9421,5.8998,5.8795,5.8744,5.849,5.8338,5.8355,5.8338,5.7949,5.7239,5.6934,5.641,5.5698,5.5681,5.5681,5.5681,5.5681,5.5547,5.5277,5.526,5.5091,5.482,5.482,5.482,5.4735,5.4449,5.4159,5.3916,5.3848,5.4011,5.4286,5.4301,5.4692,5.5515,5.5541,5.6095,5.7046,5.7205,5.7646,5.8403,5.8406,5.8748,5.948,5.9415,5.9482,5.9714,5.9482,5.9315,5.9232,5.9121,5.9129,5.924,5.8829,5.8413,5.8183,5.8178,5.8208,5.8285,5.8243,5.8166,5.8183,5.8033,5.796,5.8083,5.764,5.7456,5.779,5.7807,5.7807,5.786,5.8211,5.8509,5.8527,5.8895,5.9317,5.9598,5.9668,5.9706,5.9905,5.9814,5.965,5.9467,5.9318,5.92,5.9081,5.8823,5.8527,5.8173,5.7628,5.716,5.6949,5.6757,5.6735,5.6697,5.6697,5.6697,5.6697,5.6697,5.6697,5.6697,5.6697,5.6697,5.6697,5.6697,5.6697,5.6697,5.6697,5.6697,5.6697,5.6697,5.6697,6.0351,5.981,5.959,5.9201,5.866,5.8118,5.7881,5.7881,5.7881,5.7881,5.7881,5.7954,5.7719,5.7226,5.7139,5.6799,5.6342,5.6308,5.6308,5.6308,5.6308,5.6172,5.6038,5.6056,5.5973,5.5803,5.5822,5.5839,5.5789,5.5264,5.48,5.4567,5.4453,5.46,5.4939,5.5018,5.5301,5.5815,5.5848,5.6308,5.7018,5.7105,5.7579,5.8505,5.8692,5.9173,5.9951,6.0198,6.0401,6.0574,6.0401,6.0258,6.0181,6.0294,6.0374,6.0401,6.0182,5.9781,5.9242,5.9147,5.9118,5.91,5.9041,5.8982,5.8952,5.8802,5.8976,5.9399,5.8941,5.8536,5.8439,5.8439,5.8421,5.8474,5.8983,5.9299,5.9334,5.9808,6.0036,6.0089,6.0019,6.0089,6.0089,5.9975,5.9879,5.9846,5.9799,5.9702,5.9535,5.9351,5.9064,5.8632,5.8101,5.7554,5.716,5.6872,5.6719,5.6697,5.6697,5.6697,5.6697,5.6697,5.6697,5.6697,5.6697,5.6697,5.6697,5.6697,5.6697,5.6697,5.6697,5.6697,5.6697,5.6697,5.6697,5.9062,5.8964,5.8287,5.807,5.7932,5.7952,5.7918,5.7954,5.7918,5.7918,5.7954,5.8116,5.8171,5.8086,5.7908,5.785,5.7782,5.7715,5.7698,5.7698,5.7732,5.7391,5.6782,5.6943,5.6692,5.6234,5.6355,5.6389,5.6303,5.5718,5.5551,5.577,5.5247,5.5187,5.5584,5.5758,5.5968,5.6274,5.6429,5.6644,5.6813,5.6841,5.7441,5.8538,5.9365,5.975,6.0121,6.0694,6.1087,6.1252,6.1087,6.1034,6.1034,6.1034,6.1093,6.1205,6.1361,6.1412,6.1293,6.1106,6.1019,6.1044,6.0683,6.0622,6.048,6.0347,6.0326,6.049,6.0225,6.0051,5.9889,5.9735,5.9791,5.9808,5.9931,6.0001,6.0001,6.0001,6.0089,6.0089,6.0089,6.0089,6.0089,6.0089,6.0057,6.0057,6.0057,6.0043,5.9961,5.9846,5.9483,5.8978,5.8422,5.7867,5.7385,5.6949,5.6719,5.6697,5.6697,5.6697,5.6697,5.6697,5.6697,5.6697,5.6697,5.6697,5.6697,5.6697,5.6697,5.6697,5.6697,5.6697,5.6697,5.6697,5.6697,5.8818,5.847,5.8343,5.8312,5.8295,5.8295,5.826,5.8295,5.8312,5.8295,5.8295,5.8367,5.8367,5.8367,5.8331,5.8295,5.8312,5.8295,5.8295,5.8312,5.8312,5.8159,5.7955,5.7974,5.7942,5.7757,5.7775,5.7774,5.7557,5.6913,5.6526,5.6357,5.5883,5.5758,5.6052,5.6265,5.6501,5.6724,5.6821,5.6925,5.7036,5.7054,5.7291,5.7727,5.8331,5.8986,5.9636,6.0372,6.0804,6.086,6.1289,6.1501,6.1433,6.1433,6.1433,6.1491,6.1548,6.1605,6.1577,6.153,6.1473,6.1491,6.1252,6.1117,6.1087,6.0878,6.0727,6.0696,6.0609,6.0503,6.0392,6.0216,6.0089,6.0089,6.0089,6.0089,6.0089,6.0089,6.0089,6.0089,6.0089,6.0089,6.0089,6.0089,6.0089,6.0089,6.0089,6.0089,6.0057,5.9943,5.96,5.9064,5.8492,5.7903,5.7402,5.6949,5.6697,5.6697,5.6697,5.6697,5.6697,5.6697,5.6697,5.6697,5.6697,5.6697,5.6697,5.6697,5.6697,5.6697,5.6697,5.6697,5.6697,5.6697,5.6697,5.8647,5.8401,5.8491,5.8614,5.8649,5.8649,5.8649,5.8649,5.8562,5.8614,5.8649,5.8649,5.8719,5.884,5.8875,5.8944,5.8961,5.8719,5.8579,5.8579,5.8631,5.8666,5.8684,5.8771,5.8858,5.8961,5.9131,5.9155,5.8986,5.8069,5.7565,5.7394,5.6592,5.6282,5.6492,5.6671,5.6847,5.7028,5.7079,5.7112,5.7206,5.7188,5.7188,5.7235,5.7552,5.8167,5.9067,5.9835,6.0269,6.0404,6.1073,6.1559,6.1692,6.1718,6.1718,6.1718,6.1718,6.1718,6.1718,6.1708,6.168,6.1662,6.1519,6.1415,6.1386,6.1117,6.0998,6.0938,6.0757,6.0653,6.0622,6.0423,6.0266,6.0266,6.0234,6.0202,6.0202,6.0139,6.0089,6.0089,6.0089,6.0089,6.0089,6.0089,6.0089,6.0089,6.0089,6.0089,5.9975,5.9781,5.9434,5.8892,5.828,5.7738,5.7289,5.6889,5.6735,5.6697,5.6697,5.6697,5.6697,5.6697,5.6697,5.6697,5.6697,5.6697,5.6697,5.6697,5.6697,5.6697,5.6697,5.6697,5.6697,5.6697,5.6697,5.8596,5.8719,5.8702,5.8892,5.9081,5.9081,5.9047,5.9047,5.8858,5.8927,5.9081,5.9047,5.9233,5.9483,5.9633,5.9879,5.9846,5.9249,5.8892,5.8892,5.9012,5.9064,5.9115,5.9366,5.9515,5.9598,6.0036,6.0352,6.0326,5.9053,5.8401,5.8371,5.7216,5.6689,5.7003,5.6959,5.7036,5.7138,5.7163,5.7206,5.7188,5.7188,5.7188,5.7188,5.7235,5.7597,5.8358,5.9154,5.9552,5.9661,6.0403,6.1208,6.1842,6.1969,6.1996,6.1969,6.1996,6.1978,6.1969,6.1858,6.1802,6.1774,6.1662,6.1577,6.1548,6.1415,6.1281,6.1193,6.0998,6.083,6.077,6.0684,6.0578,6.0578,6.0441,6.0396,6.0346,6.0202,6.0089,6.0089,6.0089,6.0089,6.0089,6.0089,6.0089,6.0089,6.0057,5.9993,5.9796,5.9501,5.9046,5.8492,5.7993,5.7497,5.7139,5.6851,5.6774,5.6697,5.6697,5.6697,5.6697,5.6697,5.6697,5.6697,5.6697,5.6697,5.6697,5.6697,5.6697,5.6697,5.6697,5.6697,5.6697,5.6697,5.6697,5.8995,5.9266,5.9567,5.9764,5.9893,5.9893,5.9893,5.9861,5.9731,5.97,5.9748,5.9766,5.9879,6.0005,6.0118,6.0227,6.0366,6.0178,6.0036,5.9844,5.9861,5.994,6.0051,6.0129,6.0254,6.0415,6.0696,6.0908,6.0725,5.9509,5.89,5.8853,5.7621,5.7013,5.7112,5.7138,5.7181,5.7188,5.7188,5.7188,5.7188,5.7188,5.7188,5.7188,5.7188,5.7333,5.7587,5.8347,5.8764,5.8818,6.0086,6.119,6.1842,6.2023,6.2023,6.2023,6.2023,6.2023,6.1996,6.1969,6.1941,6.1913,6.1802,6.1746,6.1736,6.1605,6.1444,6.131,6.1193,6.1135,6.1016,6.0974,6.0854,6.0609,6.0547,6.0534,6.0503,6.0409,6.0252,6.0121,6.0089,6.0089,6.0089,6.0089,6.0089,6.0057,5.9961,5.9814,5.9617,5.9165,5.8684,5.8154,5.7698,5.7252,5.6949,5.6774,5.6735,5.6697,5.6697,5.6697,5.6697,5.6697,5.6697,5.6697,5.6697,5.6697,5.6697,5.6697,5.6697,5.6697,5.6697,5.6697,5.6697,5.6697,5.6697,5.9501,5.9844,6.0167,6.0356,6.0512,6.0574,6.0605,6.0574,6.0419,6.0405,6.0436,6.0405,6.0481,6.0618,6.0648,6.077,6.0921,6.104,6.0998,6.0848,6.0635,6.0648,6.0722,6.0765,6.0933,6.1128,6.1281,6.1444,6.1451,5.9994,5.9276,5.9185,5.7856,5.713,5.7188,5.7188,5.7188,5.7188,5.7188,5.7188,5.7188,5.7188,5.7188,5.7188,5.7188,5.7351,5.7641,5.8148,5.8402,5.8673,5.9941,6.1172,6.1887,6.195,6.1923,6.1895,6.1868,6.1858,6.1858,6.1868,6.1913,6.1858,6.183,6.1774,6.1718,6.1577,6.1415,6.1328,6.1223,6.1164,6.1123,6.1093,6.1004,6.0793,6.0714,6.064,6.0547,6.0458,6.0333,6.0171,6.0089,6.0089,6.0089,6.0025,5.9961,5.9896,5.9683,5.9383,5.9132,5.8632,5.8154,5.7735,5.7327,5.6987,5.6796,5.6735,5.6697,5.6697,5.6697,5.6697,5.6697,5.6697,5.6697,5.6697,5.6697,5.6697,5.6697,5.6697,5.6697,5.6697,5.6697,5.6697,5.6697,5.6697,5.6697,5.999,6.0307,6.0512,6.0696,6.0861,6.1034,6.1123,6.1123,6.0938,6.0938,6.1016,6.0908,6.1028,6.1252,6.1252,6.1368,6.1577,6.1577,6.1615,6.1559,6.1357,6.1182,6.1193,6.1281,6.1455,6.17,6.1774,6.1804,6.1624,6.0259,5.9552,5.9237,5.7916,5.7163,5.7138,5.7163,5.7138,5.7163,5.7163,5.7163,5.7188,5.7188,5.7188,5.7206,5.7315,5.7659,5.8202,5.8601,5.8691,5.8782,6.0077,6.1136,6.1788,6.1858,6.1802,6.1774,6.1662,6.1633,6.1633,6.1718,6.1746,6.1662,6.1718,6.1746,6.1605,6.1491,6.1386,6.1281,6.1211,6.1141,6.1111,6.1093,6.1064,6.1046,6.0848,6.0684,6.0441,6.0346,6.0252,6.0107,6.0057,6.0057,5.9993,5.9846,5.9716,5.9485,5.9217,5.8892,5.8492,5.8065,5.7608,5.7289,5.7025,5.6872,5.6697,5.6697,5.6697,5.6697,5.6697,5.6697,5.6697,5.6697,5.6697,5.6697,5.6697,5.6697,5.6697,5.6697,5.6697,5.6697,5.6697,5.6697,5.6697,5.6697,5.6697,5.9896,6.0307,6.0635,6.0998,6.1357,6.1462,6.1519,6.1605,6.1462,6.1386,6.1462,6.1415,6.1491,6.1644,6.1644,6.1774,6.183,6.1886,6.1913,6.1941,6.184,6.1774,6.1756,6.1802,6.1858,6.1941,6.1923,6.1661,6.1073,6.0095,5.9273,5.8535,5.7614,5.7003,5.6925,5.6925,5.6959,5.7036,5.7054,5.7105,5.7163,5.7188,5.7188,5.7243,5.775,5.8148,5.8528,5.9579,6.0176,6.0168,6.0395,6.1027,6.1768,6.1718,6.1633,6.1633,6.1605,6.1577,6.1577,6.1633,6.1651,6.1605,6.1605,6.1651,6.1605,6.1548,6.1444,6.1339,6.1252,6.1182,6.1123,6.1093,6.1016,6.0908,6.077,6.0605,6.028,6.0171,6.0075,5.9801,5.9718,5.9652,5.9535,5.9418,5.9284,5.8995,5.8684,5.8403,5.7993,5.7681,5.7252,5.7101,5.6911,5.6796,5.6697,5.6697,5.6697,5.6697,5.6697,5.6697,5.6697,5.6697,5.6697,5.6697,5.6697,5.6697,5.6697,5.6697,5.6697,5.6697,5.6697,5.6697,5.6697,5.6697,5.6697,5.9831,6.0231,6.0618,6.1046,6.1404,6.1566,6.1633,6.169,6.1651,6.1605,6.1605,6.1605,6.1651,6.1718,6.1718,6.1746,6.183,6.183,6.183,6.183,6.1802,6.1858,6.1969,6.2023,6.2023,6.2023,6.1996,6.1571,6.0801,5.9942,5.9067,5.8211,5.7329,5.6909,5.6821,5.6794,5.6847,5.6899,5.6925,5.6977,5.7105,5.713,5.7391,5.7634,5.822,5.8575,5.9355,6.0485,6.1027,6.0856,6.0973,6.1305,6.1646,6.1577,6.1491,6.1491,6.1433,6.1386,6.1404,6.1433,6.1444,6.1415,6.1433,6.1444,6.1386,6.1375,6.1299,6.1241,6.1135,6.1058,6.0986,6.0944,6.0793,6.0543,6.0432,6.0276,5.9958,5.9893,5.965,5.9369,5.9217,5.9132,5.8927,5.8858,5.865,5.8403,5.8101,5.7828,5.7534,5.7252,5.7063,5.6911,5.6834,5.6735,5.6697,5.6697,5.6697,5.6697,5.6697,5.6697,5.6697,5.6697,5.6697,5.6697,5.6697,5.6697,5.6697,5.6697,5.6697,5.6697,5.6697,5.6697,5.6697,5.6697,5.6697,5.9633,6.0008,6.0525,6.0848,6.1123,6.1433,6.1577,6.1605,6.1605,6.1605,6.1605,6.1605,6.1605,6.1605,6.1615,6.1605,6.1605,6.1633,6.1633,6.1633,6.1633,6.1746,6.1913,6.1913,6.1941,6.1969,6.1969,6.139,6.0567,5.9709,5.8871,5.7926,5.709,5.6804,5.6715,5.6715,5.6768,5.6786,5.6768,5.6847,5.7005,5.7157,5.757,5.8117,5.866,5.9428,6.0404,6.1204,6.132,6.0719,6.1368,6.1572,6.1548,6.1386,6.127,6.1211,6.1123,6.1034,6.1064,6.1152,6.1182,6.1093,6.1135,6.1164,6.1064,6.1034,6.1034,6.1004,6.0848,6.074,6.0679,6.0591,6.0405,6.0104,5.9861,5.9731,5.9633,5.9466,5.9198,5.8719,5.8615,5.8527,5.8334,5.8156,5.7993,5.7828,5.7571,5.7385,5.7176,5.6987,5.6834,5.6757,5.6735,5.6735,5.6697,5.6697,5.6697,5.6697,5.6697,5.6697,5.6697,5.6697,5.6697,5.6697,5.6697,5.6697,5.6697,5.6697,5.6697,5.6697,5.6697,5.6697,5.6697,5.6697,5.6697,5.8875,5.9284,5.9993,6.0481,6.0878,6.1223,6.1462,6.1577,6.1577,6.1548,6.1577,6.1577,6.1577,6.1577,6.1577,6.1605,6.1577,6.1577,6.1605,6.1605,6.1605,6.1605,6.169,6.169,6.1746,6.1802,6.1746,6.0989,5.9917,5.9322,5.8448,5.7101,5.6815,5.66,5.6519,5.6492,5.6546,5.6626,5.6635,5.6724,5.7018,5.7459,5.7881,5.8349,5.9313,6.0366,6.1176,6.1515,6.1458,6.1283,6.129,6.1386,6.1328,6.1087,6.095,6.0908,6.0805,6.0732,6.0701,6.0762,6.0732,6.0762,6.0793,6.0732,6.0732,6.0719,6.0701,6.0671,6.0512,6.0339,6.0231,6.0216,5.9975,5.9666,5.9334,5.8995,5.8667,5.8597,5.8457,5.819,5.8046,5.7974,5.7792,5.7755,5.7551,5.7252,5.7101,5.6987,5.6872,5.6757,5.6719,5.6697,5.6697,5.6697,5.6697,5.6697,5.6697,5.6697,5.6697,5.6697,5.6697,5.6697,5.6697,5.6697,5.6697,5.6697,5.6697,5.6697,5.6697,5.6697,5.6697,5.6697,5.6697,5.6697,5.6697,5.8422,5.8927,5.9567,6.0118,6.0622,6.0884,6.1034,6.1141,6.1123,6.1182,6.1223,6.1223,6.127,6.1357,6.1375,6.1375,6.1357,6.1357,6.1299,6.1252,6.1281,6.1357,6.1375,6.1404,6.1444,6.159,6.122,6.0356,5.9501,5.8736,5.7864,5.6707,5.6465,5.6373,5.6273,5.6235,5.6245,5.6355,5.6428,5.6653,5.7254,5.7667,5.8466,5.9104,6.0208,6.1049,6.139,6.1281,6.1193,6.1075,6.1016,6.1016,6.1058,6.0891,6.077,6.0714,6.0671,6.0627,6.0627,6.0627,6.0627,6.0596,6.0627,6.0627,6.0578,6.0499,6.0405,6.0311,6.0104,5.9844,5.9617,5.9584,5.9383,5.9029,5.8789,5.8368,5.7954,5.7901,5.7901,5.7588,5.7476,5.7348,5.7235,5.7289,5.7176,5.6949,5.6949,5.6796,5.6796,5.6719,5.6719,5.6697,5.6697,5.6697,5.6697,5.6697,5.6697,5.6697,5.6697,5.6697,5.6697,5.6697,5.6697,5.6697,5.6697,5.6697,5.6697,5.6697,5.6697,5.6697,5.6697,5.6697,5.6697,5.6697,5.6697,5.8171,5.8667,5.9266,5.9829,6.0333,6.0534,6.064,6.0609,6.0627,6.0714,6.0757,6.0788,6.0896,6.1004,6.1004,6.1052,6.1034,6.1004,6.0926,6.0878,6.0956,6.1004,6.0998,6.0903,6.0819,6.1164,6.0672,5.9857,5.8941,5.815,5.7395,5.6617,5.629,5.6179,5.6106,5.6003,5.6003,5.6134,5.6393,5.6761,5.7563,5.7912,5.8933,6.0053,6.0686,6.1027,6.1105,6.0938,6.0788,6.077,6.0653,6.0653,6.0696,6.0727,6.0714,6.0565,6.0516,6.0454,6.0454,6.0485,6.0485,6.0516,6.0516,6.0485,6.0405,6.0231,6.0072,5.9796,5.9516,5.9114,5.8858,5.884,5.865,5.8351,5.8171,5.7808,5.7439,5.7402,5.7289,5.7101,5.7063,5.6987,5.6911,5.6834,5.6757,5.6697,5.6697,5.6697,5.6697,5.6697,5.6697,5.6697,5.6697,5.6697,5.6697,5.6697,5.6697,5.6697,5.6697,5.6697,5.6697,5.6697,5.6697,5.6697,5.6697,5.6697,5.6697,5.6697,5.6697,5.6697,5.6697,5.6697,5.6697,5.6697,5.6763,5.7865,5.8246,5.9147,5.9746,6.0171,6.0454,6.0596,6.0627,6.0596,6.0627,6.064,6.064,6.064,6.0701,6.0701,6.0671,6.0701,6.0732,6.0701,6.064,6.0701,6.0714,6.0501,6.0141,5.9822,5.9811,5.9697,5.9166,5.8264,5.756,5.6914,5.6342,5.6077,5.5964,5.5964,5.5918,5.5925,5.6195,5.6567,5.706,5.7632,5.8585,5.9491,6.0463,6.0734,6.0775,6.0762,6.0701,6.064,6.0622,6.0609,6.0565,6.0503,6.0472,6.0472,6.0409,6.0297,6.0248,6.0248,6.0216,6.0202,6.0202,6.0185,6.0072,5.9943,5.9781,5.9518,5.9114,5.8685,5.8263,5.8082,5.8135,5.7991,5.7772,5.7571,5.7348,5.7101,5.6987,5.6911,5.6796,5.6757,5.6757,5.6719,5.6697,5.6697,5.6697,5.6697,5.6697,5.6697,5.6697,5.6697,5.6697,5.6697,5.6697,5.6697,5.6697,5.6697,5.6697,5.6697,5.6697,5.6697,5.6697,5.6697,5.6697,5.6697,5.6697,5.6697,5.6697,5.6697,5.6697,5.6697,5.6697,5.6746,5.6812,5.716,5.801,5.8492,5.9216,5.9781,6.0089,6.0266,6.0329,6.0343,6.036,6.0409,6.0472,6.0503,6.0516,6.0578,6.0627,6.0565,6.0534,6.0596,6.0547,6.0534,6.0547,6.0344,6.003,5.9499,5.8874,5.8474,5.8325,5.8199,5.7438,5.6826,5.6422,5.6145,5.5879,5.5793,5.5793,5.5706,5.5994,5.6358,5.6829,5.7459,5.8255,5.9476,6.0189,6.0454,6.0596,6.0627,6.0596,6.0534,6.0503,6.0472,6.0409,6.0315,6.0283,6.0252,6.0252,6.0234,6.0153,6.0089,6.0089,6.0089,6.0057,5.9943,5.9879,5.9683,5.9401,5.9114,5.8789,5.8332,5.7993,5.7665,5.7625,5.7588,5.7476,5.7327,5.7214,5.7063,5.6911,5.6757,5.6719,5.6697,5.6719,5.6719,5.6719,5.6697,5.6697,5.6697,5.6697,5.6697,5.6697,5.6697,5.6697,5.6697,5.6697,5.6697,5.6697,5.6697,5.6697,5.6697,5.6697,5.6697,5.6697,5.6697,5.6697,5.6697,5.6697,5.6697,5.6697,5.6697,5.6697,5.6697,5.6697,5.6713,5.6812,5.6995,5.7392,5.8261,5.8754,5.9385,5.9831,6.0057,6.0089,6.0089,6.0089,6.0121,6.0202,6.0315,6.0346,6.0409,6.0454,6.0485,6.0423,6.0364,6.0472,6.0392,6.0307,6.0162,5.9867,5.9474,5.8837,5.8171,5.7329,5.6882,5.6816,5.6737,5.6244,5.5932,5.585,5.5735,5.5666,5.5637,5.5807,5.6241,5.664,5.7298,5.8134,5.9372,6.0145,6.0485,6.0485,6.0516,6.0485,6.0454,6.0378,6.0346,6.0283,6.0202,6.0121,6.0089,6.0089,6.0089,6.0089,6.0089,6.0089,6.0089,6.0089,6.0025,5.9814,5.9617,5.9318,5.8892,5.8492,5.7993,5.7588,5.7327,5.7214,5.7176,5.7176,5.7101,5.7025,5.6949,5.6872,5.6796,5.6735,5.6735,5.6697,5.6697,5.6697,5.6697,5.6697,5.6697,5.6697,5.6697,5.6697,5.6697,5.6697,5.6697,5.6697,5.6697,5.6697,5.6697,5.6697,5.6697,5.6697,5.6697,5.6697,5.6697,5.6697,5.6697,5.6697,5.6697,5.6697,5.6697,5.6697,5.6697,5.6697,5.6697,5.6846,5.7127,5.7458,5.7839,5.8298,5.8737,5.9467,5.9911,6.0089,6.0089,6.0089,6.0089,6.0089,6.0089,6.0153,6.0121,6.0153,6.0185,6.0185,6.0171,6.0171,6.0202,6.0132,5.9991,5.9569,5.92,5.8747,5.7499,5.7156,5.6522,5.6035,5.5853,5.5987,5.5852,5.5706,5.5677,5.5607,5.5554,5.573,5.6099,5.6508,5.6907,5.8031,5.9134,5.9819,6.0114,6.0185,6.0185,6.0185,6.0185,6.0216,6.0171,6.0153,6.0153,6.0121,6.0089,6.0089,6.0089,6.0089,6.0089,6.0089,6.0089,6.0107,6.0162,6.0036,5.9791,5.9558,5.9064,5.8644,5.8118,5.7637,5.7139,5.6994,5.705,5.7133,5.6912,5.6807,5.6923,5.7089,5.6973,5.6796,5.6978,5.6945,5.6697,5.6697,5.6697,5.6697,5.6697,5.6697,5.6697,5.6697,5.6697,5.6697,5.6697,5.6697,5.6697,5.6697,5.6697,5.6697,5.6697,5.673,5.6713,5.6713,5.6713,5.6697,5.6697,5.6697,5.6697,5.6697,5.6796,5.6912,5.6895,5.6763,5.6746,5.6829,5.7193,5.7608,5.7955,5.8419,5.8457,5.9081,5.9698,6.0025,6.0089,6.0089,6.0089,6.0089,6.0089,6.0089,6.0089,6.0089,6.0089,6.0089,6.0089,6.0089,6.0089,6.0054,5.9826,5.9492,5.9053,5.8509,5.7632,5.6947,5.649,5.5981,5.5718,5.5654,5.5637,5.5654,5.5596,5.5596,5.559,5.5771,5.6034,5.642,5.7158,5.8,5.9018,5.9738,6.0001,6.0089,6.0089,6.0089,6.0089,6.0089,6.0089,6.0089,6.0089,6.0089,6.0089,6.0089,6.0089,6.0089,6.0089,6.0142,6.0563,6.0546,6.023,6.0431,6.0293,6.0081,5.9926,5.9788,5.9004,5.844,5.8147,5.8113,5.8034,5.7906,5.7873,5.7939,5.7922,5.7906,5.7707,5.7508,5.7392,5.7293,5.7276,5.6978,5.6746,5.6912,5.7011,5.6978,5.6895,5.6697,5.6697,5.6697,5.6697,5.6697,5.6697,5.6697,5.6697,5.6697,5.6697,5.6697,5.6812,5.6812,5.6812,5.6779,5.6713,5.6697,5.6912,5.6846,5.6746,5.6895,5.7144,5.7044,5.6879,5.6928,5.7028,5.7558,5.8121,5.8933,5.9446,5.8509,5.92,5.9799,6.0008,6.0025,6.0089,6.0089,6.0089,6.0089,6.0089,6.0089,6.0089,6.0089,6.0089,6.0072,5.9984,5.9773,5.9826,5.9352,5.8895,5.8386,5.7684,5.6964,5.6455,5.6017,5.5525,5.556,5.5525,5.5578,5.5683,5.5771,5.556,5.5806,5.6069,5.6543,5.7175,5.7983,5.9141,5.9703,6.0019,6.0089,6.0089,6.0089,6.0089,6.0089,6.0089,6.0089,6.0089,6.0089,6.0089,6.0089,6.0089,6.0089,6.0089,6.0282,6.0475,6.0967,6.1092,6.0907,6.1002,6.0841,6.0546,6.0103,5.9743,5.9209,5.898,5.8883,5.8757,5.8734,5.8784,5.8883,5.8817,5.8701,5.8651,5.8701,5.8469,5.8237,5.8104,5.8022,5.7873,5.769,5.7525,5.7558,5.7409,5.7177,5.6796,5.6697,5.673,5.6779,5.6846,5.6796,5.6846,5.7094,5.7111,5.7127,5.7077,5.7077,5.7111,5.7111,5.7227,5.7392,5.7458,5.7624,5.7409,5.7111,5.7475,5.8022,5.7492,5.7061,5.7525,5.7939,5.8171,5.8717,5.9579,6.0225,5.8226,5.8806,5.9483,5.9796,5.9829,6.0025,6.0089,6.0089,6.0089,6.0089,6.0089,6.0089,6.0089,6.0054,5.9949,5.965,5.9124,5.9089,5.8579,5.786,5.7158,5.6842,5.635,5.5964,5.5648,5.5543,5.5525,5.5525,5.5701,5.6157,5.5981,5.5653,5.6315,5.6508,5.7122,5.8105,5.8913,5.9756,6.0054,6.0072,6.0089,6.0089,6.0089,6.0089,6.0089,6.0089,6.0089,6.0089,6.0089,6.0089,6.0089,6.0089,6.0089,6.023,6.0528,6.0949,6.1426,6.1658,6.1771,6.1656,6.1432,6.0825,6.0199,5.9677,5.9418,5.9089,5.8966,5.9164,5.933,5.9198,5.9098,5.8949,5.9264,5.9347,5.9446,5.9198,5.8999,5.8866,5.8784,5.875,5.8568,5.827,5.8204,5.8088,5.7856,5.7492,5.7342,5.7376,5.7227,5.7243,5.7061,5.7127,5.7541,5.7707,5.7823,5.7856,5.7988,5.8071,5.8088,5.8287,5.8502,5.8518,5.8253,5.8303,5.8154,5.8518,5.875,5.8369,5.8237,5.8585,5.8883,5.9049,5.9446,6.0241,6.0672,5.7718,5.8065,5.8545,5.9046,5.9535,5.97,5.9814,5.9943,6.0057,6.0089,6.0089,6.0089,6.0089,5.9966,5.9563,5.9299,5.8948,5.8439,5.7807,5.7245,5.6736,5.635,5.5999,5.5736,5.5525,5.5525,5.5543,5.5823,5.6245,5.6613,5.6859,5.6929,5.7245,5.7667,5.8316,5.8966,5.9668,5.9949,6.0089,6.0089,6.0089,6.0089,6.0089,6.0089,6.0089,6.0089,6.0089,6.0089,6.0089,6.0089,6.0089,6.0124,6.0265,6.0546,6.0984,6.1443,6.1991,6.2436,6.2457,6.2334,6.1933,6.1472,6.0809,6.0273,6.0092,6.0208,6.0241,6.0274,6.0175,6.0059,6.0225,6.0274,6.0357,6.0291,6.0125,5.9893,5.9728,5.9612,5.9429,5.9347,5.9049,5.8734,5.875,5.88,5.8518,5.8237,5.8121,5.7988,5.7839,5.779,5.769,5.7757,5.8171,5.8403,5.8502,5.8717,5.8949,5.9015,5.9065,5.9164,5.9264,5.8883,5.8717,5.8883,5.9082,5.9231,5.9314,5.928,5.928,5.928,5.9545,5.986,6.0357,6.087,6.1003,5.7327,5.7551,5.7792,5.8351,5.9081,5.9402,5.9635,5.9829,6.0025,6.0089,6.0072,5.9914,5.9773,5.9563,5.9001,5.8421,5.8105,5.7632,5.6982,5.6508,5.6174,5.5946,5.5683,5.5525,5.5525,5.556,5.5806,5.6174,5.6526,5.707,5.7614,5.8053,5.8386,5.8773,5.8913,5.9685,6.0089,6.0089,6.0089,6.0089,6.0089,6.0089,6.0089,6.0089,6.0089,6.0089,6.0089,6.0089,6.0089,6.0089,6.0124,6.0247,6.0563,6.0984,6.1461,6.2028,6.2575,6.3136,6.2974,6.2606,6.214,6.1545,6.1267,6.1028,6.1119,6.1119,6.0887,6.0953,6.102,6.1119,6.1119,6.0937,6.087,6.0738,6.0755,6.0589,6.0456,6.0324,6.0092,5.9893,5.9711,5.9728,5.9744,5.9794,5.9231,5.8883,5.8535,5.8485,5.8485,5.8469,5.8552,5.8684,5.8966,5.9115,5.9231,5.9595,5.9926,6.0009,6.0009,5.9877,5.981,5.9479,5.9496,5.986,5.9993,5.991,5.9976,6.0109,5.996,5.9761,6.0092,6.0456,6.0639,6.102,6.1053,5.7139,5.7289,5.7327,5.7865,5.8684,5.9132,5.9467,5.9764,5.9975,6.0054,5.9896,5.9387,5.9053,5.886,5.8176,5.7579,5.707,5.6754,5.6297,5.5823,5.5753,5.5578,5.5543,5.5525,5.5613,5.5718,5.6087,5.6473,5.6859,5.7948,5.8667,5.9053,5.9369,5.9527,5.9159,5.9738,6.0072,6.0089,6.0089,6.0089,6.0089,6.0089,6.0089,6.0089,6.0089,6.0089,6.0089,6.0089,6.0142,6.0317,6.0285,6.0584,6.1182,6.136,6.1926,6.2874,6.291,6.3042,6.3065,6.2561,6.1986,6.1489,6.1186,6.1102,6.1119,6.1119,6.1119,6.1119,6.1119,6.1119,6.1119,6.1119,6.1119,6.1119,6.1119,6.1069,6.0904,6.0837,6.0572,6.0423,6.0755,6.1003,6.0986,6.0804,6.0109,5.9579,5.9065,5.8966,5.9164,5.9314,5.9463,5.9579,5.981,5.9877,6.0092,6.0589,6.0904,6.097,6.0837,6.0572,6.0556,6.049,6.0622,6.0854,6.0738,6.0523,6.0755,6.102,6.0688,6.039,6.0672,6.097,6.1086,6.1119,6.1119,5.6851,5.6911,5.6911,5.7327,5.801,5.8632,5.9132,5.9502,5.9861,5.9826,5.9405,5.9071,5.865,5.8123,5.7421,5.6824,5.6561,5.5964,5.5595,5.5578,5.5525,5.5525,5.5543,5.5613,5.5771,5.6174,5.6613,5.7351,5.8263,5.8895,5.9317,5.9703,5.9879,5.9949,5.9843,6.0036,6.0089,6.0089,6.0089,6.0089,6.0089,6.0089,6.0089,6.0089,6.0089,6.0089,6.0107,6.0107,6.0338,6.0674,6.0679,6.1051,6.1668,6.1914,6.2301,6.2783,6.272,6.2662,6.2341,6.1837,6.1588,6.1293,6.1144,6.1119,6.1119,6.1119,6.1119,6.1119,6.1119,6.1119,6.1119,6.1119,6.1119,6.1119,6.1119,6.1119,6.1036,6.1036,6.0937,6.0904,6.1102,6.1119,6.1119,6.1119,6.0589,6.044,6.0042,6.0092,6.0274,6.0407,6.0556,6.0572,6.0672,6.0721,6.087,6.102,6.1086,6.1053,6.1036,6.097,6.1036,6.1119,6.1086,6.0986,6.1053,6.1119,6.1119,6.1119,6.1119,6.1069,6.1119,6.1119,6.1119,6.1119,6.1119,5.6697,5.6697,5.6697,5.7025,5.7551,5.8209,5.8858,5.9451,5.9879,5.9685,5.9071,5.8737,5.8141,5.7333,5.6631,5.621,5.6157,5.5771,5.5525,5.5525,5.5525,5.5525,5.556,5.5788,5.6157,5.6648,5.7316,5.8088,5.8843,5.9229,5.9615,5.9931,6.0089,6.0054,6.0054,6.0072,6.0089,6.0089,6.0089,6.0089,6.0089,6.0089,6.0089,6.0089,6.0089,6.0089,6.0159,6.0355,6.0609,6.1016,6.1234,6.1448,6.1988,6.2297,6.2475,6.2527,6.2327,6.2218,6.1733,6.1424,6.1293,6.1144,6.1102,6.1119,6.1119,6.1119,6.1119,6.1119,6.1119,6.1119,6.1119,6.1119,6.1119,6.1119,6.1119,6.1119,6.1119,6.1119,6.1119,6.1119,6.1119,6.1119,6.1119,6.1119,6.0953,6.1003,6.1036,6.1119,6.1119,6.1119,6.1119,6.1086,6.1069,6.1003,6.0986,6.1053,6.1102,6.1119,6.1119,6.1119,6.1119,6.1119,6.1119,6.1119,6.1119,6.1119,6.1119,6.1119,6.1119,6.1119,6.1119,6.1119,6.1119,6.1119,6.1119,5.6697,5.6697,5.6719,5.6987,5.7402,5.8029,5.8823,5.9746,5.9955,5.9598,5.8895,5.807,5.7333,5.6561,5.5841,5.5613,5.563,5.5543,5.5525,5.5525,5.5525,5.556,5.5841,5.621,5.6684,5.7263,5.793,5.865,5.9124,5.9598,5.9966,6.0072,6.004,6.0025,6.0025,5.9961,5.9993,6.0057,6.0057,6.0057,6.0089,6.0089,6.0089,6.0089,6.0089,6.0162,6.0341,6.0578,6.085,6.1083,6.1276,6.1704,6.2004,6.2078,6.2317,6.2293,6.198,6.1669,6.1441,6.121,6.1127,6.1102,6.1102,6.1119,6.1119,6.1119,6.1119,6.1119,6.1119,6.1119,6.1119,6.1119,6.1119,6.1119,6.1119,6.1119,6.1119,6.1119,6.1119,6.1119,6.1119,6.1119,6.1119,6.1119,6.1119,6.1119,6.1119,6.1119,6.1119,6.1119,6.1119,6.1102,6.1102,6.1102,6.1119,6.1119,6.1119,6.1119,6.1119,6.1119,6.1119,6.1119,6.1119,6.1119,6.1119,6.1119,6.1119,6.1119,6.1119,6.1119,6.1119,6.1119,6.1119,6.1119,6.1119,5.6796,5.6911,5.7063,5.7364,5.7808,5.8632,5.9267,5.9744,5.9467,5.8878,5.8105,5.7298,5.6613,5.5823,5.5613,5.5543,5.5525,5.5525,5.5525,5.5543,5.5613,5.5876,5.6227,5.6631,5.728,5.807,5.879,5.9317,5.9685,6.0089,6.0089,6.0089,5.9911,5.9864,5.9751,5.9619,5.9766,5.9911,5.9879,5.9975,6.0057,6.0089,6.0124,6.0177,6.0162,6.0308,6.067,6.0766,6.1085,6.1759,6.1712,6.1967,6.2429,6.2186,6.2077,6.1706,6.1441,6.1227,6.1186,6.1161,6.1119,6.1119,6.1119,6.1119,6.1119,6.1119,6.1119,6.1119,6.1119,6.1119,6.1119,6.1119,6.1119,6.1119,6.1119,6.1119,6.1119,6.1119,6.1119,6.1119,6.1119,6.1119,6.1119,6.1119,6.1119,6.1119,6.1119,6.1119,6.1119,6.1119,6.1119,6.1119,6.1119,6.1119,6.1119,6.1119,6.1119,6.1119,6.1119,6.1119,6.1119,6.1119,6.1119,6.1119,6.1119,6.1119,6.1119,6.1119,6.1119,6.1119,6.1119,6.1119,6.1119,6.1119,6.1119,5.6987,5.7252,5.7439,5.7845,5.8421,5.9115,5.9412,5.9342,5.9082,5.8421,5.7333,5.6824,5.6192,5.563,5.5543,5.5525,5.5525,5.5525,5.5525,5.556,5.5759,5.6157,5.6561,5.7263,5.8088,5.8843,5.9334,5.9703,5.9987,5.9993,5.9993,5.9943,5.9731,5.9518,5.9335,5.9149,5.9183,5.9401,5.9633,5.9814,5.9961,6.0092,6.0215,6.0396,6.0381,6.0623,6.1014,6.0999,6.1493,6.1953,6.1749,6.1922,6.2122,6.1797,6.1611,6.1334,6.121,6.1144,6.1119,6.1119,6.1119,6.1119,6.1119,6.1119,6.1119,6.1119,6.1119,6.1119,6.1119,6.1119,6.1119,6.1119,6.1119,6.1119,6.1119,6.1119,6.1119,6.1119,6.1119,6.1119,6.1119,6.1119,6.1119,6.1119,6.1119,6.1119,6.1119,6.1119,6.1119,6.1119,6.1119,6.1119,6.1119,6.1119,6.1119,6.1119,6.1119,6.1119,6.1119,6.1119,6.1119,6.1119,6.1119,6.1119,6.1119,6.1119,6.1119,6.1119,6.1119,6.1119,6.1119,6.1119,6.1119,6.1119,6.1119,5.7252,5.7662,5.7865,5.8403,5.9047,5.9315,5.9095,5.8628,5.8563,5.7921,5.6759,5.6478,5.6027,5.5459,5.5389,5.5389,5.5389,5.5389,5.5529,5.5553,5.6054,5.6558,5.736,5.8162,5.8741,5.9215,5.9552,5.9803,5.9876,5.9831,5.9716,5.9698,5.9351,5.9098,5.8806,5.8509,5.8509,5.8684,5.9236,5.9644,5.9836,6.0051,6.0414,6.0777,6.0855,6.0912,6.1235,6.1456,6.1592,6.1557,6.1548,6.173,6.1489,6.1334,6.1186,6.1144,6.1102,6.1102,6.1119,6.1119,6.1119,6.1119,6.1119,6.1119,6.1119,6.1119,6.1119,6.1119,6.1119,6.1119,6.1119,6.1119,6.1119,6.1119,6.1119,6.1119,6.1119,6.1119,6.1119,6.1119,6.1119,6.1119,6.1119,6.1119,6.1119,6.1119,6.1119,6.1119,6.1119,6.1119,6.1119,6.1119,6.1119,6.1119,6.1119,6.1119,6.1119,6.1119,6.1119,6.1119,6.1119,6.1119,6.1119,6.1119,6.1119,6.1119,6.1119,6.1119,6.1119,6.1119,6.1119,6.1119,6.1119,6.1119,6.1119,5.7551,5.8116,5.8545,5.903,5.9333,5.8795,5.8201,5.7582,5.6909,5.6586,5.6348,5.5789,5.5414,5.5135,5.5053,5.5083,5.5101,5.5135,5.548,5.5763,5.623,5.7011,5.7891,5.8503,5.9109,5.9657,5.9873,5.9698,5.9518,5.9402,5.925,5.8995,5.8719,5.8509,5.8243,5.7918,5.7881,5.8126,5.8827,5.9443,5.9731,6.0246,6.068,6.0893,6.093,6.1215,6.1451,6.1401,6.1525,6.1575,6.1518,6.1424,6.1186,6.1144,6.1102,6.1119,6.1119,6.1119,6.1119,6.1119,6.1119,6.1119,6.1119,6.1119,6.1119,6.1119,6.1119,6.1119,6.1119,6.1119,6.1119,6.1119,6.1119,6.1119,6.1119,6.1119,6.1119,6.1119,6.1119,6.1119,6.1119,6.1119,6.1119,6.1119,6.1119,6.1119,6.1119,6.1119,6.1119,6.1119,6.1119,6.1119,6.1119,6.1119,6.1119,6.1119,6.1119,6.1119,6.1119,6.1119,6.1119,6.1119,6.1119,6.1119,6.1119,6.1119,6.1119,6.1119,6.1119,6.1119,6.1119,6.1119,6.1119,6.1119,6.1119,5.7755,5.8332,5.8927,5.92,5.918,5.8421,5.7659,5.6883,5.6057,5.549,5.5225,5.487,5.4693,5.4617,5.4554,5.4603,5.4634,5.4665,5.5147,5.5681,5.6356,5.7183,5.796,5.8652,5.9017,5.9499,5.9383,5.9165,5.9012,5.8789,5.8597,5.8422,5.8156,5.7884,5.7641,5.7456,5.7528,5.7884,5.8639,5.9225,5.9752,6.0392,6.0963,6.1133,6.1238,6.1484,6.1511,6.143,6.1348,6.1406,6.1301,6.1252,6.1144,6.1102,6.1102,6.1119,6.1119,6.1119,6.1119,6.1119,6.1119,6.1119,6.1119,6.1119,6.1119,6.1119,6.1119,6.1119,6.1119,6.1119,6.1119,6.1119,6.1119,6.1119,6.1119,6.1119,6.1119,6.1119,6.1119,6.1119,6.1119,6.1119,6.1119,6.1119,6.1119,6.1119,6.1119,6.1119,6.1119,6.1119,6.1119,6.1119,6.1119,6.1119,6.1119,6.1119,6.1119,6.1119,6.1119,6.1119,6.1119,6.1119,6.1119,6.1119,6.1119,6.1119,6.1119,6.1119,6.1119,6.1119,6.1119,6.1119,6.1119,6.1119,6.1119,5.7901,5.8457,5.8927,5.8978,5.8651,5.7928,5.7053,5.6181,5.5428,5.4545,5.3852,5.3931,5.3994,5.4027,5.3945,5.3994,5.4145,5.4365,5.4892,5.5628,5.6366,5.7207,5.7929,5.8531,5.8755,5.8806,5.8737,5.8632,5.8509,5.828,5.8101,5.794,5.7701,5.7402,5.7231,5.7246,5.7437,5.803,5.8674,5.9285,5.9924,6.0628,6.1118,6.1378,6.1498,6.1464,6.1508,6.1465,6.1276,6.121,6.1144,6.1144,6.1102,6.1119,6.1119,6.1119,6.1119,6.1119,6.1119,6.1119,6.1119,6.1119,6.1119,6.1119,6.1119,6.1119,6.1119,6.1119,6.1119,6.1119,6.1119,6.1119,6.1119,6.1119,6.1119,6.1119,6.1119,6.1119,6.1119,6.1119,6.1119,6.1119,6.1119,6.1119,6.1119,6.1119,6.1119,6.1119,6.1119,6.1119,6.1119,6.1119,6.1119,6.1119,6.1119,6.1119,6.1119,6.1119,6.1119,6.1119,6.1119,6.1119,6.1119,6.1119,6.1119,6.1119,6.1119,6.1119,6.1119,6.1119,6.1119,6.1119,6.1119,6.1119,6.1119,5.7937,5.8405,5.8369,5.8027,5.7395,5.6506,5.5671,5.4873,5.4059,5.345,5.328,5.3041,5.3111,5.355,5.3516,5.3533,5.3618,5.4025,5.489,5.5705,5.6318,5.7152,5.7818,5.8109,5.8229,5.8227,5.8156,5.8065,5.792,5.7755,5.7534,5.7273,5.7235,5.7075,5.7022,5.7205,5.7758,5.8345,5.9195,5.9944,6.0236,6.074,6.1083,6.1339,6.1509,6.1515,6.1465,6.1252,6.1169,6.1102,6.1119,6.1119,6.1119,6.1119,6.1119,6.1119,6.1119,6.1119,6.1119,6.1119,6.1119,6.1119,6.1119,6.1119,6.1119,6.1119,6.1119,6.1119,6.1119,6.1119,6.1119,6.1119,6.1119,6.1119,6.1119,6.1119,6.1119,6.1119,6.1119,6.1119,6.1119,6.1119,6.1119,6.1119,6.1119,6.1119,6.1119,6.1119,6.1119,6.1119,6.1119,6.1119,6.1119,6.1119,6.1119,6.1119,6.1119,6.1119,6.1119,6.1119,6.1119,6.1119,6.1119,6.1119,6.1119,6.1119,6.1119,6.1119,6.1119,6.1119,6.1119,6.1119,6.1119,6.1119,6.1119]}]]